<?xml version="1.0" encoding="UTF-8" standalone="no" ?>
<gpx xmlns="http://www.topografix.com/GPX/1/1" xmlns:xsi="http://www.w3.org/2001/XMLSchema-instance" xsi:schemaLocation="http://www.topografix.com/GPX/1/1 http://www.topografix.com/GPX/1/1/gpx.xsd" version="1.1" creator="VisuGPX - https://www.visugpx.com">
  <metadata>
    <name>voyage toulouse sète mazamet variante route port lauragais - béziers 147km 800d+  800d-</name>
    <desc><![CDATA[Port Lauragais - Béziers.
Variante petites routes quand le bord du canal est impraticable, par temps de pluie par exemple.]]></desc>
  </metadata>
  <trk>
    <name><![CDATA[port lauragais béziers variante route 143km 800d+]]></name>
    <trkseg>
      <trkpt lat="43.35577" lon="1.79557">
        <ele>191</ele>
        <time>2010-01-01T00:00:00Z</time>
      </trkpt>
      <trkpt lat="43.35553" lon="1.79549">
        <ele>191</ele>
        <time>2010-01-01T00:00:09Z</time>
      </trkpt>
      <trkpt lat="43.35548" lon="1.79547">
        <ele>191</ele>
        <time>2010-01-01T00:00:11Z</time>
      </trkpt>
      <trkpt lat="43.35545" lon="1.79548">
        <ele>191</ele>
        <time>2010-01-01T00:00:13Z</time>
      </trkpt>
      <trkpt lat="43.35542" lon="1.7955">
        <ele>191</ele>
        <time>2010-01-01T00:00:14Z</time>
      </trkpt>
      <trkpt lat="43.35539" lon="1.79558">
        <ele>191</ele>
        <time>2010-01-01T00:00:17Z</time>
      </trkpt>
      <trkpt lat="43.35535" lon="1.79573">
        <ele>191</ele>
        <time>2010-01-01T00:00:21Z</time>
      </trkpt>
      <trkpt lat="43.35515" lon="1.79615">
        <ele>190</ele>
        <time>2010-01-01T00:00:36Z</time>
      </trkpt>
      <trkpt lat="43.3546" lon="1.79712">
        <ele>189</ele>
        <time>2010-01-01T00:01:12Z</time>
      </trkpt>
      <trkpt lat="43.35384" lon="1.79829">
        <ele>193</ele>
        <time>2010-01-01T00:01:57Z</time>
      </trkpt>
      <trkpt lat="43.35376" lon="1.79839">
        <ele>192</ele>
        <time>2010-01-01T00:02:02Z</time>
      </trkpt>
      <trkpt lat="43.35361" lon="1.7985">
        <ele>192</ele>
        <time>2010-01-01T00:02:09Z</time>
      </trkpt>
      <trkpt lat="43.35266" lon="1.79894">
        <ele>197</ele>
        <time>2010-01-01T00:02:49Z</time>
      </trkpt>
      <trkpt lat="43.35255" lon="1.79903">
        <ele>197</ele>
        <time>2010-01-01T00:02:54Z</time>
      </trkpt>
      <trkpt lat="43.35245" lon="1.79914">
        <ele>199</ele>
        <time>2010-01-01T00:02:59Z</time>
      </trkpt>
      <trkpt lat="43.35236" lon="1.79928">
        <ele>199</ele>
        <time>2010-01-01T00:03:04Z</time>
      </trkpt>
      <trkpt lat="43.35227" lon="1.79948">
        <ele>200</ele>
        <time>2010-01-01T00:03:11Z</time>
      </trkpt>
      <trkpt lat="43.352" lon="1.80011">
        <ele>199</ele>
        <time>2010-01-01T00:03:32Z</time>
      </trkpt>
      <trkpt lat="43.35151" lon="1.80098">
        <ele>201</ele>
        <time>2010-01-01T00:04:05Z</time>
      </trkpt>
      <trkpt lat="43.35136" lon="1.8013">
        <ele>201</ele>
        <time>2010-01-01T00:04:16Z</time>
      </trkpt>
      <trkpt lat="43.35081" lon="1.80257">
        <ele>199</ele>
        <time>2010-01-01T00:04:59Z</time>
      </trkpt>
      <trkpt lat="43.35071" lon="1.80276">
        <ele>200</ele>
        <time>2010-01-01T00:05:05Z</time>
      </trkpt>
      <trkpt lat="43.35047" lon="1.80307">
        <ele>202</ele>
        <time>2010-01-01T00:05:19Z</time>
      </trkpt>
      <trkpt lat="43.35029" lon="1.80337">
        <ele>202</ele>
        <time>2010-01-01T00:05:30Z</time>
      </trkpt>
      <trkpt lat="43.35023" lon="1.80352">
        <ele>202</ele>
        <time>2010-01-01T00:05:35Z</time>
      </trkpt>
      <trkpt lat="43.3501" lon="1.80422">
        <ele>202</ele>
        <time>2010-01-01T00:05:56Z</time>
      </trkpt>
      <trkpt lat="43.35005" lon="1.80434">
        <ele>201</ele>
        <time>2010-01-01T00:06:00Z</time>
      </trkpt>
      <trkpt lat="43.3499" lon="1.80462">
        <ele>206</ele>
        <time>2010-01-01T00:06:10Z</time>
      </trkpt>
      <trkpt lat="43.34923" lon="1.80559">
        <ele>201</ele>
        <time>2010-01-01T00:06:49Z</time>
      </trkpt>
      <trkpt lat="43.34856" lon="1.80637">
        <ele>201</ele>
        <time>2010-01-01T00:07:24Z</time>
      </trkpt>
      <trkpt lat="43.34819" lon="1.8069">
        <ele>199</ele>
        <time>2010-01-01T00:07:46Z</time>
      </trkpt>
      <trkpt lat="43.34788" lon="1.80736">
        <ele>199</ele>
        <time>2010-01-01T00:08:04Z</time>
      </trkpt>
      <trkpt lat="43.34724" lon="1.8081">
        <ele>198</ele>
        <time>2010-01-01T00:08:37Z</time>
      </trkpt>
      <trkpt lat="43.34637" lon="1.80905">
        <ele>200</ele>
        <time>2010-01-01T00:09:22Z</time>
      </trkpt>
      <trkpt lat="43.34588" lon="1.8096">
        <ele>199</ele>
        <time>2010-01-01T00:09:47Z</time>
      </trkpt>
      <trkpt lat="43.34574" lon="1.80975">
        <ele>202</ele>
        <time>2010-01-01T00:09:54Z</time>
      </trkpt>
      <trkpt lat="43.34566" lon="1.80983">
        <ele>202</ele>
        <time>2010-01-01T00:09:58Z</time>
      </trkpt>
      <trkpt lat="43.34386" lon="1.8113">
        <ele>209</ele>
        <time>2010-01-01T00:11:22Z</time>
      </trkpt>
      <trkpt lat="43.34276" lon="1.81199">
        <ele>211</ele>
        <time>2010-01-01T00:12:10Z</time>
      </trkpt>
      <trkpt lat="43.34268" lon="1.81208">
        <ele>211</ele>
        <time>2010-01-01T00:12:15Z</time>
      </trkpt>
      <trkpt lat="43.34197" lon="1.81271">
        <ele>210</ele>
        <time>2010-01-01T00:12:48Z</time>
      </trkpt>
      <trkpt lat="43.34185" lon="1.8128">
        <ele>210</ele>
        <time>2010-01-01T00:12:54Z</time>
      </trkpt>
      <trkpt lat="43.34132" lon="1.81307">
        <ele>210</ele>
        <time>2010-01-01T00:13:16Z</time>
      </trkpt>
      <trkpt lat="43.34115" lon="1.81313">
        <ele>209</ele>
        <time>2010-01-01T00:13:23Z</time>
      </trkpt>
      <trkpt lat="43.34053" lon="1.81331">
        <ele>211</ele>
        <time>2010-01-01T00:13:49Z</time>
      </trkpt>
      <trkpt lat="43.34015" lon="1.81345">
        <ele>212</ele>
        <time>2010-01-01T00:14:05Z</time>
      </trkpt>
      <trkpt lat="43.33991" lon="1.81356">
        <ele>213</ele>
        <time>2010-01-01T00:14:15Z</time>
      </trkpt>
      <trkpt lat="43.33866" lon="1.81427">
        <ele>214</ele>
        <time>2010-01-01T00:15:09Z</time>
      </trkpt>
      <trkpt lat="43.33853" lon="1.81439">
        <ele>215</ele>
        <time>2010-01-01T00:15:15Z</time>
      </trkpt>
      <trkpt lat="43.33758" lon="1.81541">
        <ele>217</ele>
        <time>2010-01-01T00:16:03Z</time>
      </trkpt>
      <trkpt lat="43.33665" lon="1.81627">
        <ele>219</ele>
        <time>2010-01-01T00:16:48Z</time>
      </trkpt>
      <trkpt lat="43.33653" lon="1.81636">
        <ele>218</ele>
        <time>2010-01-01T00:16:54Z</time>
      </trkpt>
      <trkpt lat="43.33638" lon="1.81642">
        <ele>218</ele>
        <time>2010-01-01T00:17:00Z</time>
      </trkpt>
      <trkpt lat="43.33619" lon="1.81643">
        <ele>219</ele>
        <time>2010-01-01T00:17:08Z</time>
      </trkpt>
      <trkpt lat="43.33602" lon="1.81642">
        <ele>219</ele>
        <time>2010-01-01T00:17:14Z</time>
      </trkpt>
      <trkpt lat="43.33594" lon="1.81643">
        <ele>219</ele>
        <time>2010-01-01T00:17:18Z</time>
      </trkpt>
      <trkpt lat="43.33559" lon="1.81659">
        <ele>221</ele>
        <time>2010-01-01T00:17:32Z</time>
      </trkpt>
      <trkpt lat="43.33544" lon="1.8167">
        <ele>221</ele>
        <time>2010-01-01T00:17:39Z</time>
      </trkpt>
      <trkpt lat="43.3343" lon="1.81786">
        <ele>224</ele>
        <time>2010-01-01T00:18:36Z</time>
      </trkpt>
      <trkpt lat="43.33389" lon="1.81843">
        <ele>226</ele>
        <time>2010-01-01T00:18:59Z</time>
      </trkpt>
      <trkpt lat="43.33338" lon="1.81941">
        <ele>225</ele>
        <time>2010-01-01T00:19:34Z</time>
      </trkpt>
      <trkpt lat="43.33221" lon="1.82083">
        <ele>233</ele>
        <time>2010-01-01T00:20:37Z</time>
      </trkpt>
      <trkpt lat="43.33085" lon="1.8226">
        <ele>235</ele>
        <time>2010-01-01T00:21:52Z</time>
      </trkpt>
      <trkpt lat="43.33048" lon="1.82312">
        <ele>238</ele>
        <time>2010-01-01T00:22:13Z</time>
      </trkpt>
      <trkpt lat="43.33033" lon="1.82338">
        <ele>239</ele>
        <time>2010-01-01T00:22:23Z</time>
      </trkpt>
      <trkpt lat="43.33023" lon="1.82356">
        <ele>239</ele>
        <time>2010-01-01T00:22:29Z</time>
      </trkpt>
      <trkpt lat="43.33012" lon="1.82375">
        <ele>240</ele>
        <time>2010-01-01T00:22:36Z</time>
      </trkpt>
      <trkpt lat="43.32995" lon="1.82395">
        <ele>244</ele>
        <time>2010-01-01T00:22:45Z</time>
      </trkpt>
      <trkpt lat="43.33006" lon="1.82405">
        <ele>241</ele>
        <time>2010-01-01T00:22:51Z</time>
      </trkpt>
      <trkpt lat="43.33009" lon="1.82408">
        <ele>241</ele>
        <time>2010-01-01T00:22:52Z</time>
      </trkpt>
      <trkpt lat="43.33024" lon="1.8242">
        <ele>240</ele>
        <time>2010-01-01T00:22:59Z</time>
      </trkpt>
      <trkpt lat="43.33079" lon="1.82472">
        <ele>237</ele>
        <time>2010-01-01T00:23:26Z</time>
      </trkpt>
      <trkpt lat="43.33081" lon="1.82474">
        <ele>237</ele>
        <time>2010-01-01T00:23:27Z</time>
      </trkpt>
      <trkpt lat="43.33085" lon="1.82478">
        <ele>235</ele>
        <time>2010-01-01T00:23:29Z</time>
      </trkpt>
      <trkpt lat="43.3309" lon="1.82483">
        <ele>235</ele>
        <time>2010-01-01T00:23:31Z</time>
      </trkpt>
      <trkpt lat="43.33145" lon="1.82536">
        <ele>237</ele>
        <time>2010-01-01T00:23:58Z</time>
      </trkpt>
      <trkpt lat="43.33163" lon="1.8255">
        <ele>237</ele>
        <time>2010-01-01T00:24:06Z</time>
      </trkpt>
      <trkpt lat="43.33182" lon="1.82557">
        <ele>239</ele>
        <time>2010-01-01T00:24:14Z</time>
      </trkpt>
      <trkpt lat="43.33203" lon="1.82557">
        <ele>239</ele>
        <time>2010-01-01T00:24:23Z</time>
      </trkpt>
      <trkpt lat="43.33261" lon="1.82547">
        <ele>243</ele>
        <time>2010-01-01T00:24:46Z</time>
      </trkpt>
      <trkpt lat="43.33284" lon="1.82531">
        <ele>243</ele>
        <time>2010-01-01T00:24:56Z</time>
      </trkpt>
      <trkpt lat="43.33349" lon="1.82444">
        <ele>243</ele>
        <time>2010-01-01T00:25:33Z</time>
      </trkpt>
      <trkpt lat="43.33369" lon="1.82432">
        <ele>243</ele>
        <time>2010-01-01T00:25:41Z</time>
      </trkpt>
      <trkpt lat="43.33379" lon="1.82433">
        <ele>243</ele>
        <time>2010-01-01T00:25:45Z</time>
      </trkpt>
      <trkpt lat="43.33391" lon="1.82438">
        <ele>243</ele>
        <time>2010-01-01T00:25:50Z</time>
      </trkpt>
      <trkpt lat="43.33397" lon="1.82443">
        <ele>243</ele>
        <time>2010-01-01T00:25:53Z</time>
      </trkpt>
      <trkpt lat="43.33403" lon="1.82448">
        <ele>243</ele>
        <time>2010-01-01T00:25:56Z</time>
      </trkpt>
      <trkpt lat="43.33437" lon="1.82489">
        <ele>239</ele>
        <time>2010-01-01T00:26:14Z</time>
      </trkpt>
      <trkpt lat="43.33446" lon="1.82513">
        <ele>238</ele>
        <time>2010-01-01T00:26:22Z</time>
      </trkpt>
      <trkpt lat="43.33448" lon="1.82531">
        <ele>237</ele>
        <time>2010-01-01T00:26:27Z</time>
      </trkpt>
      <trkpt lat="43.33447" lon="1.82585">
        <ele>237</ele>
        <time>2010-01-01T00:26:43Z</time>
      </trkpt>
      <trkpt lat="43.3345" lon="1.82633">
        <ele>235</ele>
        <time>2010-01-01T00:26:57Z</time>
      </trkpt>
      <trkpt lat="43.33451" lon="1.82665">
        <ele>235</ele>
        <time>2010-01-01T00:27:06Z</time>
      </trkpt>
      <trkpt lat="43.33447" lon="1.82695">
        <ele>232</ele>
        <time>2010-01-01T00:27:15Z</time>
      </trkpt>
      <trkpt lat="43.33425" lon="1.82757">
        <ele>232</ele>
        <time>2010-01-01T00:27:35Z</time>
      </trkpt>
      <trkpt lat="43.33418" lon="1.82792">
        <ele>229</ele>
        <time>2010-01-01T00:27:46Z</time>
      </trkpt>
      <trkpt lat="43.33413" lon="1.82821">
        <ele>233</ele>
        <time>2010-01-01T00:27:55Z</time>
      </trkpt>
      <trkpt lat="43.33411" lon="1.82841">
        <ele>231</ele>
        <time>2010-01-01T00:28:00Z</time>
      </trkpt>
      <trkpt lat="43.33413" lon="1.82859">
        <ele>232</ele>
        <time>2010-01-01T00:28:06Z</time>
      </trkpt>
      <trkpt lat="43.33417" lon="1.82875">
        <ele>227</ele>
        <time>2010-01-01T00:28:11Z</time>
      </trkpt>
      <trkpt lat="43.33425" lon="1.82892">
        <ele>227</ele>
        <time>2010-01-01T00:28:17Z</time>
      </trkpt>
      <trkpt lat="43.33438" lon="1.82907">
        <ele>226</ele>
        <time>2010-01-01T00:28:23Z</time>
      </trkpt>
      <trkpt lat="43.33456" lon="1.8292">
        <ele>228</ele>
        <time>2010-01-01T00:28:31Z</time>
      </trkpt>
      <trkpt lat="43.33468" lon="1.82925">
        <ele>228</ele>
        <time>2010-01-01T00:28:37Z</time>
      </trkpt>
      <trkpt lat="43.33482" lon="1.82927">
        <ele>228</ele>
        <time>2010-01-01T00:28:42Z</time>
      </trkpt>
      <trkpt lat="43.33495" lon="1.82925">
        <ele>228</ele>
        <time>2010-01-01T00:28:47Z</time>
      </trkpt>
      <trkpt lat="43.33507" lon="1.8292">
        <ele>230</ele>
        <time>2010-01-01T00:28:52Z</time>
      </trkpt>
      <trkpt lat="43.33543" lon="1.82897">
        <ele>231</ele>
        <time>2010-01-01T00:29:08Z</time>
      </trkpt>
      <trkpt lat="43.33558" lon="1.82883">
        <ele>231</ele>
        <time>2010-01-01T00:29:16Z</time>
      </trkpt>
      <trkpt lat="43.33589" lon="1.82842">
        <ele>232</ele>
        <time>2010-01-01T00:29:33Z</time>
      </trkpt>
      <trkpt lat="43.33611" lon="1.82801">
        <ele>231</ele>
        <time>2010-01-01T00:29:48Z</time>
      </trkpt>
      <trkpt lat="43.3362" lon="1.8279">
        <ele>231</ele>
        <time>2010-01-01T00:29:52Z</time>
      </trkpt>
      <trkpt lat="43.33631" lon="1.82785">
        <ele>232</ele>
        <time>2010-01-01T00:29:57Z</time>
      </trkpt>
      <trkpt lat="43.33641" lon="1.82789">
        <ele>232</ele>
        <time>2010-01-01T00:30:01Z</time>
      </trkpt>
      <trkpt lat="43.33648" lon="1.82795">
        <ele>233</ele>
        <time>2010-01-01T00:30:05Z</time>
      </trkpt>
      <trkpt lat="43.33654" lon="1.82805">
        <ele>233</ele>
        <time>2010-01-01T00:30:08Z</time>
      </trkpt>
      <trkpt lat="43.33698" lon="1.82913">
        <ele>234</ele>
        <time>2010-01-01T00:30:44Z</time>
      </trkpt>
      <trkpt lat="43.33699" lon="1.82923">
        <ele>232</ele>
        <time>2010-01-01T00:30:47Z</time>
      </trkpt>
      <trkpt lat="43.33698" lon="1.82944">
        <ele>231</ele>
        <time>2010-01-01T00:30:53Z</time>
      </trkpt>
      <trkpt lat="43.3369" lon="1.8299">
        <ele>233</ele>
        <time>2010-01-01T00:31:07Z</time>
      </trkpt>
      <trkpt lat="43.33647" lon="1.83126">
        <ele>235</ele>
        <time>2010-01-01T00:31:50Z</time>
      </trkpt>
      <trkpt lat="43.3364" lon="1.83153">
        <ele>234</ele>
        <time>2010-01-01T00:31:59Z</time>
      </trkpt>
      <trkpt lat="43.33636" lon="1.83179">
        <ele>231</ele>
        <time>2010-01-01T00:32:06Z</time>
      </trkpt>
      <trkpt lat="43.33626" lon="1.83274">
        <ele>228</ele>
        <time>2010-01-01T00:32:34Z</time>
      </trkpt>
      <trkpt lat="43.33625" lon="1.83302">
        <ele>227</ele>
        <time>2010-01-01T00:32:43Z</time>
      </trkpt>
      <trkpt lat="43.33625" lon="1.83324">
        <ele>227</ele>
        <time>2010-01-01T00:32:49Z</time>
      </trkpt>
      <trkpt lat="43.33629" lon="1.83345">
        <ele>221</ele>
        <time>2010-01-01T00:32:55Z</time>
      </trkpt>
      <trkpt lat="43.33635" lon="1.83364">
        <ele>220</ele>
        <time>2010-01-01T00:33:01Z</time>
      </trkpt>
      <trkpt lat="43.33642" lon="1.8338">
        <ele>218</ele>
        <time>2010-01-01T00:33:07Z</time>
      </trkpt>
      <trkpt lat="43.33652" lon="1.83395">
        <ele>216</ele>
        <time>2010-01-01T00:33:13Z</time>
      </trkpt>
      <trkpt lat="43.33686" lon="1.83432">
        <ele>205</ele>
        <time>2010-01-01T00:33:30Z</time>
      </trkpt>
      <trkpt lat="43.33712" lon="1.8346">
        <ele>203</ele>
        <time>2010-01-01T00:33:43Z</time>
      </trkpt>
      <trkpt lat="43.33697" lon="1.83487">
        <ele>203</ele>
        <time>2010-01-01T00:33:53Z</time>
      </trkpt>
      <trkpt lat="43.33662" lon="1.83553">
        <ele>207</ele>
        <time>2010-01-01T00:34:17Z</time>
      </trkpt>
      <trkpt lat="43.33641" lon="1.83592">
        <ele>205</ele>
        <time>2010-01-01T00:34:31Z</time>
      </trkpt>
      <trkpt lat="43.33592" lon="1.83663">
        <ele>208</ele>
        <time>2010-01-01T00:35:00Z</time>
      </trkpt>
      <trkpt lat="43.33571" lon="1.83685">
        <ele>208</ele>
        <time>2010-01-01T00:35:10Z</time>
      </trkpt>
      <trkpt lat="43.3355" lon="1.83699">
        <ele>207</ele>
        <time>2010-01-01T00:35:19Z</time>
      </trkpt>
      <trkpt lat="43.33506" lon="1.83716">
        <ele>208</ele>
        <time>2010-01-01T00:35:38Z</time>
      </trkpt>
      <trkpt lat="43.33496" lon="1.83724">
        <ele>212</ele>
        <time>2010-01-01T00:35:42Z</time>
      </trkpt>
      <trkpt lat="43.33489" lon="1.83735">
        <ele>211</ele>
        <time>2010-01-01T00:35:47Z</time>
      </trkpt>
      <trkpt lat="43.33466" lon="1.83792">
        <ele>208</ele>
        <time>2010-01-01T00:36:06Z</time>
      </trkpt>
      <trkpt lat="43.3344" lon="1.83843">
        <ele>206</ele>
        <time>2010-01-01T00:36:24Z</time>
      </trkpt>
      <trkpt lat="43.33428" lon="1.83861">
        <ele>206</ele>
        <time>2010-01-01T00:36:31Z</time>
      </trkpt>
      <trkpt lat="43.33387" lon="1.83897">
        <ele>210</ele>
        <time>2010-01-01T00:36:50Z</time>
      </trkpt>
      <trkpt lat="43.33379" lon="1.83908">
        <ele>210</ele>
        <time>2010-01-01T00:36:55Z</time>
      </trkpt>
      <trkpt lat="43.33316" lon="1.84004">
        <ele>208</ele>
        <time>2010-01-01T00:37:33Z</time>
      </trkpt>
      <trkpt lat="43.33304" lon="1.84025">
        <ele>209</ele>
        <time>2010-01-01T00:37:40Z</time>
      </trkpt>
      <trkpt lat="43.33286" lon="1.84072">
        <ele>210</ele>
        <time>2010-01-01T00:37:56Z</time>
      </trkpt>
      <trkpt lat="43.33277" lon="1.84092">
        <ele>208</ele>
        <time>2010-01-01T00:38:03Z</time>
      </trkpt>
      <trkpt lat="43.33262" lon="1.84116">
        <ele>208</ele>
        <time>2010-01-01T00:38:12Z</time>
      </trkpt>
      <trkpt lat="43.33248" lon="1.84134">
        <ele>210</ele>
        <time>2010-01-01T00:38:19Z</time>
      </trkpt>
      <trkpt lat="43.33234" lon="1.84149">
        <ele>210</ele>
        <time>2010-01-01T00:38:27Z</time>
      </trkpt>
      <trkpt lat="43.33219" lon="1.84159">
        <ele>210</ele>
        <time>2010-01-01T00:38:33Z</time>
      </trkpt>
      <trkpt lat="43.33204" lon="1.84165">
        <ele>211</ele>
        <time>2010-01-01T00:38:40Z</time>
      </trkpt>
      <trkpt lat="43.33164" lon="1.84176">
        <ele>211</ele>
        <time>2010-01-01T00:38:56Z</time>
      </trkpt>
      <trkpt lat="43.33138" lon="1.84189">
        <ele>211</ele>
        <time>2010-01-01T00:39:07Z</time>
      </trkpt>
      <trkpt lat="43.33127" lon="1.84199">
        <ele>211</ele>
        <time>2010-01-01T00:39:12Z</time>
      </trkpt>
      <trkpt lat="43.3309" lon="1.84241">
        <ele>210</ele>
        <time>2010-01-01T00:39:31Z</time>
      </trkpt>
      <trkpt lat="43.33078" lon="1.84251">
        <ele>209</ele>
        <time>2010-01-01T00:39:37Z</time>
      </trkpt>
      <trkpt lat="43.33055" lon="1.84266">
        <ele>209</ele>
        <time>2010-01-01T00:39:47Z</time>
      </trkpt>
      <trkpt lat="43.33032" lon="1.84277">
        <ele>210</ele>
        <time>2010-01-01T00:39:57Z</time>
      </trkpt>
      <trkpt lat="43.33028" lon="1.84279">
        <ele>210</ele>
        <time>2010-01-01T00:39:59Z</time>
      </trkpt>
      <trkpt lat="43.33018" lon="1.84284">
        <ele>210</ele>
        <time>2010-01-01T00:40:03Z</time>
      </trkpt>
      <trkpt lat="43.32999" lon="1.843">
        <ele>214</ele>
        <time>2010-01-01T00:40:12Z</time>
      </trkpt>
      <trkpt lat="43.32924" lon="1.84377">
        <ele>211</ele>
        <time>2010-01-01T00:40:49Z</time>
      </trkpt>
      <trkpt lat="43.32916" lon="1.8439">
        <ele>215</ele>
        <time>2010-01-01T00:40:54Z</time>
      </trkpt>
      <trkpt lat="43.32886" lon="1.84453">
        <ele>211</ele>
        <time>2010-01-01T00:41:16Z</time>
      </trkpt>
      <trkpt lat="43.32867" lon="1.84478">
        <ele>211</ele>
        <time>2010-01-01T00:41:27Z</time>
      </trkpt>
      <trkpt lat="43.32846" lon="1.84495">
        <ele>210</ele>
        <time>2010-01-01T00:41:36Z</time>
      </trkpt>
      <trkpt lat="43.32815" lon="1.84515">
        <ele>210</ele>
        <time>2010-01-01T00:41:50Z</time>
      </trkpt>
      <trkpt lat="43.32806" lon="1.84518">
        <ele>210</ele>
        <time>2010-01-01T00:41:54Z</time>
      </trkpt>
      <trkpt lat="43.32791" lon="1.84519">
        <ele>210</ele>
        <time>2010-01-01T00:42:00Z</time>
      </trkpt>
      <trkpt lat="43.32768" lon="1.84514">
        <ele>212</ele>
        <time>2010-01-01T00:42:09Z</time>
      </trkpt>
      <trkpt lat="43.32754" lon="1.84513">
        <ele>213</ele>
        <time>2010-01-01T00:42:15Z</time>
      </trkpt>
      <trkpt lat="43.32736" lon="1.84515">
        <ele>214</ele>
        <time>2010-01-01T00:42:22Z</time>
      </trkpt>
      <trkpt lat="43.32726" lon="1.84518">
        <ele>214</ele>
        <time>2010-01-01T00:42:26Z</time>
      </trkpt>
      <trkpt lat="43.32707" lon="1.84532">
        <ele>213</ele>
        <time>2010-01-01T00:42:35Z</time>
      </trkpt>
      <trkpt lat="43.32691" lon="1.84554">
        <ele>213</ele>
        <time>2010-01-01T00:42:44Z</time>
      </trkpt>
      <trkpt lat="43.32677" lon="1.84584">
        <ele>212</ele>
        <time>2010-01-01T00:42:54Z</time>
      </trkpt>
      <trkpt lat="43.32631" lon="1.84748">
        <ele>211</ele>
        <time>2010-01-01T00:43:45Z</time>
      </trkpt>
      <trkpt lat="43.32622" lon="1.8477">
        <ele>209</ele>
        <time>2010-01-01T00:43:53Z</time>
      </trkpt>
      <trkpt lat="43.32612" lon="1.84787">
        <ele>209</ele>
        <time>2010-01-01T00:43:59Z</time>
      </trkpt>
      <trkpt lat="43.32602" lon="1.84802">
        <ele>209</ele>
        <time>2010-01-01T00:44:05Z</time>
      </trkpt>
      <trkpt lat="43.32588" lon="1.84818">
        <ele>209</ele>
        <time>2010-01-01T00:44:12Z</time>
      </trkpt>
      <trkpt lat="43.32523" lon="1.84878">
        <ele>209</ele>
        <time>2010-01-01T00:44:44Z</time>
      </trkpt>
      <trkpt lat="43.3251" lon="1.84894">
        <ele>209</ele>
        <time>2010-01-01T00:44:51Z</time>
      </trkpt>
      <trkpt lat="43.32397" lon="1.85066">
        <ele>213</ele>
        <time>2010-01-01T00:45:58Z</time>
      </trkpt>
      <trkpt lat="43.32376" lon="1.85106">
        <ele>210</ele>
        <time>2010-01-01T00:46:13Z</time>
      </trkpt>
      <trkpt lat="43.32362" lon="1.85138">
        <ele>211</ele>
        <time>2010-01-01T00:46:23Z</time>
      </trkpt>
      <trkpt lat="43.32283" lon="1.85357">
        <ele>208</ele>
        <time>2010-01-01T00:47:35Z</time>
      </trkpt>
      <trkpt lat="43.32231" lon="1.85457">
        <ele>210</ele>
        <time>2010-01-01T00:48:10Z</time>
      </trkpt>
      <trkpt lat="43.32223" lon="1.85477">
        <ele>209</ele>
        <time>2010-01-01T00:48:17Z</time>
      </trkpt>
      <trkpt lat="43.32208" lon="1.85534">
        <ele>207</ele>
        <time>2010-01-01T00:48:35Z</time>
      </trkpt>
      <trkpt lat="43.32201" lon="1.85553">
        <ele>207</ele>
        <time>2010-01-01T00:48:41Z</time>
      </trkpt>
      <trkpt lat="43.32193" lon="1.85568">
        <ele>207</ele>
        <time>2010-01-01T00:48:46Z</time>
      </trkpt>
      <trkpt lat="43.32183" lon="1.85584">
        <ele>206</ele>
        <time>2010-01-01T00:48:52Z</time>
      </trkpt>
      <trkpt lat="43.32116" lon="1.85667">
        <ele>205</ele>
        <time>2010-01-01T00:49:29Z</time>
      </trkpt>
      <trkpt lat="43.321" lon="1.85677">
        <ele>206</ele>
        <time>2010-01-01T00:49:36Z</time>
      </trkpt>
      <trkpt lat="43.32086" lon="1.85682">
        <ele>206</ele>
        <time>2010-01-01T00:49:41Z</time>
      </trkpt>
      <trkpt lat="43.32066" lon="1.85685">
        <ele>207</ele>
        <time>2010-01-01T00:49:49Z</time>
      </trkpt>
      <trkpt lat="43.32048" lon="1.85683">
        <ele>206</ele>
        <time>2010-01-01T00:49:57Z</time>
      </trkpt>
      <trkpt lat="43.32043" lon="1.85705">
        <ele>206</ele>
        <time>2010-01-01T00:50:03Z</time>
      </trkpt>
      <trkpt lat="43.32039" lon="1.85722">
        <ele>206</ele>
        <time>2010-01-01T00:50:09Z</time>
      </trkpt>
      <trkpt lat="43.32023" lon="1.858">
        <ele>206</ele>
        <time>2010-01-01T00:50:32Z</time>
      </trkpt>
      <trkpt lat="43.31969" lon="1.86037">
        <ele>213</ele>
        <time>2010-01-01T00:51:45Z</time>
      </trkpt>
      <trkpt lat="43.31935" lon="1.86226">
        <ele>212</ele>
        <time>2010-01-01T00:52:41Z</time>
      </trkpt>
      <trkpt lat="43.31918" lon="1.86299">
        <ele>210</ele>
        <time>2010-01-01T00:53:04Z</time>
      </trkpt>
      <trkpt lat="43.31833" lon="1.86557">
        <ele>218</ele>
        <time>2010-01-01T00:54:26Z</time>
      </trkpt>
      <trkpt lat="43.31733" lon="1.86786">
        <ele>216</ele>
        <time>2010-01-01T00:55:44Z</time>
      </trkpt>
      <trkpt lat="43.3167" lon="1.86942">
        <ele>210</ele>
        <time>2010-01-01T00:56:36Z</time>
      </trkpt>
      <trkpt lat="43.31666" lon="1.86952">
        <ele>215</ele>
        <time>2010-01-01T00:56:39Z</time>
      </trkpt>
      <trkpt lat="43.31661" lon="1.86971">
        <ele>214</ele>
        <time>2010-01-01T00:56:45Z</time>
      </trkpt>
      <trkpt lat="43.31659" lon="1.87044">
        <ele>212</ele>
        <time>2010-01-01T00:57:06Z</time>
      </trkpt>
      <trkpt lat="43.31647" lon="1.87095">
        <ele>208</ele>
        <time>2010-01-01T00:57:22Z</time>
      </trkpt>
      <trkpt lat="43.31631" lon="1.87141">
        <ele>208</ele>
        <time>2010-01-01T00:57:37Z</time>
      </trkpt>
      <trkpt lat="43.31583" lon="1.87197">
        <ele>209</ele>
        <time>2010-01-01T00:58:02Z</time>
      </trkpt>
      <trkpt lat="43.31556" lon="1.87248">
        <ele>208</ele>
        <time>2010-01-01T00:58:20Z</time>
      </trkpt>
      <trkpt lat="43.31493" lon="1.87464">
        <ele>209</ele>
        <time>2010-01-01T00:59:28Z</time>
      </trkpt>
      <trkpt lat="43.31475" lon="1.87586">
        <ele>201</ele>
        <time>2010-01-01T01:00:04Z</time>
      </trkpt>
      <trkpt lat="43.31473" lon="1.87605">
        <ele>201</ele>
        <time>2010-01-01T01:00:10Z</time>
      </trkpt>
      <trkpt lat="43.31467" lon="1.87647">
        <ele>201</ele>
        <time>2010-01-01T01:00:22Z</time>
      </trkpt>
      <trkpt lat="43.31451" lon="1.87696">
        <ele>198</ele>
        <time>2010-01-01T01:00:38Z</time>
      </trkpt>
      <trkpt lat="43.31399" lon="1.8779">
        <ele>198</ele>
        <time>2010-01-01T01:01:12Z</time>
      </trkpt>
      <trkpt lat="43.31392" lon="1.87801">
        <ele>198</ele>
        <time>2010-01-01T01:01:17Z</time>
      </trkpt>
      <trkpt lat="43.31368" lon="1.87851">
        <ele>197</ele>
        <time>2010-01-01T01:01:34Z</time>
      </trkpt>
      <trkpt lat="43.31264" lon="1.88043">
        <ele>197</ele>
        <time>2010-01-01T01:02:44Z</time>
      </trkpt>
      <trkpt lat="43.31228" lon="1.8811">
        <ele>197</ele>
        <time>2010-01-01T01:03:08Z</time>
      </trkpt>
      <trkpt lat="43.31173" lon="1.88187">
        <ele>196</ele>
        <time>2010-01-01T01:03:40Z</time>
      </trkpt>
      <trkpt lat="43.31157" lon="1.8821">
        <ele>197</ele>
        <time>2010-01-01T01:03:49Z</time>
      </trkpt>
      <trkpt lat="43.31151" lon="1.88233">
        <ele>196</ele>
        <time>2010-01-01T01:03:56Z</time>
      </trkpt>
      <trkpt lat="43.31127" lon="1.88362">
        <ele>194</ele>
        <time>2010-01-01T01:04:35Z</time>
      </trkpt>
      <trkpt lat="43.31118" lon="1.88468">
        <ele>192</ele>
        <time>2010-01-01T01:05:06Z</time>
      </trkpt>
      <trkpt lat="43.31105" lon="1.88641">
        <ele>192</ele>
        <time>2010-01-01T01:05:56Z</time>
      </trkpt>
      <trkpt lat="43.31088" lon="1.88783">
        <ele>189</ele>
        <time>2010-01-01T01:06:38Z</time>
      </trkpt>
      <trkpt lat="43.31051" lon="1.88989">
        <ele>187</ele>
        <time>2010-01-01T01:07:40Z</time>
      </trkpt>
      <trkpt lat="43.31029" lon="1.89139">
        <ele>184</ele>
        <time>2010-01-01T01:08:25Z</time>
      </trkpt>
      <trkpt lat="43.31014" lon="1.89287">
        <ele>184</ele>
        <time>2010-01-01T01:09:08Z</time>
      </trkpt>
      <trkpt lat="43.31015" lon="1.89327">
        <ele>184</ele>
        <time>2010-01-01T01:09:20Z</time>
      </trkpt>
      <trkpt lat="43.3104" lon="1.89451">
        <ele>188</ele>
        <time>2010-01-01T01:09:57Z</time>
      </trkpt>
      <trkpt lat="43.31057" lon="1.89503">
        <ele>191</ele>
        <time>2010-01-01T01:10:14Z</time>
      </trkpt>
      <trkpt lat="43.3108" lon="1.89547">
        <ele>192</ele>
        <time>2010-01-01T01:10:30Z</time>
      </trkpt>
      <trkpt lat="43.3111" lon="1.89589">
        <ele>191</ele>
        <time>2010-01-01T01:10:47Z</time>
      </trkpt>
      <trkpt lat="43.31115" lon="1.89596">
        <ele>191</ele>
        <time>2010-01-01T01:10:50Z</time>
      </trkpt>
      <trkpt lat="43.31173" lon="1.89667">
        <ele>189</ele>
        <time>2010-01-01T01:11:21Z</time>
      </trkpt>
      <trkpt lat="43.31208" lon="1.89711">
        <ele>188</ele>
        <time>2010-01-01T01:11:40Z</time>
      </trkpt>
      <trkpt lat="43.31241" lon="1.89767">
        <ele>186</ele>
        <time>2010-01-01T01:12:01Z</time>
      </trkpt>
      <trkpt lat="43.31255" lon="1.89802">
        <ele>183</ele>
        <time>2010-01-01T01:12:12Z</time>
      </trkpt>
      <trkpt lat="43.31264" lon="1.89837">
        <ele>182</ele>
        <time>2010-01-01T01:12:23Z</time>
      </trkpt>
      <trkpt lat="43.31271" lon="1.89887">
        <ele>182</ele>
        <time>2010-01-01T01:12:38Z</time>
      </trkpt>
      <trkpt lat="43.31272" lon="1.89919">
        <ele>182</ele>
        <time>2010-01-01T01:12:47Z</time>
      </trkpt>
      <trkpt lat="43.31273" lon="1.89949">
        <ele>182</ele>
        <time>2010-01-01T01:12:56Z</time>
      </trkpt>
      <trkpt lat="43.31262" lon="1.90026">
        <ele>182</ele>
        <time>2010-01-01T01:13:19Z</time>
      </trkpt>
      <trkpt lat="43.31252" lon="1.90058">
        <ele>182</ele>
        <time>2010-01-01T01:13:29Z</time>
      </trkpt>
      <trkpt lat="43.31247" lon="1.90071">
        <ele>182</ele>
        <time>2010-01-01T01:13:33Z</time>
      </trkpt>
      <trkpt lat="43.31129" lon="1.90394">
        <ele>183</ele>
        <time>2010-01-01T01:15:19Z</time>
      </trkpt>
      <trkpt lat="43.31112" lon="1.90463">
        <ele>183</ele>
        <time>2010-01-01T01:15:40Z</time>
      </trkpt>
      <trkpt lat="43.31106" lon="1.9049">
        <ele>182</ele>
        <time>2010-01-01T01:15:48Z</time>
      </trkpt>
      <trkpt lat="43.31104" lon="1.90497">
        <ele>182</ele>
        <time>2010-01-01T01:15:50Z</time>
      </trkpt>
      <trkpt lat="43.31096" lon="1.90531">
        <ele>182</ele>
        <time>2010-01-01T01:16:01Z</time>
      </trkpt>
      <trkpt lat="43.30969" lon="1.90795">
        <ele>182</ele>
        <time>2010-01-01T01:17:33Z</time>
      </trkpt>
      <trkpt lat="43.3094" lon="1.90878">
        <ele>181</ele>
        <time>2010-01-01T01:18:00Z</time>
      </trkpt>
      <trkpt lat="43.30935" lon="1.90922">
        <ele>180</ele>
        <time>2010-01-01T01:18:13Z</time>
      </trkpt>
      <trkpt lat="43.30939" lon="1.91003">
        <ele>178</ele>
        <time>2010-01-01T01:18:36Z</time>
      </trkpt>
      <trkpt lat="43.30935" lon="1.91049">
        <ele>178</ele>
        <time>2010-01-01T01:18:50Z</time>
      </trkpt>
      <trkpt lat="43.30896" lon="1.91254">
        <ele>176</ele>
        <time>2010-01-01T01:19:52Z</time>
      </trkpt>
      <trkpt lat="43.30857" lon="1.91387">
        <ele>174</ele>
        <time>2010-01-01T01:20:33Z</time>
      </trkpt>
      <trkpt lat="43.30793" lon="1.91608">
        <ele>171</ele>
        <time>2010-01-01T01:21:43Z</time>
      </trkpt>
      <trkpt lat="43.30788" lon="1.91643">
        <ele>171</ele>
        <time>2010-01-01T01:21:53Z</time>
      </trkpt>
      <trkpt lat="43.30788" lon="1.91659">
        <ele>171</ele>
        <time>2010-01-01T01:21:58Z</time>
      </trkpt>
      <trkpt lat="43.30789" lon="1.91677">
        <ele>171</ele>
        <time>2010-01-01T01:22:03Z</time>
      </trkpt>
      <trkpt lat="43.30793" lon="1.91697">
        <ele>171</ele>
        <time>2010-01-01T01:22:09Z</time>
      </trkpt>
      <trkpt lat="43.30801" lon="1.91716">
        <ele>171</ele>
        <time>2010-01-01T01:22:15Z</time>
      </trkpt>
      <trkpt lat="43.30837" lon="1.91772">
        <ele>170</ele>
        <time>2010-01-01T01:22:37Z</time>
      </trkpt>
      <trkpt lat="43.30851" lon="1.91799">
        <ele>170</ele>
        <time>2010-01-01T01:22:47Z</time>
      </trkpt>
      <trkpt lat="43.30855" lon="1.91805">
        <ele>170</ele>
        <time>2010-01-01T01:22:49Z</time>
      </trkpt>
      <trkpt lat="43.30866" lon="1.91835">
        <ele>170</ele>
        <time>2010-01-01T01:22:59Z</time>
      </trkpt>
      <trkpt lat="43.30889" lon="1.91905">
        <ele>171</ele>
        <time>2010-01-01T01:23:21Z</time>
      </trkpt>
      <trkpt lat="43.30894" lon="1.91938">
        <ele>170</ele>
        <time>2010-01-01T01:23:31Z</time>
      </trkpt>
      <trkpt lat="43.30899" lon="1.92028">
        <ele>169</ele>
        <time>2010-01-01T01:23:57Z</time>
      </trkpt>
      <trkpt lat="43.30904" lon="1.92102">
        <ele>168</ele>
        <time>2010-01-01T01:24:19Z</time>
      </trkpt>
      <trkpt lat="43.30913" lon="1.92159">
        <ele>167</ele>
        <time>2010-01-01T01:24:36Z</time>
      </trkpt>
      <trkpt lat="43.30914" lon="1.92179">
        <ele>167</ele>
        <time>2010-01-01T01:24:42Z</time>
      </trkpt>
      <trkpt lat="43.30912" lon="1.92201">
        <ele>167</ele>
        <time>2010-01-01T01:24:48Z</time>
      </trkpt>
      <trkpt lat="43.309" lon="1.92256">
        <ele>166</ele>
        <time>2010-01-01T01:25:05Z</time>
      </trkpt>
      <trkpt lat="43.3089" lon="1.92309">
        <ele>167</ele>
        <time>2010-01-01T01:25:21Z</time>
      </trkpt>
      <trkpt lat="43.30882" lon="1.92387">
        <ele>166</ele>
        <time>2010-01-01T01:25:44Z</time>
      </trkpt>
      <trkpt lat="43.30876" lon="1.92448">
        <ele>165</ele>
        <time>2010-01-01T01:26:02Z</time>
      </trkpt>
      <trkpt lat="43.30866" lon="1.925">
        <ele>165</ele>
        <time>2010-01-01T01:26:18Z</time>
      </trkpt>
      <trkpt lat="43.30864" lon="1.9253">
        <ele>164</ele>
        <time>2010-01-01T01:26:26Z</time>
      </trkpt>
      <trkpt lat="43.30864" lon="1.92553">
        <ele>164</ele>
        <time>2010-01-01T01:26:33Z</time>
      </trkpt>
      <trkpt lat="43.30872" lon="1.92628">
        <ele>164</ele>
        <time>2010-01-01T01:26:55Z</time>
      </trkpt>
      <trkpt lat="43.30874" lon="1.92663">
        <ele>164</ele>
        <time>2010-01-01T01:27:05Z</time>
      </trkpt>
      <trkpt lat="43.30873" lon="1.92706">
        <ele>164</ele>
        <time>2010-01-01T01:27:18Z</time>
      </trkpt>
      <trkpt lat="43.30867" lon="1.92774">
        <ele>164</ele>
        <time>2010-01-01T01:27:38Z</time>
      </trkpt>
      <trkpt lat="43.30871" lon="1.92902">
        <ele>164</ele>
        <time>2010-01-01T01:28:15Z</time>
      </trkpt>
      <trkpt lat="43.30872" lon="1.92955">
        <ele>163</ele>
        <time>2010-01-01T01:28:31Z</time>
      </trkpt>
      <trkpt lat="43.30869" lon="1.93054">
        <ele>162</ele>
        <time>2010-01-01T01:29:00Z</time>
      </trkpt>
      <trkpt lat="43.30865" lon="1.93178">
        <ele>161</ele>
        <time>2010-01-01T01:29:36Z</time>
      </trkpt>
      <trkpt lat="43.30859" lon="1.93269">
        <ele>162</ele>
        <time>2010-01-01T01:30:02Z</time>
      </trkpt>
      <trkpt lat="43.30862" lon="1.93323">
        <ele>162</ele>
        <time>2010-01-01T01:30:18Z</time>
      </trkpt>
      <trkpt lat="43.30869" lon="1.93351">
        <ele>161</ele>
        <time>2010-01-01T01:30:27Z</time>
      </trkpt>
      <trkpt lat="43.30872" lon="1.93372">
        <ele>161</ele>
        <time>2010-01-01T01:30:33Z</time>
      </trkpt>
      <trkpt lat="43.30904" lon="1.93442">
        <ele>161</ele>
        <time>2010-01-01T01:30:57Z</time>
      </trkpt>
      <trkpt lat="43.30911" lon="1.93466">
        <ele>160</ele>
        <time>2010-01-01T01:31:05Z</time>
      </trkpt>
      <trkpt lat="43.30912" lon="1.9349">
        <ele>160</ele>
        <time>2010-01-01T01:31:12Z</time>
      </trkpt>
      <trkpt lat="43.30911" lon="1.93536">
        <ele>160</ele>
        <time>2010-01-01T01:31:25Z</time>
      </trkpt>
      <trkpt lat="43.3091" lon="1.93564">
        <ele>159</ele>
        <time>2010-01-01T01:31:33Z</time>
      </trkpt>
      <trkpt lat="43.30901" lon="1.93628">
        <ele>159</ele>
        <time>2010-01-01T01:31:52Z</time>
      </trkpt>
      <trkpt lat="43.30899" lon="1.93649">
        <ele>159</ele>
        <time>2010-01-01T01:31:58Z</time>
      </trkpt>
      <trkpt lat="43.30899" lon="1.93659">
        <ele>159</ele>
        <time>2010-01-01T01:32:01Z</time>
      </trkpt>
      <trkpt lat="43.30902" lon="1.93666">
        <ele>159</ele>
        <time>2010-01-01T01:32:04Z</time>
      </trkpt>
      <trkpt lat="43.30909" lon="1.93677">
        <ele>159</ele>
        <time>2010-01-01T01:32:08Z</time>
      </trkpt>
      <trkpt lat="43.30919" lon="1.93689">
        <ele>160</ele>
        <time>2010-01-01T01:32:13Z</time>
      </trkpt>
      <trkpt lat="43.30947" lon="1.93722">
        <ele>160</ele>
        <time>2010-01-01T01:32:28Z</time>
      </trkpt>
      <trkpt lat="43.30985" lon="1.93767">
        <ele>162</ele>
        <time>2010-01-01T01:32:48Z</time>
      </trkpt>
      <trkpt lat="43.30994" lon="1.93784">
        <ele>162</ele>
        <time>2010-01-01T01:32:54Z</time>
      </trkpt>
      <trkpt lat="43.30999" lon="1.93799">
        <ele>162</ele>
        <time>2010-01-01T01:32:59Z</time>
      </trkpt>
      <trkpt lat="43.31" lon="1.93848">
        <ele>164</ele>
        <time>2010-01-01T01:33:13Z</time>
      </trkpt>
      <trkpt lat="43.31015" lon="1.93972">
        <ele>163</ele>
        <time>2010-01-01T01:33:50Z</time>
      </trkpt>
      <trkpt lat="43.31009" lon="1.94035">
        <ele>163</ele>
        <time>2010-01-01T01:34:08Z</time>
      </trkpt>
      <trkpt lat="43.31011" lon="1.94047">
        <ele>163</ele>
        <time>2010-01-01T01:34:12Z</time>
      </trkpt>
      <trkpt lat="43.31018" lon="1.94064">
        <ele>163</ele>
        <time>2010-01-01T01:34:18Z</time>
      </trkpt>
      <trkpt lat="43.31044" lon="1.94091">
        <ele>164</ele>
        <time>2010-01-01T01:34:31Z</time>
      </trkpt>
      <trkpt lat="43.31047" lon="1.94105">
        <ele>164</ele>
        <time>2010-01-01T01:34:35Z</time>
      </trkpt>
      <trkpt lat="43.31046" lon="1.9411">
        <ele>164</ele>
        <time>2010-01-01T01:34:36Z</time>
      </trkpt>
      <trkpt lat="43.31045" lon="1.94126">
        <ele>164</ele>
        <time>2010-01-01T01:34:41Z</time>
      </trkpt>
      <trkpt lat="43.3104" lon="1.94178">
        <ele>165</ele>
        <time>2010-01-01T01:34:56Z</time>
      </trkpt>
      <trkpt lat="43.31033" lon="1.9423">
        <ele>165</ele>
        <time>2010-01-01T01:35:12Z</time>
      </trkpt>
      <trkpt lat="43.31032" lon="1.94237">
        <ele>165</ele>
        <time>2010-01-01T01:35:14Z</time>
      </trkpt>
      <trkpt lat="43.30997" lon="1.94335">
        <ele>166</ele>
        <time>2010-01-01T01:35:46Z</time>
      </trkpt>
      <trkpt lat="43.31024" lon="1.94402">
        <ele>166</ele>
        <time>2010-01-01T01:36:08Z</time>
      </trkpt>
      <trkpt lat="43.31041" lon="1.94448">
        <ele>167</ele>
        <time>2010-01-01T01:36:23Z</time>
      </trkpt>
      <trkpt lat="43.3105" lon="1.94469">
        <ele>167</ele>
        <time>2010-01-01T01:36:30Z</time>
      </trkpt>
      <trkpt lat="43.31051" lon="1.9447">
        <ele>167</ele>
        <time>2010-01-01T01:36:31Z</time>
      </trkpt>
      <trkpt lat="43.31059" lon="1.94482">
        <ele>167</ele>
        <time>2010-01-01T01:36:35Z</time>
      </trkpt>
      <trkpt lat="43.31066" lon="1.94489">
        <ele>167</ele>
        <time>2010-01-01T01:36:39Z</time>
      </trkpt>
      <trkpt lat="43.31078" lon="1.94501">
        <ele>167</ele>
        <time>2010-01-01T01:36:45Z</time>
      </trkpt>
      <trkpt lat="43.31102" lon="1.94513">
        <ele>167</ele>
        <time>2010-01-01T01:36:55Z</time>
      </trkpt>
      <trkpt lat="43.3113" lon="1.94524">
        <ele>167</ele>
        <time>2010-01-01T01:37:07Z</time>
      </trkpt>
      <trkpt lat="43.31163" lon="1.94537">
        <ele>167</ele>
        <time>2010-01-01T01:37:20Z</time>
      </trkpt>
      <trkpt lat="43.31179" lon="1.94545">
        <ele>168</ele>
        <time>2010-01-01T01:37:27Z</time>
      </trkpt>
      <trkpt lat="43.31185" lon="1.9455">
        <ele>168</ele>
        <time>2010-01-01T01:37:30Z</time>
      </trkpt>
      <trkpt lat="43.31189" lon="1.94553">
        <ele>168</ele>
        <time>2010-01-01T01:37:32Z</time>
      </trkpt>
      <trkpt lat="43.31201" lon="1.94567">
        <ele>168</ele>
        <time>2010-01-01T01:37:38Z</time>
      </trkpt>
      <trkpt lat="43.31232" lon="1.94611">
        <ele>167</ele>
        <time>2010-01-01T01:37:56Z</time>
      </trkpt>
      <trkpt lat="43.3125" lon="1.94638">
        <ele>169</ele>
        <time>2010-01-01T01:38:07Z</time>
      </trkpt>
      <trkpt lat="43.31257" lon="1.94648">
        <ele>170</ele>
        <time>2010-01-01T01:38:11Z</time>
      </trkpt>
      <trkpt lat="43.3126" lon="1.94658">
        <ele>170</ele>
        <time>2010-01-01T01:38:14Z</time>
      </trkpt>
      <trkpt lat="43.31262" lon="1.9467">
        <ele>169</ele>
        <time>2010-01-01T01:38:17Z</time>
      </trkpt>
      <trkpt lat="43.31262" lon="1.94683">
        <ele>169</ele>
        <time>2010-01-01T01:38:21Z</time>
      </trkpt>
      <trkpt lat="43.31256" lon="1.94742">
        <ele>167</ele>
        <time>2010-01-01T01:38:38Z</time>
      </trkpt>
      <trkpt lat="43.31256" lon="1.94755">
        <ele>167</ele>
        <time>2010-01-01T01:38:42Z</time>
      </trkpt>
      <trkpt lat="43.31258" lon="1.94769">
        <ele>168</ele>
        <time>2010-01-01T01:38:46Z</time>
      </trkpt>
      <trkpt lat="43.31263" lon="1.94782">
        <ele>168</ele>
        <time>2010-01-01T01:38:51Z</time>
      </trkpt>
      <trkpt lat="43.31271" lon="1.94793">
        <ele>169</ele>
        <time>2010-01-01T01:38:55Z</time>
      </trkpt>
      <trkpt lat="43.31276" lon="1.94798">
        <ele>169</ele>
        <time>2010-01-01T01:38:58Z</time>
      </trkpt>
      <trkpt lat="43.31284" lon="1.94806">
        <ele>169</ele>
        <time>2010-01-01T01:39:02Z</time>
      </trkpt>
      <trkpt lat="43.31305" lon="1.94825">
        <ele>170</ele>
        <time>2010-01-01T01:39:12Z</time>
      </trkpt>
      <trkpt lat="43.31313" lon="1.94833">
        <ele>170</ele>
        <time>2010-01-01T01:39:16Z</time>
      </trkpt>
      <trkpt lat="43.31312" lon="1.94839">
        <ele>170</ele>
        <time>2010-01-01T01:39:18Z</time>
      </trkpt>
      <trkpt lat="43.31312" lon="1.94851">
        <ele>170</ele>
        <time>2010-01-01T01:39:21Z</time>
      </trkpt>
      <trkpt lat="43.31339" lon="1.94964">
        <ele>170</ele>
        <time>2010-01-01T01:39:56Z</time>
      </trkpt>
      <trkpt lat="43.31351" lon="1.95011">
        <ele>168</ele>
        <time>2010-01-01T01:40:10Z</time>
      </trkpt>
      <trkpt lat="43.31395" lon="1.95084">
        <ele>168</ele>
        <time>2010-01-01T01:40:38Z</time>
      </trkpt>
      <trkpt lat="43.31424" lon="1.95154">
        <ele>169</ele>
        <time>2010-01-01T01:41:01Z</time>
      </trkpt>
      <trkpt lat="43.3144" lon="1.95194">
        <ele>170</ele>
        <time>2010-01-01T01:41:15Z</time>
      </trkpt>
      <trkpt lat="43.31459" lon="1.95242">
        <ele>171</ele>
        <time>2010-01-01T01:41:30Z</time>
      </trkpt>
      <trkpt lat="43.31473" lon="1.95275">
        <ele>171</ele>
        <time>2010-01-01T01:41:42Z</time>
      </trkpt>
      <trkpt lat="43.31491" lon="1.95335">
        <ele>171</ele>
        <time>2010-01-01T01:42:00Z</time>
      </trkpt>
      <trkpt lat="43.31499" lon="1.95372">
        <ele>171</ele>
        <time>2010-01-01T01:42:12Z</time>
      </trkpt>
      <trkpt lat="43.31501" lon="1.95395">
        <ele>172</ele>
        <time>2010-01-01T01:42:18Z</time>
      </trkpt>
      <trkpt lat="43.315" lon="1.95411">
        <ele>172</ele>
        <time>2010-01-01T01:42:23Z</time>
      </trkpt>
      <trkpt lat="43.31498" lon="1.95425">
        <ele>172</ele>
        <time>2010-01-01T01:42:27Z</time>
      </trkpt>
      <trkpt lat="43.31501" lon="1.95443">
        <ele>174</ele>
        <time>2010-01-01T01:42:33Z</time>
      </trkpt>
      <trkpt lat="43.31506" lon="1.95451">
        <ele>174</ele>
        <time>2010-01-01T01:42:36Z</time>
      </trkpt>
      <trkpt lat="43.31518" lon="1.95466">
        <ele>175</ele>
        <time>2010-01-01T01:42:42Z</time>
      </trkpt>
      <trkpt lat="43.31525" lon="1.95472">
        <ele>175</ele>
        <time>2010-01-01T01:42:46Z</time>
      </trkpt>
      <trkpt lat="43.31547" lon="1.95496">
        <ele>175</ele>
        <time>2010-01-01T01:42:57Z</time>
      </trkpt>
      <trkpt lat="43.31553" lon="1.95506">
        <ele>177</ele>
        <time>2010-01-01T01:43:01Z</time>
      </trkpt>
      <trkpt lat="43.31578" lon="1.95551">
        <ele>178</ele>
        <time>2010-01-01T01:43:17Z</time>
      </trkpt>
      <trkpt lat="43.31593" lon="1.95583">
        <ele>179</ele>
        <time>2010-01-01T01:43:28Z</time>
      </trkpt>
      <trkpt lat="43.31601" lon="1.956">
        <ele>182</ele>
        <time>2010-01-01T01:43:34Z</time>
      </trkpt>
      <trkpt lat="43.31595" lon="1.95609">
        <ele>182</ele>
        <time>2010-01-01T01:43:38Z</time>
      </trkpt>
      <trkpt lat="43.31566" lon="1.95654">
        <ele>181</ele>
        <time>2010-01-01T01:43:55Z</time>
      </trkpt>
      <trkpt lat="43.31545" lon="1.95707">
        <ele>181</ele>
        <time>2010-01-01T01:44:13Z</time>
      </trkpt>
      <trkpt lat="43.31536" lon="1.9573">
        <ele>181</ele>
        <time>2010-01-01T01:44:20Z</time>
      </trkpt>
      <trkpt lat="43.31531" lon="1.95745">
        <ele>180</ele>
        <time>2010-01-01T01:44:25Z</time>
      </trkpt>
      <trkpt lat="43.3152" lon="1.95781">
        <ele>182</ele>
        <time>2010-01-01T01:44:36Z</time>
      </trkpt>
      <trkpt lat="43.31519" lon="1.95785">
        <ele>182</ele>
        <time>2010-01-01T01:44:38Z</time>
      </trkpt>
      <trkpt lat="43.31512" lon="1.95798">
        <ele>182</ele>
        <time>2010-01-01T01:44:42Z</time>
      </trkpt>
      <trkpt lat="43.31506" lon="1.95807">
        <ele>182</ele>
        <time>2010-01-01T01:44:46Z</time>
      </trkpt>
      <trkpt lat="43.31486" lon="1.95828">
        <ele>178</ele>
        <time>2010-01-01T01:44:56Z</time>
      </trkpt>
      <trkpt lat="43.31465" lon="1.95842">
        <ele>179</ele>
        <time>2010-01-01T01:45:05Z</time>
      </trkpt>
      <trkpt lat="43.31397" lon="1.95887">
        <ele>177</ele>
        <time>2010-01-01T01:45:36Z</time>
      </trkpt>
      <trkpt lat="43.31388" lon="1.95893">
        <ele>177</ele>
        <time>2010-01-01T01:45:40Z</time>
      </trkpt>
      <trkpt lat="43.31389" lon="1.95909">
        <ele>177</ele>
        <time>2010-01-01T01:45:44Z</time>
      </trkpt>
      <trkpt lat="43.31389" lon="1.95921">
        <ele>177</ele>
        <time>2010-01-01T01:45:48Z</time>
      </trkpt>
      <trkpt lat="43.3139" lon="1.95932">
        <ele>176</ele>
        <time>2010-01-01T01:45:51Z</time>
      </trkpt>
      <trkpt lat="43.31394" lon="1.95944">
        <ele>176</ele>
        <time>2010-01-01T01:45:55Z</time>
      </trkpt>
      <trkpt lat="43.31396" lon="1.95948">
        <ele>176</ele>
        <time>2010-01-01T01:45:56Z</time>
      </trkpt>
      <trkpt lat="43.314" lon="1.95954">
        <ele>176</ele>
        <time>2010-01-01T01:45:59Z</time>
      </trkpt>
      <trkpt lat="43.31465" lon="1.95995">
        <ele>176</ele>
        <time>2010-01-01T01:46:27Z</time>
      </trkpt>
      <trkpt lat="43.31526" lon="1.96064">
        <ele>171</ele>
        <time>2010-01-01T01:46:59Z</time>
      </trkpt>
      <trkpt lat="43.31528" lon="1.96067">
        <ele>171</ele>
        <time>2010-01-01T01:47:00Z</time>
      </trkpt>
      <trkpt lat="43.31536" lon="1.96079">
        <ele>171</ele>
        <time>2010-01-01T01:47:05Z</time>
      </trkpt>
      <trkpt lat="43.3154" lon="1.96088">
        <ele>170</ele>
        <time>2010-01-01T01:47:08Z</time>
      </trkpt>
      <trkpt lat="43.31541" lon="1.96099">
        <ele>170</ele>
        <time>2010-01-01T01:47:11Z</time>
      </trkpt>
      <trkpt lat="43.31538" lon="1.96111">
        <ele>170</ele>
        <time>2010-01-01T01:47:15Z</time>
      </trkpt>
      <trkpt lat="43.31536" lon="1.96119">
        <ele>170</ele>
        <time>2010-01-01T01:47:17Z</time>
      </trkpt>
      <trkpt lat="43.3153" lon="1.96134">
        <ele>170</ele>
        <time>2010-01-01T01:47:22Z</time>
      </trkpt>
      <trkpt lat="43.31523" lon="1.96156">
        <ele>170</ele>
        <time>2010-01-01T01:47:29Z</time>
      </trkpt>
      <trkpt lat="43.31486" lon="1.96241">
        <ele>167</ele>
        <time>2010-01-01T01:47:58Z</time>
      </trkpt>
      <trkpt lat="43.3147" lon="1.96273">
        <ele>165</ele>
        <time>2010-01-01T01:48:09Z</time>
      </trkpt>
      <trkpt lat="43.31466" lon="1.96282">
        <ele>165</ele>
        <time>2010-01-01T01:48:12Z</time>
      </trkpt>
      <trkpt lat="43.31462" lon="1.96288">
        <ele>165</ele>
        <time>2010-01-01T01:48:15Z</time>
      </trkpt>
      <trkpt lat="43.31454" lon="1.96303">
        <ele>165</ele>
        <time>2010-01-01T01:48:20Z</time>
      </trkpt>
      <trkpt lat="43.31469" lon="1.96314">
        <ele>165</ele>
        <time>2010-01-01T01:48:27Z</time>
      </trkpt>
      <trkpt lat="43.31556" lon="1.96357">
        <ele>161</ele>
        <time>2010-01-01T01:49:04Z</time>
      </trkpt>
      <trkpt lat="43.3159" lon="1.96391">
        <ele>159</ele>
        <time>2010-01-01T01:49:21Z</time>
      </trkpt>
      <trkpt lat="43.31613" lon="1.96438">
        <ele>157</ele>
        <time>2010-01-01T01:49:37Z</time>
      </trkpt>
      <trkpt lat="43.31627" lon="1.96475">
        <ele>156</ele>
        <time>2010-01-01T01:49:50Z</time>
      </trkpt>
      <trkpt lat="43.31631" lon="1.96483">
        <ele>156</ele>
        <time>2010-01-01T01:49:52Z</time>
      </trkpt>
      <trkpt lat="43.31639" lon="1.96511">
        <ele>155</ele>
        <time>2010-01-01T01:50:01Z</time>
      </trkpt>
      <trkpt lat="43.31657" lon="1.96609">
        <ele>154</ele>
        <time>2010-01-01T01:50:31Z</time>
      </trkpt>
      <trkpt lat="43.31659" lon="1.96615">
        <ele>154</ele>
        <time>2010-01-01T01:50:32Z</time>
      </trkpt>
      <trkpt lat="43.31673" lon="1.96644">
        <ele>154</ele>
        <time>2010-01-01T01:50:43Z</time>
      </trkpt>
      <trkpt lat="43.31685" lon="1.96665">
        <ele>154</ele>
        <time>2010-01-01T01:50:50Z</time>
      </trkpt>
      <trkpt lat="43.31699" lon="1.96692">
        <ele>154</ele>
        <time>2010-01-01T01:51:00Z</time>
      </trkpt>
      <trkpt lat="43.31702" lon="1.96697">
        <ele>154</ele>
        <time>2010-01-01T01:51:02Z</time>
      </trkpt>
      <trkpt lat="43.31717" lon="1.96733">
        <ele>154</ele>
        <time>2010-01-01T01:51:14Z</time>
      </trkpt>
      <trkpt lat="43.31718" lon="1.96754">
        <ele>155</ele>
        <time>2010-01-01T01:51:20Z</time>
      </trkpt>
      <trkpt lat="43.31719" lon="1.96764">
        <ele>155</ele>
        <time>2010-01-01T01:51:23Z</time>
      </trkpt>
      <trkpt lat="43.31713" lon="1.96783">
        <ele>155</ele>
        <time>2010-01-01T01:51:29Z</time>
      </trkpt>
      <trkpt lat="43.31713" lon="1.96798">
        <ele>155</ele>
        <time>2010-01-01T01:51:33Z</time>
      </trkpt>
      <trkpt lat="43.31716" lon="1.96811">
        <ele>155</ele>
        <time>2010-01-01T01:51:37Z</time>
      </trkpt>
      <trkpt lat="43.31721" lon="1.9682">
        <ele>156</ele>
        <time>2010-01-01T01:51:41Z</time>
      </trkpt>
      <trkpt lat="43.31728" lon="1.96828">
        <ele>156</ele>
        <time>2010-01-01T01:51:44Z</time>
      </trkpt>
      <trkpt lat="43.31737" lon="1.96832">
        <ele>156</ele>
        <time>2010-01-01T01:51:48Z</time>
      </trkpt>
      <trkpt lat="43.31745" lon="1.96833">
        <ele>156</ele>
        <time>2010-01-01T01:51:51Z</time>
      </trkpt>
      <trkpt lat="43.31753" lon="1.96831">
        <ele>156</ele>
        <time>2010-01-01T01:51:55Z</time>
      </trkpt>
      <trkpt lat="43.31757" lon="1.9684">
        <ele>156</ele>
        <time>2010-01-01T01:51:58Z</time>
      </trkpt>
      <trkpt lat="43.31779" lon="1.96898">
        <ele>157</ele>
        <time>2010-01-01T01:52:17Z</time>
      </trkpt>
      <trkpt lat="43.31783" lon="1.96906">
        <ele>157</ele>
        <time>2010-01-01T01:52:20Z</time>
      </trkpt>
      <trkpt lat="43.31843" lon="1.97097">
        <ele>157</ele>
        <time>2010-01-01T01:53:20Z</time>
      </trkpt>
      <trkpt lat="43.31897" lon="1.97219">
        <ele>157</ele>
        <time>2010-01-01T01:54:02Z</time>
      </trkpt>
      <trkpt lat="43.31954" lon="1.97399">
        <ele>155</ele>
        <time>2010-01-01T01:54:59Z</time>
      </trkpt>
      <trkpt lat="43.32022" lon="1.97521">
        <ele>159</ele>
        <time>2010-01-01T01:55:44Z</time>
      </trkpt>
      <trkpt lat="43.32023" lon="1.97529">
        <ele>159</ele>
        <time>2010-01-01T01:55:46Z</time>
      </trkpt>
      <trkpt lat="43.3202" lon="1.97546">
        <ele>159</ele>
        <time>2010-01-01T01:55:51Z</time>
      </trkpt>
      <trkpt lat="43.31997" lon="1.97574">
        <ele>158</ele>
        <time>2010-01-01T01:56:03Z</time>
      </trkpt>
      <trkpt lat="43.3193" lon="1.97587">
        <ele>157</ele>
        <time>2010-01-01T01:56:31Z</time>
      </trkpt>
      <trkpt lat="43.31916" lon="1.97601">
        <ele>157</ele>
        <time>2010-01-01T01:56:37Z</time>
      </trkpt>
      <trkpt lat="43.31859" lon="1.97758">
        <ele>157</ele>
        <time>2010-01-01T01:57:29Z</time>
      </trkpt>
      <trkpt lat="43.31805" lon="1.97838">
        <ele>158</ele>
        <time>2010-01-01T01:58:00Z</time>
      </trkpt>
      <trkpt lat="43.31773" lon="1.97874">
        <ele>158</ele>
        <time>2010-01-01T01:58:17Z</time>
      </trkpt>
      <trkpt lat="43.3175" lon="1.97903">
        <ele>159</ele>
        <time>2010-01-01T01:58:29Z</time>
      </trkpt>
      <trkpt lat="43.31713" lon="1.97969">
        <ele>157</ele>
        <time>2010-01-01T01:58:54Z</time>
      </trkpt>
      <trkpt lat="43.31693" lon="1.98028">
        <ele>154</ele>
        <time>2010-01-01T01:59:13Z</time>
      </trkpt>
      <trkpt lat="43.316" lon="1.98297">
        <ele>151</ele>
        <time>2010-01-01T02:00:39Z</time>
      </trkpt>
      <trkpt lat="43.31554" lon="1.98444">
        <ele>153</ele>
        <time>2010-01-01T02:01:26Z</time>
      </trkpt>
      <trkpt lat="43.31546" lon="1.98471">
        <ele>153</ele>
        <time>2010-01-01T02:01:34Z</time>
      </trkpt>
      <trkpt lat="43.31531" lon="1.98523">
        <ele>153</ele>
        <time>2010-01-01T02:01:51Z</time>
      </trkpt>
      <trkpt lat="43.31529" lon="1.98533">
        <ele>153</ele>
        <time>2010-01-01T02:01:54Z</time>
      </trkpt>
      <trkpt lat="43.31504" lon="1.98641">
        <ele>153</ele>
        <time>2010-01-01T02:02:27Z</time>
      </trkpt>
      <trkpt lat="43.31478" lon="1.98752">
        <ele>156</ele>
        <time>2010-01-01T02:03:01Z</time>
      </trkpt>
      <trkpt lat="43.31467" lon="1.98824">
        <ele>157</ele>
        <time>2010-01-01T02:03:22Z</time>
      </trkpt>
      <trkpt lat="43.31472" lon="1.98936">
        <ele>159</ele>
        <time>2010-01-01T02:03:55Z</time>
      </trkpt>
      <trkpt lat="43.31472" lon="1.9896">
        <ele>159</ele>
        <time>2010-01-01T02:04:02Z</time>
      </trkpt>
      <trkpt lat="43.3147" lon="1.98986">
        <ele>159</ele>
        <time>2010-01-01T02:04:09Z</time>
      </trkpt>
      <trkpt lat="43.31438" lon="1.99153">
        <ele>159</ele>
        <time>2010-01-01T02:05:00Z</time>
      </trkpt>
      <trkpt lat="43.31443" lon="1.99227">
        <ele>158</ele>
        <time>2010-01-01T02:05:21Z</time>
      </trkpt>
      <trkpt lat="43.31448" lon="1.99271">
        <ele>158</ele>
        <time>2010-01-01T02:05:34Z</time>
      </trkpt>
      <trkpt lat="43.31454" lon="1.99463">
        <ele>157</ele>
        <time>2010-01-01T02:06:30Z</time>
      </trkpt>
      <trkpt lat="43.31469" lon="1.99559">
        <ele>155</ele>
        <time>2010-01-01T02:06:59Z</time>
      </trkpt>
      <trkpt lat="43.31471" lon="1.99667">
        <ele>153</ele>
        <time>2010-01-01T02:07:30Z</time>
      </trkpt>
      <trkpt lat="43.31482" lon="1.99802">
        <ele>152</ele>
        <time>2010-01-01T02:08:10Z</time>
      </trkpt>
      <trkpt lat="43.31507" lon="1.99962">
        <ele>150</ele>
        <time>2010-01-01T02:08:58Z</time>
      </trkpt>
      <trkpt lat="43.31518" lon="2.00037">
        <ele>149</ele>
        <time>2010-01-01T02:09:20Z</time>
      </trkpt>
      <trkpt lat="43.31526" lon="2.00094">
        <ele>149</ele>
        <time>2010-01-01T02:09:37Z</time>
      </trkpt>
      <trkpt lat="43.3153" lon="2.00141">
        <ele>149</ele>
        <time>2010-01-01T02:09:51Z</time>
      </trkpt>
      <trkpt lat="43.31531" lon="2.00146">
        <ele>149</ele>
        <time>2010-01-01T02:09:52Z</time>
      </trkpt>
      <trkpt lat="43.31535" lon="2.00243">
        <ele>149</ele>
        <time>2010-01-01T02:10:20Z</time>
      </trkpt>
      <trkpt lat="43.31537" lon="2.00285">
        <ele>148</ele>
        <time>2010-01-01T02:10:33Z</time>
      </trkpt>
      <trkpt lat="43.31538" lon="2.0031">
        <ele>148</ele>
        <time>2010-01-01T02:10:40Z</time>
      </trkpt>
      <trkpt lat="43.31542" lon="2.00342">
        <ele>148</ele>
        <time>2010-01-01T02:10:49Z</time>
      </trkpt>
      <trkpt lat="43.31554" lon="2.00397">
        <ele>148</ele>
        <time>2010-01-01T02:11:06Z</time>
      </trkpt>
      <trkpt lat="43.31581" lon="2.00446">
        <ele>147</ele>
        <time>2010-01-01T02:11:24Z</time>
      </trkpt>
      <trkpt lat="43.31664" lon="2.0064">
        <ele>148</ele>
        <time>2010-01-01T02:12:30Z</time>
      </trkpt>
      <trkpt lat="43.31615" lon="2.00667">
        <ele>149</ele>
        <time>2010-01-01T02:12:51Z</time>
      </trkpt>
      <trkpt lat="43.31401" lon="2.00777">
        <ele>146</ele>
        <time>2010-01-01T02:14:22Z</time>
      </trkpt>
      <trkpt lat="43.31236" lon="2.0104">
        <ele>146</ele>
        <time>2010-01-01T02:16:03Z</time>
      </trkpt>
      <trkpt lat="43.3122" lon="2.01083">
        <ele>146</ele>
        <time>2010-01-01T02:16:17Z</time>
      </trkpt>
      <trkpt lat="43.31167" lon="2.01143">
        <ele>147</ele>
        <time>2010-01-01T02:16:45Z</time>
      </trkpt>
      <trkpt lat="43.31142" lon="2.01198">
        <ele>146</ele>
        <time>2010-01-01T02:17:04Z</time>
      </trkpt>
      <trkpt lat="43.31122" lon="2.01269">
        <ele>146</ele>
        <time>2010-01-01T02:17:26Z</time>
      </trkpt>
      <trkpt lat="43.31111" lon="2.01291">
        <ele>146</ele>
        <time>2010-01-01T02:17:34Z</time>
      </trkpt>
      <trkpt lat="43.31098" lon="2.01306">
        <ele>146</ele>
        <time>2010-01-01T02:17:41Z</time>
      </trkpt>
      <trkpt lat="43.30933" lon="2.01451">
        <ele>145</ele>
        <time>2010-01-01T02:18:59Z</time>
      </trkpt>
      <trkpt lat="43.30743" lon="2.01679">
        <ele>145</ele>
        <time>2010-01-01T02:20:40Z</time>
      </trkpt>
      <trkpt lat="43.3069" lon="2.01769">
        <ele>145</ele>
        <time>2010-01-01T02:21:14Z</time>
      </trkpt>
      <trkpt lat="43.30678" lon="2.01825">
        <ele>145</ele>
        <time>2010-01-01T02:21:31Z</time>
      </trkpt>
      <trkpt lat="43.3061" lon="2.02042">
        <ele>144</ele>
        <time>2010-01-01T02:22:39Z</time>
      </trkpt>
      <trkpt lat="43.30546" lon="2.02164">
        <ele>143</ele>
        <time>2010-01-01T02:23:23Z</time>
      </trkpt>
      <trkpt lat="43.3049" lon="2.02271">
        <ele>143</ele>
        <time>2010-01-01T02:24:02Z</time>
      </trkpt>
      <trkpt lat="43.30443" lon="2.02387">
        <ele>143</ele>
        <time>2010-01-01T02:24:40Z</time>
      </trkpt>
      <trkpt lat="43.30409" lon="2.025">
        <ele>142</ele>
        <time>2010-01-01T02:25:16Z</time>
      </trkpt>
      <trkpt lat="43.30376" lon="2.02564">
        <ele>143</ele>
        <time>2010-01-01T02:25:39Z</time>
      </trkpt>
      <trkpt lat="43.30372" lon="2.02573">
        <ele>143</ele>
        <time>2010-01-01T02:25:42Z</time>
      </trkpt>
      <trkpt lat="43.3034" lon="2.02643">
        <ele>143</ele>
        <time>2010-01-01T02:26:06Z</time>
      </trkpt>
      <trkpt lat="43.30325" lon="2.027">
        <ele>142</ele>
        <time>2010-01-01T02:26:24Z</time>
      </trkpt>
      <trkpt lat="43.30278" lon="2.0295">
        <ele>144</ele>
        <time>2010-01-01T02:27:39Z</time>
      </trkpt>
      <trkpt lat="43.30245" lon="2.03054">
        <ele>143</ele>
        <time>2010-01-01T02:28:12Z</time>
      </trkpt>
      <trkpt lat="43.30223" lon="2.03083">
        <ele>143</ele>
        <time>2010-01-01T02:28:24Z</time>
      </trkpt>
      <trkpt lat="43.30201" lon="2.0317">
        <ele>142</ele>
        <time>2010-01-01T02:28:51Z</time>
      </trkpt>
      <trkpt lat="43.30201" lon="2.0334">
        <ele>142</ele>
        <time>2010-01-01T02:29:40Z</time>
      </trkpt>
      <trkpt lat="43.30201" lon="2.03346">
        <ele>142</ele>
        <time>2010-01-01T02:29:42Z</time>
      </trkpt>
      <trkpt lat="43.30227" lon="2.03734">
        <ele>140</ele>
        <time>2010-01-01T02:31:36Z</time>
      </trkpt>
      <trkpt lat="43.30228" lon="2.03971">
        <ele>139</ele>
        <time>2010-01-01T02:32:45Z</time>
      </trkpt>
      <trkpt lat="43.30201" lon="2.04155">
        <ele>139</ele>
        <time>2010-01-01T02:33:39Z</time>
      </trkpt>
      <trkpt lat="43.3019" lon="2.04196">
        <ele>139</ele>
        <time>2010-01-01T02:33:52Z</time>
      </trkpt>
      <trkpt lat="43.30158" lon="2.04345">
        <ele>139</ele>
        <time>2010-01-01T02:34:37Z</time>
      </trkpt>
      <trkpt lat="43.30114" lon="2.04449">
        <ele>138</ele>
        <time>2010-01-01T02:35:12Z</time>
      </trkpt>
      <trkpt lat="43.30008" lon="2.04603">
        <ele>138</ele>
        <time>2010-01-01T02:36:14Z</time>
      </trkpt>
      <trkpt lat="43.29951" lon="2.04708">
        <ele>139</ele>
        <time>2010-01-01T02:36:52Z</time>
      </trkpt>
      <trkpt lat="43.29892" lon="2.04841">
        <ele>139</ele>
        <time>2010-01-01T02:37:38Z</time>
      </trkpt>
      <trkpt lat="43.29906" lon="2.04849">
        <ele>139</ele>
        <time>2010-01-01T02:37:44Z</time>
      </trkpt>
      <trkpt lat="43.2996" lon="2.04861">
        <ele>139</ele>
        <time>2010-01-01T02:38:06Z</time>
      </trkpt>
      <trkpt lat="43.29961" lon="2.04885">
        <ele>138</ele>
        <time>2010-01-01T02:38:13Z</time>
      </trkpt>
      <trkpt lat="43.29921" lon="2.05102">
        <ele>139</ele>
        <time>2010-01-01T02:39:18Z</time>
      </trkpt>
      <trkpt lat="43.29869" lon="2.05306">
        <ele>138</ele>
        <time>2010-01-01T02:40:21Z</time>
      </trkpt>
      <trkpt lat="43.29853" lon="2.05433">
        <ele>138</ele>
        <time>2010-01-01T02:40:58Z</time>
      </trkpt>
      <trkpt lat="43.2985" lon="2.05477">
        <ele>138</ele>
        <time>2010-01-01T02:41:11Z</time>
      </trkpt>
      <trkpt lat="43.29837" lon="2.05542">
        <ele>138</ele>
        <time>2010-01-01T02:41:31Z</time>
      </trkpt>
      <trkpt lat="43.29777" lon="2.05717">
        <ele>137</ele>
        <time>2010-01-01T02:42:27Z</time>
      </trkpt>
      <trkpt lat="43.29763" lon="2.05822">
        <ele>137</ele>
        <time>2010-01-01T02:42:58Z</time>
      </trkpt>
      <trkpt lat="43.2976" lon="2.05962">
        <ele>138</ele>
        <time>2010-01-01T02:43:39Z</time>
      </trkpt>
      <trkpt lat="43.29757" lon="2.05989">
        <ele>138</ele>
        <time>2010-01-01T02:43:47Z</time>
      </trkpt>
      <trkpt lat="43.29749" lon="2.06011">
        <ele>138</ele>
        <time>2010-01-01T02:43:54Z</time>
      </trkpt>
      <trkpt lat="43.29638" lon="2.06265">
        <ele>137</ele>
        <time>2010-01-01T02:45:21Z</time>
      </trkpt>
      <trkpt lat="43.2963" lon="2.06282">
        <ele>137</ele>
        <time>2010-01-01T02:45:27Z</time>
      </trkpt>
      <trkpt lat="43.29554" lon="2.06486">
        <ele>136</ele>
        <time>2010-01-01T02:46:33Z</time>
      </trkpt>
      <trkpt lat="43.29455" lon="2.06646">
        <ele>137</ele>
        <time>2010-01-01T02:47:35Z</time>
      </trkpt>
      <trkpt lat="43.29397" lon="2.06714">
        <ele>137</ele>
        <time>2010-01-01T02:48:05Z</time>
      </trkpt>
      <trkpt lat="43.29364" lon="2.06754">
        <ele>138</ele>
        <time>2010-01-01T02:48:23Z</time>
      </trkpt>
      <trkpt lat="43.29111" lon="2.07217">
        <ele>137</ele>
        <time>2010-01-01T02:51:11Z</time>
      </trkpt>
      <trkpt lat="43.29009" lon="2.07399">
        <ele>137</ele>
        <time>2010-01-01T02:52:18Z</time>
      </trkpt>
      <trkpt lat="43.28768" lon="2.07793">
        <ele>138</ele>
        <time>2010-01-01T02:54:48Z</time>
      </trkpt>
      <trkpt lat="43.28695" lon="2.07901">
        <ele>139</ele>
        <time>2010-01-01T02:55:31Z</time>
      </trkpt>
      <trkpt lat="43.28673" lon="2.07924">
        <ele>140</ele>
        <time>2010-01-01T02:55:42Z</time>
      </trkpt>
      <trkpt lat="43.28667" lon="2.07941">
        <ele>143</ele>
        <time>2010-01-01T02:55:48Z</time>
      </trkpt>
      <trkpt lat="43.28575" lon="2.08087">
        <ele>149</ele>
        <time>2010-01-01T02:56:44Z</time>
      </trkpt>
      <trkpt lat="43.28532" lon="2.0819">
        <ele>153</ele>
        <time>2010-01-01T02:57:19Z</time>
      </trkpt>
      <trkpt lat="43.28527" lon="2.08205">
        <ele>153</ele>
        <time>2010-01-01T02:57:23Z</time>
      </trkpt>
      <trkpt lat="43.28519" lon="2.08233">
        <ele>153</ele>
        <time>2010-01-01T02:57:32Z</time>
      </trkpt>
      <trkpt lat="43.28481" lon="2.08345">
        <ele>153</ele>
        <time>2010-01-01T02:58:08Z</time>
      </trkpt>
      <trkpt lat="43.28466" lon="2.08373">
        <ele>153</ele>
        <time>2010-01-01T02:58:18Z</time>
      </trkpt>
      <trkpt lat="43.28461" lon="2.08381">
        <ele>153</ele>
        <time>2010-01-01T02:58:21Z</time>
      </trkpt>
      <trkpt lat="43.28448" lon="2.08402">
        <ele>152</ele>
        <time>2010-01-01T02:58:29Z</time>
      </trkpt>
      <trkpt lat="43.28434" lon="2.08426">
        <ele>153</ele>
        <time>2010-01-01T02:58:38Z</time>
      </trkpt>
      <trkpt lat="43.28398" lon="2.08526">
        <ele>150</ele>
        <time>2010-01-01T02:59:11Z</time>
      </trkpt>
      <trkpt lat="43.28385" lon="2.08572">
        <ele>150</ele>
        <time>2010-01-01T02:59:25Z</time>
      </trkpt>
      <trkpt lat="43.28372" lon="2.08625">
        <ele>148</ele>
        <time>2010-01-01T02:59:42Z</time>
      </trkpt>
      <trkpt lat="43.28361" lon="2.08666">
        <ele>148</ele>
        <time>2010-01-01T02:59:54Z</time>
      </trkpt>
      <trkpt lat="43.28361" lon="2.0867">
        <ele>148</ele>
        <time>2010-01-01T02:59:56Z</time>
      </trkpt>
      <trkpt lat="43.28375" lon="2.08672">
        <ele>148</ele>
        <time>2010-01-01T03:00:01Z</time>
      </trkpt>
      <trkpt lat="43.28363" lon="2.08736">
        <ele>148</ele>
        <time>2010-01-01T03:00:20Z</time>
      </trkpt>
      <trkpt lat="43.28362" lon="2.08738">
        <ele>148</ele>
        <time>2010-01-01T03:00:21Z</time>
      </trkpt>
      <trkpt lat="43.28357" lon="2.08765">
        <ele>149</ele>
        <time>2010-01-01T03:00:29Z</time>
      </trkpt>
      <trkpt lat="43.28316" lon="2.08883">
        <ele>144</ele>
        <time>2010-01-01T03:01:07Z</time>
      </trkpt>
      <trkpt lat="43.28304" lon="2.08914">
        <ele>144</ele>
        <time>2010-01-01T03:01:18Z</time>
      </trkpt>
      <trkpt lat="43.28296" lon="2.08939">
        <ele>143</ele>
        <time>2010-01-01T03:01:26Z</time>
      </trkpt>
      <trkpt lat="43.2829" lon="2.08972">
        <ele>143</ele>
        <time>2010-01-01T03:01:35Z</time>
      </trkpt>
      <trkpt lat="43.28286" lon="2.08993">
        <ele>142</ele>
        <time>2010-01-01T03:01:42Z</time>
      </trkpt>
      <trkpt lat="43.28269" lon="2.08993">
        <ele>142</ele>
        <time>2010-01-01T03:01:49Z</time>
      </trkpt>
      <trkpt lat="43.28226" lon="2.08983">
        <ele>140</ele>
        <time>2010-01-01T03:02:06Z</time>
      </trkpt>
      <trkpt lat="43.2822" lon="2.08977">
        <ele>140</ele>
        <time>2010-01-01T03:02:09Z</time>
      </trkpt>
      <trkpt lat="43.28219" lon="2.09003">
        <ele>140</ele>
        <time>2010-01-01T03:02:17Z</time>
      </trkpt>
      <trkpt lat="43.2819" lon="2.09088">
        <ele>140</ele>
        <time>2010-01-01T03:02:44Z</time>
      </trkpt>
      <trkpt lat="43.28107" lon="2.09208">
        <ele>139</ele>
        <time>2010-01-01T03:03:32Z</time>
      </trkpt>
      <trkpt lat="43.28099" lon="2.09234">
        <ele>140</ele>
        <time>2010-01-01T03:03:40Z</time>
      </trkpt>
      <trkpt lat="43.28086" lon="2.09277">
        <ele>142</ele>
        <time>2010-01-01T03:03:54Z</time>
      </trkpt>
      <trkpt lat="43.28074" lon="2.09323">
        <ele>140</ele>
        <time>2010-01-01T03:04:08Z</time>
      </trkpt>
      <trkpt lat="43.28072" lon="2.09336">
        <ele>141</ele>
        <time>2010-01-01T03:04:12Z</time>
      </trkpt>
      <trkpt lat="43.28067" lon="2.09365">
        <ele>141</ele>
        <time>2010-01-01T03:04:21Z</time>
      </trkpt>
      <trkpt lat="43.2806" lon="2.09423">
        <ele>145</ele>
        <time>2010-01-01T03:04:38Z</time>
      </trkpt>
      <trkpt lat="43.2806" lon="2.09427">
        <ele>145</ele>
        <time>2010-01-01T03:04:39Z</time>
      </trkpt>
      <trkpt lat="43.28054" lon="2.09449">
        <ele>145</ele>
        <time>2010-01-01T03:04:46Z</time>
      </trkpt>
      <trkpt lat="43.28051" lon="2.09453">
        <ele>145</ele>
        <time>2010-01-01T03:04:48Z</time>
      </trkpt>
      <trkpt lat="43.28039" lon="2.09478">
        <ele>145</ele>
        <time>2010-01-01T03:04:56Z</time>
      </trkpt>
      <trkpt lat="43.28011" lon="2.09558">
        <ele>148</ele>
        <time>2010-01-01T03:05:22Z</time>
      </trkpt>
      <trkpt lat="43.28009" lon="2.09578">
        <ele>148</ele>
        <time>2010-01-01T03:05:28Z</time>
      </trkpt>
      <trkpt lat="43.28016" lon="2.09612">
        <ele>152</ele>
        <time>2010-01-01T03:05:38Z</time>
      </trkpt>
      <trkpt lat="43.28056" lon="2.09734">
        <ele>159</ele>
        <time>2010-01-01T03:06:17Z</time>
      </trkpt>
      <trkpt lat="43.28064" lon="2.09784">
        <ele>160</ele>
        <time>2010-01-01T03:06:32Z</time>
      </trkpt>
      <trkpt lat="43.28083" lon="2.09863">
        <ele>163</ele>
        <time>2010-01-01T03:06:57Z</time>
      </trkpt>
      <trkpt lat="43.28083" lon="2.09876">
        <ele>163</ele>
        <time>2010-01-01T03:07:00Z</time>
      </trkpt>
      <trkpt lat="43.28078" lon="2.09899">
        <ele>165</ele>
        <time>2010-01-01T03:07:07Z</time>
      </trkpt>
      <trkpt lat="43.28043" lon="2.0999">
        <ele>166</ele>
        <time>2010-01-01T03:07:37Z</time>
      </trkpt>
      <trkpt lat="43.27961" lon="2.10148">
        <ele>167</ele>
        <time>2010-01-01T03:08:34Z</time>
      </trkpt>
      <trkpt lat="43.27914" lon="2.10213">
        <ele>163</ele>
        <time>2010-01-01T03:09:01Z</time>
      </trkpt>
      <trkpt lat="43.278" lon="2.10298">
        <ele>157</ele>
        <time>2010-01-01T03:09:52Z</time>
      </trkpt>
      <trkpt lat="43.27722" lon="2.10428">
        <ele>147</ele>
        <time>2010-01-01T03:10:42Z</time>
      </trkpt>
      <trkpt lat="43.27591" lon="2.10691">
        <ele>134</ele>
        <time>2010-01-01T03:12:14Z</time>
      </trkpt>
      <trkpt lat="43.2758" lon="2.10737">
        <ele>134</ele>
        <time>2010-01-01T03:12:29Z</time>
      </trkpt>
      <trkpt lat="43.27583" lon="2.10752">
        <ele>134</ele>
        <time>2010-01-01T03:12:33Z</time>
      </trkpt>
      <trkpt lat="43.27588" lon="2.10773">
        <ele>134</ele>
        <time>2010-01-01T03:12:40Z</time>
      </trkpt>
      <trkpt lat="43.27597" lon="2.10864">
        <ele>135</ele>
        <time>2010-01-01T03:13:06Z</time>
      </trkpt>
      <trkpt lat="43.27569" lon="2.11106">
        <ele>136</ele>
        <time>2010-01-01T03:14:18Z</time>
      </trkpt>
      <trkpt lat="43.27513" lon="2.11275">
        <ele>139</ele>
        <time>2010-01-01T03:15:12Z</time>
      </trkpt>
      <trkpt lat="43.27479" lon="2.11434">
        <ele>143</ele>
        <time>2010-01-01T03:16:00Z</time>
      </trkpt>
      <trkpt lat="43.27414" lon="2.11607">
        <ele>145</ele>
        <time>2010-01-01T03:16:57Z</time>
      </trkpt>
      <trkpt lat="43.27489" lon="2.11823">
        <ele>149</ele>
        <time>2010-01-01T03:18:07Z</time>
      </trkpt>
      <trkpt lat="43.2758" lon="2.11871">
        <ele>155</ele>
        <time>2010-01-01T03:18:46Z</time>
      </trkpt>
      <trkpt lat="43.27538" lon="2.12024">
        <ele>160</ele>
        <time>2010-01-01T03:19:33Z</time>
      </trkpt>
      <trkpt lat="43.27533" lon="2.12045">
        <ele>159</ele>
        <time>2010-01-01T03:19:40Z</time>
      </trkpt>
      <trkpt lat="43.27616" lon="2.12065">
        <ele>165</ele>
        <time>2010-01-01T03:20:13Z</time>
      </trkpt>
      <trkpt lat="43.27635" lon="2.12082">
        <ele>166</ele>
        <time>2010-01-01T03:20:23Z</time>
      </trkpt>
      <trkpt lat="43.27645" lon="2.12099">
        <ele>167</ele>
        <time>2010-01-01T03:20:29Z</time>
      </trkpt>
      <trkpt lat="43.27633" lon="2.1211">
        <ele>167</ele>
        <time>2010-01-01T03:20:35Z</time>
      </trkpt>
      <trkpt lat="43.27613" lon="2.12145">
        <ele>166</ele>
        <time>2010-01-01T03:20:48Z</time>
      </trkpt>
      <trkpt lat="43.27514" lon="2.12596">
        <ele>162</ele>
        <time>2010-01-01T03:23:05Z</time>
      </trkpt>
      <trkpt lat="43.275" lon="2.12628">
        <ele>161</ele>
        <time>2010-01-01T03:23:16Z</time>
      </trkpt>
      <trkpt lat="43.2748" lon="2.12656">
        <ele>161</ele>
        <time>2010-01-01T03:23:27Z</time>
      </trkpt>
      <trkpt lat="43.27411" lon="2.12673">
        <ele>161</ele>
        <time>2010-01-01T03:23:55Z</time>
      </trkpt>
      <trkpt lat="43.27199" lon="2.1276">
        <ele>153</ele>
        <time>2010-01-01T03:25:24Z</time>
      </trkpt>
      <trkpt lat="43.27144" lon="2.1281">
        <ele>152</ele>
        <time>2010-01-01T03:25:50Z</time>
      </trkpt>
      <trkpt lat="43.26877" lon="2.1324">
        <ele>152</ele>
        <time>2010-01-01T03:28:35Z</time>
      </trkpt>
      <trkpt lat="43.26874" lon="2.13252">
        <ele>153</ele>
        <time>2010-01-01T03:28:39Z</time>
      </trkpt>
      <trkpt lat="43.26896" lon="2.1327">
        <ele>152</ele>
        <time>2010-01-01T03:28:49Z</time>
      </trkpt>
      <trkpt lat="43.2711" lon="2.13439">
        <ele>144</ele>
        <time>2010-01-01T03:30:28Z</time>
      </trkpt>
      <trkpt lat="43.27133" lon="2.13457">
        <ele>145</ele>
        <time>2010-01-01T03:30:38Z</time>
      </trkpt>
      <trkpt lat="43.27171" lon="2.13527">
        <ele>150</ele>
        <time>2010-01-01T03:31:04Z</time>
      </trkpt>
      <trkpt lat="43.27208" lon="2.13973">
        <ele>153</ele>
        <time>2010-01-01T03:33:15Z</time>
      </trkpt>
      <trkpt lat="43.27215" lon="2.13997">
        <ele>154</ele>
        <time>2010-01-01T03:33:22Z</time>
      </trkpt>
      <trkpt lat="43.27229" lon="2.1402">
        <ele>156</ele>
        <time>2010-01-01T03:33:31Z</time>
      </trkpt>
      <trkpt lat="43.27255" lon="2.14052">
        <ele>158</ele>
        <time>2010-01-01T03:33:45Z</time>
      </trkpt>
      <trkpt lat="43.2729" lon="2.14072">
        <ele>157</ele>
        <time>2010-01-01T03:34:00Z</time>
      </trkpt>
      <trkpt lat="43.2732" lon="2.1409">
        <ele>156</ele>
        <time>2010-01-01T03:34:13Z</time>
      </trkpt>
      <trkpt lat="43.27805" lon="2.14368">
        <ele>138</ele>
        <time>2010-01-01T03:37:44Z</time>
      </trkpt>
      <trkpt lat="43.27768" lon="2.1448">
        <ele>141</ele>
        <time>2010-01-01T03:38:19Z</time>
      </trkpt>
      <trkpt lat="43.27701" lon="2.14628">
        <ele>149</ele>
        <time>2010-01-01T03:39:10Z</time>
      </trkpt>
      <trkpt lat="43.27697" lon="2.14665">
        <ele>150</ele>
        <time>2010-01-01T03:39:21Z</time>
      </trkpt>
      <trkpt lat="43.27683" lon="2.14786">
        <ele>158</ele>
        <time>2010-01-01T03:39:57Z</time>
      </trkpt>
      <trkpt lat="43.27656" lon="2.14877">
        <ele>167</ele>
        <time>2010-01-01T03:40:25Z</time>
      </trkpt>
      <trkpt lat="43.27661" lon="2.1489">
        <ele>167</ele>
        <time>2010-01-01T03:40:30Z</time>
      </trkpt>
      <trkpt lat="43.2767" lon="2.14894">
        <ele>165</ele>
        <time>2010-01-01T03:40:33Z</time>
      </trkpt>
      <trkpt lat="43.27724" lon="2.14909">
        <ele>162</ele>
        <time>2010-01-01T03:40:56Z</time>
      </trkpt>
      <trkpt lat="43.27741" lon="2.14935">
        <ele>163</ele>
        <time>2010-01-01T03:41:06Z</time>
      </trkpt>
      <trkpt lat="43.27765" lon="2.1504">
        <ele>156</ele>
        <time>2010-01-01T03:41:38Z</time>
      </trkpt>
      <trkpt lat="43.27765" lon="2.15127">
        <ele>156</ele>
        <time>2010-01-01T03:42:03Z</time>
      </trkpt>
      <trkpt lat="43.27739" lon="2.1522">
        <ele>163</ele>
        <time>2010-01-01T03:42:32Z</time>
      </trkpt>
      <trkpt lat="43.27725" lon="2.15267">
        <ele>158</ele>
        <time>2010-01-01T03:42:47Z</time>
      </trkpt>
      <trkpt lat="43.27668" lon="2.15349">
        <ele>159</ele>
        <time>2010-01-01T03:43:20Z</time>
      </trkpt>
      <trkpt lat="43.27653" lon="2.15387">
        <ele>166</ele>
        <time>2010-01-01T03:43:33Z</time>
      </trkpt>
      <trkpt lat="43.27633" lon="2.15452">
        <ele>160</ele>
        <time>2010-01-01T03:43:53Z</time>
      </trkpt>
      <trkpt lat="43.27628" lon="2.15503">
        <ele>154</ele>
        <time>2010-01-01T03:44:08Z</time>
      </trkpt>
      <trkpt lat="43.27633" lon="2.15643">
        <ele>149</ele>
        <time>2010-01-01T03:44:49Z</time>
      </trkpt>
      <trkpt lat="43.2757" lon="2.15752">
        <ele>147</ele>
        <time>2010-01-01T03:45:30Z</time>
      </trkpt>
      <trkpt lat="43.2757" lon="2.15766">
        <ele>146</ele>
        <time>2010-01-01T03:45:34Z</time>
      </trkpt>
      <trkpt lat="43.27572" lon="2.15784">
        <ele>146</ele>
        <time>2010-01-01T03:45:39Z</time>
      </trkpt>
      <trkpt lat="43.27592" lon="2.15836">
        <ele>136</ele>
        <time>2010-01-01T03:45:56Z</time>
      </trkpt>
      <trkpt lat="43.27627" lon="2.15951">
        <ele>131</ele>
        <time>2010-01-01T03:46:32Z</time>
      </trkpt>
      <trkpt lat="43.27661" lon="2.15968">
        <ele>131</ele>
        <time>2010-01-01T03:46:47Z</time>
      </trkpt>
      <trkpt lat="43.27728" lon="2.15986">
        <ele>136</ele>
        <time>2010-01-01T03:47:14Z</time>
      </trkpt>
      <trkpt lat="43.27735" lon="2.15981">
        <ele>136</ele>
        <time>2010-01-01T03:47:17Z</time>
      </trkpt>
      <trkpt lat="43.27739" lon="2.15978">
        <ele>136</ele>
        <time>2010-01-01T03:47:19Z</time>
      </trkpt>
      <trkpt lat="43.27744" lon="2.15972">
        <ele>136</ele>
        <time>2010-01-01T03:47:22Z</time>
      </trkpt>
      <trkpt lat="43.27754" lon="2.15983">
        <ele>142</ele>
        <time>2010-01-01T03:47:27Z</time>
      </trkpt>
      <trkpt lat="43.27756" lon="2.15988">
        <ele>142</ele>
        <time>2010-01-01T03:47:29Z</time>
      </trkpt>
      <trkpt lat="43.27756" lon="2.15991">
        <ele>142</ele>
        <time>2010-01-01T03:47:30Z</time>
      </trkpt>
      <trkpt lat="43.27745" lon="2.16052">
        <ele>140</ele>
        <time>2010-01-01T03:47:48Z</time>
      </trkpt>
      <trkpt lat="43.27742" lon="2.16067">
        <ele>141</ele>
        <time>2010-01-01T03:47:52Z</time>
      </trkpt>
      <trkpt lat="43.27736" lon="2.16099">
        <ele>142</ele>
        <time>2010-01-01T03:48:02Z</time>
      </trkpt>
      <trkpt lat="43.27724" lon="2.16124">
        <ele>140</ele>
        <time>2010-01-01T03:48:11Z</time>
      </trkpt>
      <trkpt lat="43.27722" lon="2.16135">
        <ele>140</ele>
        <time>2010-01-01T03:48:14Z</time>
      </trkpt>
      <trkpt lat="43.2772" lon="2.16145">
        <ele>140</ele>
        <time>2010-01-01T03:48:17Z</time>
      </trkpt>
      <trkpt lat="43.27711" lon="2.16148">
        <ele>139</ele>
        <time>2010-01-01T03:48:21Z</time>
      </trkpt>
      <trkpt lat="43.27679" lon="2.1617">
        <ele>135</ele>
        <time>2010-01-01T03:48:35Z</time>
      </trkpt>
      <trkpt lat="43.27642" lon="2.16188">
        <ele>132</ele>
        <time>2010-01-01T03:48:51Z</time>
      </trkpt>
      <trkpt lat="43.27634" lon="2.16192">
        <ele>132</ele>
        <time>2010-01-01T03:48:54Z</time>
      </trkpt>
      <trkpt lat="43.27617" lon="2.16206">
        <ele>131</ele>
        <time>2010-01-01T03:49:02Z</time>
      </trkpt>
      <trkpt lat="43.27612" lon="2.16217">
        <ele>131</ele>
        <time>2010-01-01T03:49:06Z</time>
      </trkpt>
      <trkpt lat="43.27591" lon="2.16277">
        <ele>133</ele>
        <time>2010-01-01T03:49:25Z</time>
      </trkpt>
      <trkpt lat="43.27503" lon="2.16392">
        <ele>129</ele>
        <time>2010-01-01T03:50:14Z</time>
      </trkpt>
      <trkpt lat="43.27496" lon="2.16402">
        <ele>127</ele>
        <time>2010-01-01T03:50:18Z</time>
      </trkpt>
      <trkpt lat="43.275" lon="2.16426">
        <ele>127</ele>
        <time>2010-01-01T03:50:25Z</time>
      </trkpt>
      <trkpt lat="43.27493" lon="2.16562">
        <ele>129</ele>
        <time>2010-01-01T03:51:05Z</time>
      </trkpt>
      <trkpt lat="43.27432" lon="2.16698">
        <ele>130</ele>
        <time>2010-01-01T03:51:52Z</time>
      </trkpt>
      <trkpt lat="43.27347" lon="2.16979">
        <ele>129</ele>
        <time>2010-01-01T03:53:20Z</time>
      </trkpt>
      <trkpt lat="43.27206" lon="2.17182">
        <ele>137</ele>
        <time>2010-01-01T03:54:42Z</time>
      </trkpt>
      <trkpt lat="43.27111" lon="2.17294">
        <ele>139</ele>
        <time>2010-01-01T03:55:32Z</time>
      </trkpt>
      <trkpt lat="43.27022" lon="2.1738">
        <ele>141</ele>
        <time>2010-01-01T03:56:16Z</time>
      </trkpt>
      <trkpt lat="43.26984" lon="2.17586">
        <ele>144</ele>
        <time>2010-01-01T03:57:18Z</time>
      </trkpt>
      <trkpt lat="43.26889" lon="2.17841">
        <ele>137</ele>
        <time>2010-01-01T03:58:41Z</time>
      </trkpt>
      <trkpt lat="43.26855" lon="2.17968">
        <ele>134</ele>
        <time>2010-01-01T03:59:21Z</time>
      </trkpt>
      <trkpt lat="43.2685" lon="2.17985">
        <ele>134</ele>
        <time>2010-01-01T03:59:26Z</time>
      </trkpt>
      <trkpt lat="43.2684" lon="2.18019">
        <ele>133</ele>
        <time>2010-01-01T03:59:37Z</time>
      </trkpt>
      <trkpt lat="43.26837" lon="2.18032">
        <ele>132</ele>
        <time>2010-01-01T03:59:41Z</time>
      </trkpt>
      <trkpt lat="43.26834" lon="2.18047">
        <ele>132</ele>
        <time>2010-01-01T03:59:45Z</time>
      </trkpt>
      <trkpt lat="43.2683" lon="2.18068">
        <ele>130</ele>
        <time>2010-01-01T03:59:51Z</time>
      </trkpt>
      <trkpt lat="43.26811" lon="2.18111">
        <ele>128</ele>
        <time>2010-01-01T04:00:06Z</time>
      </trkpt>
      <trkpt lat="43.26743" lon="2.18205">
        <ele>125</ele>
        <time>2010-01-01T04:00:45Z</time>
      </trkpt>
      <trkpt lat="43.26728" lon="2.1826">
        <ele>125</ele>
        <time>2010-01-01T04:01:02Z</time>
      </trkpt>
      <trkpt lat="43.26728" lon="2.18278">
        <ele>125</ele>
        <time>2010-01-01T04:01:07Z</time>
      </trkpt>
      <trkpt lat="43.26721" lon="2.18293">
        <ele>125</ele>
        <time>2010-01-01T04:01:12Z</time>
      </trkpt>
      <trkpt lat="43.26663" lon="2.18439">
        <ele>124</ele>
        <time>2010-01-01T04:02:01Z</time>
      </trkpt>
      <trkpt lat="43.26652" lon="2.18611">
        <ele>128</ele>
        <time>2010-01-01T04:02:51Z</time>
      </trkpt>
      <trkpt lat="43.2664" lon="2.18661">
        <ele>129</ele>
        <time>2010-01-01T04:03:06Z</time>
      </trkpt>
      <trkpt lat="43.26617" lon="2.187">
        <ele>131</ele>
        <time>2010-01-01T04:03:21Z</time>
      </trkpt>
      <trkpt lat="43.26543" lon="2.1874">
        <ele>132</ele>
        <time>2010-01-01T04:03:53Z</time>
      </trkpt>
      <trkpt lat="43.26494" lon="2.18858">
        <ele>135</ele>
        <time>2010-01-01T04:04:32Z</time>
      </trkpt>
      <trkpt lat="43.2644" lon="2.18994">
        <ele>137</ele>
        <time>2010-01-01T04:05:18Z</time>
      </trkpt>
      <trkpt lat="43.26448" lon="2.18995">
        <ele>137</ele>
        <time>2010-01-01T04:05:21Z</time>
      </trkpt>
      <trkpt lat="43.26615" lon="2.19">
        <ele>141</ele>
        <time>2010-01-01T04:06:28Z</time>
      </trkpt>
      <trkpt lat="43.26829" lon="2.19108">
        <ele>149</ele>
        <time>2010-01-01T04:07:59Z</time>
      </trkpt>
      <trkpt lat="43.26958" lon="2.19125">
        <ele>155</ele>
        <time>2010-01-01T04:08:51Z</time>
      </trkpt>
      <trkpt lat="43.27124" lon="2.19174">
        <ele>160</ele>
        <time>2010-01-01T04:09:59Z</time>
      </trkpt>
      <trkpt lat="43.2713" lon="2.19174">
        <ele>160</ele>
        <time>2010-01-01T04:10:01Z</time>
      </trkpt>
      <trkpt lat="43.27199" lon="2.19178">
        <ele>161</ele>
        <time>2010-01-01T04:10:29Z</time>
      </trkpt>
      <trkpt lat="43.27474" lon="2.19237">
        <ele>163</ele>
        <time>2010-01-01T04:12:20Z</time>
      </trkpt>
      <trkpt lat="43.27486" lon="2.1924">
        <ele>163</ele>
        <time>2010-01-01T04:12:25Z</time>
      </trkpt>
      <trkpt lat="43.27665" lon="2.19282">
        <ele>157</ele>
        <time>2010-01-01T04:13:38Z</time>
      </trkpt>
      <trkpt lat="43.27688" lon="2.19294">
        <ele>156</ele>
        <time>2010-01-01T04:13:48Z</time>
      </trkpt>
      <trkpt lat="43.2773" lon="2.1933">
        <ele>156</ele>
        <time>2010-01-01T04:14:07Z</time>
      </trkpt>
      <trkpt lat="43.27821" lon="2.19408">
        <ele>159</ele>
        <time>2010-01-01T04:14:50Z</time>
      </trkpt>
      <trkpt lat="43.27862" lon="2.19448">
        <ele>162</ele>
        <time>2010-01-01T04:15:11Z</time>
      </trkpt>
      <trkpt lat="43.28076" lon="2.19673">
        <ele>169</ele>
        <time>2010-01-01T04:16:58Z</time>
      </trkpt>
      <trkpt lat="43.28072" lon="2.19693">
        <ele>169</ele>
        <time>2010-01-01T04:17:04Z</time>
      </trkpt>
      <trkpt lat="43.27987" lon="2.20182">
        <ele>167</ele>
        <time>2010-01-01T04:19:31Z</time>
      </trkpt>
      <trkpt lat="43.27987" lon="2.20199">
        <ele>167</ele>
        <time>2010-01-01T04:19:36Z</time>
      </trkpt>
      <trkpt lat="43.27987" lon="2.20208">
        <ele>167</ele>
        <time>2010-01-01T04:19:39Z</time>
      </trkpt>
      <trkpt lat="43.27989" lon="2.20269">
        <ele>167</ele>
        <time>2010-01-01T04:19:56Z</time>
      </trkpt>
      <trkpt lat="43.27988" lon="2.20293">
        <ele>167</ele>
        <time>2010-01-01T04:20:03Z</time>
      </trkpt>
      <trkpt lat="43.27983" lon="2.20342">
        <ele>167</ele>
        <time>2010-01-01T04:20:18Z</time>
      </trkpt>
      <trkpt lat="43.27929" lon="2.20532">
        <ele>165</ele>
        <time>2010-01-01T04:21:17Z</time>
      </trkpt>
      <trkpt lat="43.27927" lon="2.2054">
        <ele>165</ele>
        <time>2010-01-01T04:21:20Z</time>
      </trkpt>
      <trkpt lat="43.27884" lon="2.20693">
        <ele>163</ele>
        <time>2010-01-01T04:22:07Z</time>
      </trkpt>
      <trkpt lat="43.27755" lon="2.2105">
        <ele>161</ele>
        <time>2010-01-01T04:24:04Z</time>
      </trkpt>
      <trkpt lat="43.27736" lon="2.21132">
        <ele>159</ele>
        <time>2010-01-01T04:24:29Z</time>
      </trkpt>
      <trkpt lat="43.27734" lon="2.21148">
        <ele>159</ele>
        <time>2010-01-01T04:24:33Z</time>
      </trkpt>
      <trkpt lat="43.27723" lon="2.21212">
        <ele>158</ele>
        <time>2010-01-01T04:24:53Z</time>
      </trkpt>
      <trkpt lat="43.2765" lon="2.21711">
        <ele>157</ele>
        <time>2010-01-01T04:27:21Z</time>
      </trkpt>
      <trkpt lat="43.27648" lon="2.21783">
        <ele>157</ele>
        <time>2010-01-01T04:27:42Z</time>
      </trkpt>
      <trkpt lat="43.27648" lon="2.21791">
        <ele>157</ele>
        <time>2010-01-01T04:27:44Z</time>
      </trkpt>
      <trkpt lat="43.27647" lon="2.21813">
        <ele>157</ele>
        <time>2010-01-01T04:27:51Z</time>
      </trkpt>
      <trkpt lat="43.27654" lon="2.21994">
        <ele>158</ele>
        <time>2010-01-01T04:28:44Z</time>
      </trkpt>
      <trkpt lat="43.27652" lon="2.22026">
        <ele>157</ele>
        <time>2010-01-01T04:28:53Z</time>
      </trkpt>
      <trkpt lat="43.27649" lon="2.22048">
        <ele>156</ele>
        <time>2010-01-01T04:28:59Z</time>
      </trkpt>
      <trkpt lat="43.27612" lon="2.2235">
        <ele>137</ele>
        <time>2010-01-01T04:30:29Z</time>
      </trkpt>
      <trkpt lat="43.27601" lon="2.22378">
        <ele>136</ele>
        <time>2010-01-01T04:30:38Z</time>
      </trkpt>
      <trkpt lat="43.27589" lon="2.22394">
        <ele>134</ele>
        <time>2010-01-01T04:30:45Z</time>
      </trkpt>
      <trkpt lat="43.27581" lon="2.22399">
        <ele>129</ele>
        <time>2010-01-01T04:30:48Z</time>
      </trkpt>
      <trkpt lat="43.27565" lon="2.22409">
        <ele>129</ele>
        <time>2010-01-01T04:30:55Z</time>
      </trkpt>
      <trkpt lat="43.2755" lon="2.22422">
        <ele>130</ele>
        <time>2010-01-01T04:31:02Z</time>
      </trkpt>
      <trkpt lat="43.27536" lon="2.2245">
        <ele>131</ele>
        <time>2010-01-01T04:31:12Z</time>
      </trkpt>
      <trkpt lat="43.27532" lon="2.2246">
        <ele>131</ele>
        <time>2010-01-01T04:31:16Z</time>
      </trkpt>
      <trkpt lat="43.27535" lon="2.2248">
        <ele>131</ele>
        <time>2010-01-01T04:31:21Z</time>
      </trkpt>
      <trkpt lat="43.27563" lon="2.22505">
        <ele>133</ele>
        <time>2010-01-01T04:31:35Z</time>
      </trkpt>
      <trkpt lat="43.27569" lon="2.22513">
        <ele>133</ele>
        <time>2010-01-01T04:31:38Z</time>
      </trkpt>
      <trkpt lat="43.2757" lon="2.22514">
        <ele>133</ele>
        <time>2010-01-01T04:31:39Z</time>
      </trkpt>
      <trkpt lat="43.27572" lon="2.22527">
        <ele>134</ele>
        <time>2010-01-01T04:31:43Z</time>
      </trkpt>
      <trkpt lat="43.27572" lon="2.22536">
        <ele>134</ele>
        <time>2010-01-01T04:31:45Z</time>
      </trkpt>
      <trkpt lat="43.27566" lon="2.2256">
        <ele>135</ele>
        <time>2010-01-01T04:31:53Z</time>
      </trkpt>
      <trkpt lat="43.27547" lon="2.22627">
        <ele>137</ele>
        <time>2010-01-01T04:32:14Z</time>
      </trkpt>
      <trkpt lat="43.2753" lon="2.22703">
        <ele>139</ele>
        <time>2010-01-01T04:32:37Z</time>
      </trkpt>
      <trkpt lat="43.27527" lon="2.2276">
        <ele>140</ele>
        <time>2010-01-01T04:32:53Z</time>
      </trkpt>
      <trkpt lat="43.2753" lon="2.22786">
        <ele>141</ele>
        <time>2010-01-01T04:33:01Z</time>
      </trkpt>
      <trkpt lat="43.27532" lon="2.22786">
        <ele>141</ele>
        <time>2010-01-01T04:33:02Z</time>
      </trkpt>
      <trkpt lat="43.27652" lon="2.22808">
        <ele>147</ele>
        <time>2010-01-01T04:33:50Z</time>
      </trkpt>
      <trkpt lat="43.27692" lon="2.22833">
        <ele>150</ele>
        <time>2010-01-01T04:34:08Z</time>
      </trkpt>
      <trkpt lat="43.27715" lon="2.22844">
        <ele>151</ele>
        <time>2010-01-01T04:34:18Z</time>
      </trkpt>
      <trkpt lat="43.27743" lon="2.22847">
        <ele>152</ele>
        <time>2010-01-01T04:34:29Z</time>
      </trkpt>
      <trkpt lat="43.2778" lon="2.22857">
        <ele>156</ele>
        <time>2010-01-01T04:34:44Z</time>
      </trkpt>
      <trkpt lat="43.27796" lon="2.22865">
        <ele>157</ele>
        <time>2010-01-01T04:34:51Z</time>
      </trkpt>
      <trkpt lat="43.27833" lon="2.22886">
        <ele>158</ele>
        <time>2010-01-01T04:35:07Z</time>
      </trkpt>
      <trkpt lat="43.27879" lon="2.22917">
        <ele>164</ele>
        <time>2010-01-01T04:35:27Z</time>
      </trkpt>
      <trkpt lat="43.27876" lon="2.2293">
        <ele>164</ele>
        <time>2010-01-01T04:35:31Z</time>
      </trkpt>
      <trkpt lat="43.27865" lon="2.22975">
        <ele>164</ele>
        <time>2010-01-01T04:35:45Z</time>
      </trkpt>
      <trkpt lat="43.27858" lon="2.23012">
        <ele>164</ele>
        <time>2010-01-01T04:35:56Z</time>
      </trkpt>
      <trkpt lat="43.27858" lon="2.23018">
        <ele>164</ele>
        <time>2010-01-01T04:35:58Z</time>
      </trkpt>
      <trkpt lat="43.2786" lon="2.23026">
        <ele>165</ele>
        <time>2010-01-01T04:36:00Z</time>
      </trkpt>
      <trkpt lat="43.27869" lon="2.23068">
        <ele>166</ele>
        <time>2010-01-01T04:36:13Z</time>
      </trkpt>
      <trkpt lat="43.27873" lon="2.23113">
        <ele>166</ele>
        <time>2010-01-01T04:36:26Z</time>
      </trkpt>
      <trkpt lat="43.27873" lon="2.23118">
        <ele>166</ele>
        <time>2010-01-01T04:36:28Z</time>
      </trkpt>
      <trkpt lat="43.27863" lon="2.23125">
        <ele>166</ele>
        <time>2010-01-01T04:36:32Z</time>
      </trkpt>
      <trkpt lat="43.27858" lon="2.2314">
        <ele>166</ele>
        <time>2010-01-01T04:36:37Z</time>
      </trkpt>
      <trkpt lat="43.27858" lon="2.23153">
        <ele>165</ele>
        <time>2010-01-01T04:36:41Z</time>
      </trkpt>
      <trkpt lat="43.27863" lon="2.23167">
        <ele>165</ele>
        <time>2010-01-01T04:36:46Z</time>
      </trkpt>
      <trkpt lat="43.27867" lon="2.23173">
        <ele>165</ele>
        <time>2010-01-01T04:36:48Z</time>
      </trkpt>
      <trkpt lat="43.27871" lon="2.23175">
        <ele>165</ele>
        <time>2010-01-01T04:36:50Z</time>
      </trkpt>
      <trkpt lat="43.27877" lon="2.23177">
        <ele>166</ele>
        <time>2010-01-01T04:36:52Z</time>
      </trkpt>
      <trkpt lat="43.27882" lon="2.23176">
        <ele>166</ele>
        <time>2010-01-01T04:36:54Z</time>
      </trkpt>
      <trkpt lat="43.2789" lon="2.23172">
        <ele>166</ele>
        <time>2010-01-01T04:36:58Z</time>
      </trkpt>
      <trkpt lat="43.27897" lon="2.23174">
        <ele>167</ele>
        <time>2010-01-01T04:37:00Z</time>
      </trkpt>
      <trkpt lat="43.27909" lon="2.23178">
        <ele>167</ele>
        <time>2010-01-01T04:37:05Z</time>
      </trkpt>
      <trkpt lat="43.27928" lon="2.23194">
        <ele>171</ele>
        <time>2010-01-01T04:37:14Z</time>
      </trkpt>
      <trkpt lat="43.27934" lon="2.23205">
        <ele>171</ele>
        <time>2010-01-01T04:37:18Z</time>
      </trkpt>
      <trkpt lat="43.27939" lon="2.23217">
        <ele>171</ele>
        <time>2010-01-01T04:37:22Z</time>
      </trkpt>
      <trkpt lat="43.27955" lon="2.23251">
        <ele>172</ele>
        <time>2010-01-01T04:37:34Z</time>
      </trkpt>
      <trkpt lat="43.27977" lon="2.23317">
        <ele>174</ele>
        <time>2010-01-01T04:37:55Z</time>
      </trkpt>
      <trkpt lat="43.27977" lon="2.23336">
        <ele>175</ele>
        <time>2010-01-01T04:38:01Z</time>
      </trkpt>
      <trkpt lat="43.27956" lon="2.23446">
        <ele>176</ele>
        <time>2010-01-01T04:38:34Z</time>
      </trkpt>
      <trkpt lat="43.27956" lon="2.2345">
        <ele>176</ele>
        <time>2010-01-01T04:38:35Z</time>
      </trkpt>
      <trkpt lat="43.27947" lon="2.23532">
        <ele>176</ele>
        <time>2010-01-01T04:38:59Z</time>
      </trkpt>
      <trkpt lat="43.27953" lon="2.23604">
        <ele>176</ele>
        <time>2010-01-01T04:39:20Z</time>
      </trkpt>
      <trkpt lat="43.27954" lon="2.23607">
        <ele>176</ele>
        <time>2010-01-01T04:39:21Z</time>
      </trkpt>
      <trkpt lat="43.2796" lon="2.23637">
        <ele>176</ele>
        <time>2010-01-01T04:39:30Z</time>
      </trkpt>
      <trkpt lat="43.27981" lon="2.23893">
        <ele>178</ele>
        <time>2010-01-01T04:40:45Z</time>
      </trkpt>
      <trkpt lat="43.27979" lon="2.23903">
        <ele>178</ele>
        <time>2010-01-01T04:40:48Z</time>
      </trkpt>
      <trkpt lat="43.27961" lon="2.2401">
        <ele>175</ele>
        <time>2010-01-01T04:41:20Z</time>
      </trkpt>
      <trkpt lat="43.27987" lon="2.24253">
        <ele>170</ele>
        <time>2010-01-01T04:42:32Z</time>
      </trkpt>
      <trkpt lat="43.27955" lon="2.24519">
        <ele>164</ele>
        <time>2010-01-01T04:43:51Z</time>
      </trkpt>
      <trkpt lat="43.27944" lon="2.24579">
        <ele>162</ele>
        <time>2010-01-01T04:44:09Z</time>
      </trkpt>
      <trkpt lat="43.27915" lon="2.24666">
        <ele>158</ele>
        <time>2010-01-01T04:44:37Z</time>
      </trkpt>
      <trkpt lat="43.27918" lon="2.2471">
        <ele>160</ele>
        <time>2010-01-01T04:44:49Z</time>
      </trkpt>
      <trkpt lat="43.2792" lon="2.24733">
        <ele>160</ele>
        <time>2010-01-01T04:44:56Z</time>
      </trkpt>
      <trkpt lat="43.27919" lon="2.24753">
        <ele>159</ele>
        <time>2010-01-01T04:45:02Z</time>
      </trkpt>
      <trkpt lat="43.27907" lon="2.24783">
        <ele>158</ele>
        <time>2010-01-01T04:45:12Z</time>
      </trkpt>
      <trkpt lat="43.27873" lon="2.24817">
        <ele>158</ele>
        <time>2010-01-01T04:45:29Z</time>
      </trkpt>
      <trkpt lat="43.2786" lon="2.24844">
        <ele>160</ele>
        <time>2010-01-01T04:45:38Z</time>
      </trkpt>
      <trkpt lat="43.27876" lon="2.24949">
        <ele>164</ele>
        <time>2010-01-01T04:46:10Z</time>
      </trkpt>
      <trkpt lat="43.27891" lon="2.25209">
        <ele>172</ele>
        <time>2010-01-01T04:47:26Z</time>
      </trkpt>
      <trkpt lat="43.27889" lon="2.25252">
        <ele>174</ele>
        <time>2010-01-01T04:47:38Z</time>
      </trkpt>
      <trkpt lat="43.2787" lon="2.25328">
        <ele>173</ele>
        <time>2010-01-01T04:48:02Z</time>
      </trkpt>
      <trkpt lat="43.27855" lon="2.25414">
        <ele>171</ele>
        <time>2010-01-01T04:48:27Z</time>
      </trkpt>
      <trkpt lat="43.27855" lon="2.25429">
        <ele>170</ele>
        <time>2010-01-01T04:48:32Z</time>
      </trkpt>
      <trkpt lat="43.27847" lon="2.25547">
        <ele>167</ele>
        <time>2010-01-01T04:49:06Z</time>
      </trkpt>
      <trkpt lat="43.27811" lon="2.25809">
        <ele>155</ele>
        <time>2010-01-01T04:50:24Z</time>
      </trkpt>
      <trkpt lat="43.27751" lon="2.26052">
        <ele>152</ele>
        <time>2010-01-01T04:51:39Z</time>
      </trkpt>
      <trkpt lat="43.27676" lon="2.26247">
        <ele>146</ele>
        <time>2010-01-01T04:52:43Z</time>
      </trkpt>
      <trkpt lat="43.27671" lon="2.26259">
        <ele>146</ele>
        <time>2010-01-01T04:52:47Z</time>
      </trkpt>
      <trkpt lat="43.27627" lon="2.26382">
        <ele>148</ele>
        <time>2010-01-01T04:53:27Z</time>
      </trkpt>
      <trkpt lat="43.27477" lon="2.26714">
        <ele>149</ele>
        <time>2010-01-01T04:55:21Z</time>
      </trkpt>
      <trkpt lat="43.2744" lon="2.26764">
        <ele>147</ele>
        <time>2010-01-01T04:55:42Z</time>
      </trkpt>
      <trkpt lat="43.27425" lon="2.26781">
        <ele>147</ele>
        <time>2010-01-01T04:55:49Z</time>
      </trkpt>
      <trkpt lat="43.27377" lon="2.26834">
        <ele>144</ele>
        <time>2010-01-01T04:56:14Z</time>
      </trkpt>
      <trkpt lat="43.27359" lon="2.26864">
        <ele>144</ele>
        <time>2010-01-01T04:56:25Z</time>
      </trkpt>
      <trkpt lat="43.27299" lon="2.27074">
        <ele>137</ele>
        <time>2010-01-01T04:57:31Z</time>
      </trkpt>
      <trkpt lat="43.27228" lon="2.27184">
        <ele>132</ele>
        <time>2010-01-01T04:58:14Z</time>
      </trkpt>
      <trkpt lat="43.2715" lon="2.27356">
        <ele>130</ele>
        <time>2010-01-01T04:59:13Z</time>
      </trkpt>
      <trkpt lat="43.27145" lon="2.27496">
        <ele>131</ele>
        <time>2010-01-01T04:59:54Z</time>
      </trkpt>
      <trkpt lat="43.27096" lon="2.27624">
        <ele>132</ele>
        <time>2010-01-01T05:00:36Z</time>
      </trkpt>
      <trkpt lat="43.27086" lon="2.27658">
        <ele>132</ele>
        <time>2010-01-01T05:00:47Z</time>
      </trkpt>
      <trkpt lat="43.27082" lon="2.27683">
        <ele>131</ele>
        <time>2010-01-01T05:00:54Z</time>
      </trkpt>
      <trkpt lat="43.27077" lon="2.27745">
        <ele>130</ele>
        <time>2010-01-01T05:01:12Z</time>
      </trkpt>
      <trkpt lat="43.27069" lon="2.27911">
        <ele>124</ele>
        <time>2010-01-01T05:02:01Z</time>
      </trkpt>
      <trkpt lat="43.27062" lon="2.27927">
        <ele>124</ele>
        <time>2010-01-01T05:02:06Z</time>
      </trkpt>
      <trkpt lat="43.26995" lon="2.28044">
        <ele>120</ele>
        <time>2010-01-01T05:02:50Z</time>
      </trkpt>
      <trkpt lat="43.26993" lon="2.28047">
        <ele>120</ele>
        <time>2010-01-01T05:02:51Z</time>
      </trkpt>
      <trkpt lat="43.26908" lon="2.28175">
        <ele>120</ele>
        <time>2010-01-01T05:03:41Z</time>
      </trkpt>
      <trkpt lat="43.26878" lon="2.28193">
        <ele>121</ele>
        <time>2010-01-01T05:03:54Z</time>
      </trkpt>
      <trkpt lat="43.26846" lon="2.28205">
        <ele>120</ele>
        <time>2010-01-01T05:04:08Z</time>
      </trkpt>
      <trkpt lat="43.26805" lon="2.28233">
        <ele>119</ele>
        <time>2010-01-01T05:04:26Z</time>
      </trkpt>
      <trkpt lat="43.26774" lon="2.28289">
        <ele>121</ele>
        <time>2010-01-01T05:04:47Z</time>
      </trkpt>
      <trkpt lat="43.26768" lon="2.28315">
        <ele>121</ele>
        <time>2010-01-01T05:04:55Z</time>
      </trkpt>
      <trkpt lat="43.26767" lon="2.28319">
        <ele>122</ele>
        <time>2010-01-01T05:04:56Z</time>
      </trkpt>
      <trkpt lat="43.26765" lon="2.28327">
        <ele>122</ele>
        <time>2010-01-01T05:04:58Z</time>
      </trkpt>
      <trkpt lat="43.26764" lon="2.28335">
        <ele>123</ele>
        <time>2010-01-01T05:05:01Z</time>
      </trkpt>
      <trkpt lat="43.26757" lon="2.28398">
        <ele>124</ele>
        <time>2010-01-01T05:05:19Z</time>
      </trkpt>
      <trkpt lat="43.26757" lon="2.28399">
        <ele>124</ele>
        <time>2010-01-01T05:05:19Z</time>
      </trkpt>
      <trkpt lat="43.26754" lon="2.28403">
        <ele>124</ele>
        <time>2010-01-01T05:05:21Z</time>
      </trkpt>
      <trkpt lat="43.26713" lon="2.28418">
        <ele>127</ele>
        <time>2010-01-01T05:05:38Z</time>
      </trkpt>
      <trkpt lat="43.26698" lon="2.28422">
        <ele>128</ele>
        <time>2010-01-01T05:05:44Z</time>
      </trkpt>
      <trkpt lat="43.2669" lon="2.28418">
        <ele>128</ele>
        <time>2010-01-01T05:05:48Z</time>
      </trkpt>
      <trkpt lat="43.26677" lon="2.28405">
        <ele>126</ele>
        <time>2010-01-01T05:05:54Z</time>
      </trkpt>
      <trkpt lat="43.26673" lon="2.284">
        <ele>126</ele>
        <time>2010-01-01T05:05:56Z</time>
      </trkpt>
      <trkpt lat="43.26663" lon="2.28396">
        <ele>125</ele>
        <time>2010-01-01T05:06:00Z</time>
      </trkpt>
      <trkpt lat="43.26659" lon="2.28398">
        <ele>125</ele>
        <time>2010-01-01T05:06:02Z</time>
      </trkpt>
      <trkpt lat="43.26656" lon="2.28399">
        <ele>125</ele>
        <time>2010-01-01T05:06:03Z</time>
      </trkpt>
      <trkpt lat="43.26645" lon="2.28449">
        <ele>128</ele>
        <time>2010-01-01T05:06:19Z</time>
      </trkpt>
      <trkpt lat="43.26604" lon="2.28433">
        <ele>126</ele>
        <time>2010-01-01T05:06:36Z</time>
      </trkpt>
      <trkpt lat="43.266" lon="2.28432">
        <ele>126</ele>
        <time>2010-01-01T05:06:37Z</time>
      </trkpt>
      <trkpt lat="43.26591" lon="2.2843">
        <ele>126</ele>
        <time>2010-01-01T05:06:41Z</time>
      </trkpt>
      <trkpt lat="43.26587" lon="2.28432">
        <ele>126</ele>
        <time>2010-01-01T05:06:43Z</time>
      </trkpt>
      <trkpt lat="43.26582" lon="2.28453">
        <ele>124</ele>
        <time>2010-01-01T05:06:49Z</time>
      </trkpt>
      <trkpt lat="43.26579" lon="2.28457">
        <ele>124</ele>
        <time>2010-01-01T05:06:51Z</time>
      </trkpt>
      <trkpt lat="43.26566" lon="2.28456">
        <ele>124</ele>
        <time>2010-01-01T05:06:56Z</time>
      </trkpt>
      <trkpt lat="43.2655" lon="2.28469">
        <ele>124</ele>
        <time>2010-01-01T05:07:03Z</time>
      </trkpt>
      <trkpt lat="43.26536" lon="2.28487">
        <ele>124</ele>
        <time>2010-01-01T05:07:11Z</time>
      </trkpt>
      <trkpt lat="43.2649" lon="2.28575">
        <ele>124</ele>
        <time>2010-01-01T05:07:43Z</time>
      </trkpt>
      <trkpt lat="43.26478" lon="2.28611">
        <ele>124</ele>
        <time>2010-01-01T05:07:54Z</time>
      </trkpt>
      <trkpt lat="43.26459" lon="2.28661">
        <ele>124</ele>
        <time>2010-01-01T05:08:11Z</time>
      </trkpt>
      <trkpt lat="43.26453" lon="2.28669">
        <ele>124</ele>
        <time>2010-01-01T05:08:14Z</time>
      </trkpt>
      <trkpt lat="43.26449" lon="2.28671">
        <ele>124</ele>
        <time>2010-01-01T05:08:16Z</time>
      </trkpt>
      <trkpt lat="43.2643" lon="2.28715">
        <ele>124</ele>
        <time>2010-01-01T05:08:31Z</time>
      </trkpt>
      <trkpt lat="43.26424" lon="2.28745">
        <ele>124</ele>
        <time>2010-01-01T05:08:40Z</time>
      </trkpt>
      <trkpt lat="43.26422" lon="2.2877">
        <ele>124</ele>
        <time>2010-01-01T05:08:47Z</time>
      </trkpt>
      <trkpt lat="43.26416" lon="2.28796">
        <ele>123</ele>
        <time>2010-01-01T05:08:55Z</time>
      </trkpt>
      <trkpt lat="43.26438" lon="2.28863">
        <ele>124</ele>
        <time>2010-01-01T05:09:16Z</time>
      </trkpt>
      <trkpt lat="43.2644" lon="2.29203">
        <ele>132</ele>
        <time>2010-01-01T05:10:55Z</time>
      </trkpt>
      <trkpt lat="43.26456" lon="2.29379">
        <ele>136</ele>
        <time>2010-01-01T05:11:47Z</time>
      </trkpt>
      <trkpt lat="43.26456" lon="2.29529">
        <ele>137</ele>
        <time>2010-01-01T05:12:31Z</time>
      </trkpt>
      <trkpt lat="43.26473" lon="2.29576">
        <ele>138</ele>
        <time>2010-01-01T05:12:46Z</time>
      </trkpt>
      <trkpt lat="43.26476" lon="2.29579">
        <ele>138</ele>
        <time>2010-01-01T05:12:48Z</time>
      </trkpt>
      <trkpt lat="43.26487" lon="2.2959">
        <ele>138</ele>
        <time>2010-01-01T05:12:53Z</time>
      </trkpt>
      <trkpt lat="43.26548" lon="2.29769">
        <ele>134</ele>
        <time>2010-01-01T05:13:51Z</time>
      </trkpt>
      <trkpt lat="43.26549" lon="2.29773">
        <ele>134</ele>
        <time>2010-01-01T05:13:52Z</time>
      </trkpt>
      <trkpt lat="43.26568" lon="2.29841">
        <ele>133</ele>
        <time>2010-01-01T05:14:13Z</time>
      </trkpt>
      <trkpt lat="43.26573" lon="2.29867">
        <ele>132</ele>
        <time>2010-01-01T05:14:21Z</time>
      </trkpt>
      <trkpt lat="43.26583" lon="2.29914">
        <ele>131</ele>
        <time>2010-01-01T05:14:35Z</time>
      </trkpt>
      <trkpt lat="43.26656" lon="2.30151">
        <ele>130</ele>
        <time>2010-01-01T05:15:50Z</time>
      </trkpt>
      <trkpt lat="43.26716" lon="2.30268">
        <ele>133</ele>
        <time>2010-01-01T05:16:32Z</time>
      </trkpt>
      <trkpt lat="43.26811" lon="2.30431">
        <ele>134</ele>
        <time>2010-01-01T05:17:33Z</time>
      </trkpt>
      <trkpt lat="43.26891" lon="2.30599">
        <ele>134</ele>
        <time>2010-01-01T05:18:31Z</time>
      </trkpt>
      <trkpt lat="43.26979" lon="2.30692">
        <ele>136</ele>
        <time>2010-01-01T05:19:16Z</time>
      </trkpt>
      <trkpt lat="43.26982" lon="2.30702">
        <ele>136</ele>
        <time>2010-01-01T05:19:19Z</time>
      </trkpt>
      <trkpt lat="43.26996" lon="2.30744">
        <ele>136</ele>
        <time>2010-01-01T05:19:32Z</time>
      </trkpt>
      <trkpt lat="43.27046" lon="2.30918">
        <ele>142</ele>
        <time>2010-01-01T05:20:27Z</time>
      </trkpt>
      <trkpt lat="43.27134" lon="2.3143">
        <ele>144</ele>
        <time>2010-01-01T05:23:00Z</time>
      </trkpt>
      <trkpt lat="43.27176" lon="2.31663">
        <ele>150</ele>
        <time>2010-01-01T05:24:10Z</time>
      </trkpt>
      <trkpt lat="43.27201" lon="2.31725">
        <ele>151</ele>
        <time>2010-01-01T05:24:31Z</time>
      </trkpt>
      <trkpt lat="43.27218" lon="2.31779">
        <ele>153</ele>
        <time>2010-01-01T05:24:48Z</time>
      </trkpt>
      <trkpt lat="43.27217" lon="2.31862">
        <ele>154</ele>
        <time>2010-01-01T05:25:12Z</time>
      </trkpt>
      <trkpt lat="43.27229" lon="2.31921">
        <ele>151</ele>
        <time>2010-01-01T05:25:30Z</time>
      </trkpt>
      <trkpt lat="43.27235" lon="2.31938">
        <ele>151</ele>
        <time>2010-01-01T05:25:36Z</time>
      </trkpt>
      <trkpt lat="43.27247" lon="2.3197">
        <ele>150</ele>
        <time>2010-01-01T05:25:46Z</time>
      </trkpt>
      <trkpt lat="43.27366" lon="2.32238">
        <ele>143</ele>
        <time>2010-01-01T05:27:18Z</time>
      </trkpt>
      <trkpt lat="43.2739" lon="2.32312">
        <ele>143</ele>
        <time>2010-01-01T05:27:41Z</time>
      </trkpt>
      <trkpt lat="43.27402" lon="2.3236">
        <ele>143</ele>
        <time>2010-01-01T05:27:56Z</time>
      </trkpt>
      <trkpt lat="43.27416" lon="2.32416">
        <ele>144</ele>
        <time>2010-01-01T05:28:13Z</time>
      </trkpt>
      <trkpt lat="43.27444" lon="2.32522">
        <ele>144</ele>
        <time>2010-01-01T05:28:46Z</time>
      </trkpt>
      <trkpt lat="43.27483" lon="2.32618">
        <ele>143</ele>
        <time>2010-01-01T05:29:18Z</time>
      </trkpt>
      <trkpt lat="43.27522" lon="2.32709">
        <ele>139</ele>
        <time>2010-01-01T05:29:49Z</time>
      </trkpt>
      <trkpt lat="43.27538" lon="2.32748">
        <ele>138</ele>
        <time>2010-01-01T05:30:02Z</time>
      </trkpt>
      <trkpt lat="43.27578" lon="2.3288">
        <ele>138</ele>
        <time>2010-01-01T05:30:44Z</time>
      </trkpt>
      <trkpt lat="43.27589" lon="2.32968">
        <ele>140</ele>
        <time>2010-01-01T05:31:10Z</time>
      </trkpt>
      <trkpt lat="43.27589" lon="2.33067">
        <ele>140</ele>
        <time>2010-01-01T05:31:39Z</time>
      </trkpt>
      <trkpt lat="43.27587" lon="2.33091">
        <ele>139</ele>
        <time>2010-01-01T05:31:46Z</time>
      </trkpt>
      <trkpt lat="43.27579" lon="2.33221">
        <ele>139</ele>
        <time>2010-01-01T05:32:24Z</time>
      </trkpt>
      <trkpt lat="43.27578" lon="2.33359">
        <ele>141</ele>
        <time>2010-01-01T05:33:04Z</time>
      </trkpt>
      <trkpt lat="43.27577" lon="2.33499">
        <ele>141</ele>
        <time>2010-01-01T05:33:45Z</time>
      </trkpt>
      <trkpt lat="43.27574" lon="2.33551">
        <ele>140</ele>
        <time>2010-01-01T05:34:00Z</time>
      </trkpt>
      <trkpt lat="43.27567" lon="2.33689">
        <ele>138</ele>
        <time>2010-01-01T05:34:40Z</time>
      </trkpt>
      <trkpt lat="43.27568" lon="2.33822">
        <ele>139</ele>
        <time>2010-01-01T05:35:19Z</time>
      </trkpt>
      <trkpt lat="43.27572" lon="2.33965">
        <ele>139</ele>
        <time>2010-01-01T05:36:01Z</time>
      </trkpt>
      <trkpt lat="43.27593" lon="2.34322">
        <ele>142</ele>
        <time>2010-01-01T05:37:45Z</time>
      </trkpt>
      <trkpt lat="43.27566" lon="2.34575">
        <ele>140</ele>
        <time>2010-01-01T05:39:00Z</time>
      </trkpt>
      <trkpt lat="43.27538" lon="2.34648">
        <ele>139</ele>
        <time>2010-01-01T05:39:24Z</time>
      </trkpt>
      <trkpt lat="43.27537" lon="2.34655">
        <ele>139</ele>
        <time>2010-01-01T05:39:26Z</time>
      </trkpt>
      <trkpt lat="43.2753" lon="2.34697">
        <ele>140</ele>
        <time>2010-01-01T05:39:38Z</time>
      </trkpt>
      <trkpt lat="43.2753" lon="2.34732">
        <ele>139</ele>
        <time>2010-01-01T05:39:48Z</time>
      </trkpt>
      <trkpt lat="43.2753" lon="2.34795">
        <ele>140</ele>
        <time>2010-01-01T05:40:07Z</time>
      </trkpt>
      <trkpt lat="43.2753" lon="2.34815">
        <ele>139</ele>
        <time>2010-01-01T05:40:13Z</time>
      </trkpt>
      <trkpt lat="43.27542" lon="2.34972">
        <ele>140</ele>
        <time>2010-01-01T05:40:59Z</time>
      </trkpt>
      <trkpt lat="43.275" lon="2.35036">
        <ele>136</ele>
        <time>2010-01-01T05:41:24Z</time>
      </trkpt>
      <trkpt lat="43.27426" lon="2.35137">
        <ele>134</ele>
        <time>2010-01-01T05:42:05Z</time>
      </trkpt>
      <trkpt lat="43.27374" lon="2.35186">
        <ele>132</ele>
        <time>2010-01-01T05:42:31Z</time>
      </trkpt>
      <trkpt lat="43.2736" lon="2.352">
        <ele>131</ele>
        <time>2010-01-01T05:42:38Z</time>
      </trkpt>
      <trkpt lat="43.27357" lon="2.35202">
        <ele>131</ele>
        <time>2010-01-01T05:42:39Z</time>
      </trkpt>
      <trkpt lat="43.27272" lon="2.35279">
        <ele>131</ele>
        <time>2010-01-01T05:43:20Z</time>
      </trkpt>
      <trkpt lat="43.27149" lon="2.3539">
        <ele>130</ele>
        <time>2010-01-01T05:44:19Z</time>
      </trkpt>
      <trkpt lat="43.27126" lon="2.35443">
        <ele>130</ele>
        <time>2010-01-01T05:44:37Z</time>
      </trkpt>
      <trkpt lat="43.27121" lon="2.35449">
        <ele>130</ele>
        <time>2010-01-01T05:44:39Z</time>
      </trkpt>
      <trkpt lat="43.27115" lon="2.35453">
        <ele>130</ele>
        <time>2010-01-01T05:44:42Z</time>
      </trkpt>
      <trkpt lat="43.27103" lon="2.35448">
        <ele>130</ele>
        <time>2010-01-01T05:44:47Z</time>
      </trkpt>
      <trkpt lat="43.27089" lon="2.35443">
        <ele>130</ele>
        <time>2010-01-01T05:44:53Z</time>
      </trkpt>
      <trkpt lat="43.27048" lon="2.35427">
        <ele>130</ele>
        <time>2010-01-01T05:45:10Z</time>
      </trkpt>
      <trkpt lat="43.27008" lon="2.35425">
        <ele>130</ele>
        <time>2010-01-01T05:45:26Z</time>
      </trkpt>
      <trkpt lat="43.27003" lon="2.35427">
        <ele>130</ele>
        <time>2010-01-01T05:45:28Z</time>
      </trkpt>
      <trkpt lat="43.26982" lon="2.35433">
        <ele>129</ele>
        <time>2010-01-01T05:45:37Z</time>
      </trkpt>
      <trkpt lat="43.26957" lon="2.35445">
        <ele>129</ele>
        <time>2010-01-01T05:45:47Z</time>
      </trkpt>
      <trkpt lat="43.26923" lon="2.35462">
        <ele>129</ele>
        <time>2010-01-01T05:46:02Z</time>
      </trkpt>
      <trkpt lat="43.26911" lon="2.35472">
        <ele>129</ele>
        <time>2010-01-01T05:46:07Z</time>
      </trkpt>
      <trkpt lat="43.26893" lon="2.35503">
        <ele>128</ele>
        <time>2010-01-01T05:46:19Z</time>
      </trkpt>
      <trkpt lat="43.26891" lon="2.35515">
        <ele>128</ele>
        <time>2010-01-01T05:46:22Z</time>
      </trkpt>
      <trkpt lat="43.26891" lon="2.35521">
        <ele>128</ele>
        <time>2010-01-01T05:46:24Z</time>
      </trkpt>
      <trkpt lat="43.2689" lon="2.35545">
        <ele>128</ele>
        <time>2010-01-01T05:46:31Z</time>
      </trkpt>
      <trkpt lat="43.26892" lon="2.35553">
        <ele>128</ele>
        <time>2010-01-01T05:46:34Z</time>
      </trkpt>
      <trkpt lat="43.26908" lon="2.35578">
        <ele>127</ele>
        <time>2010-01-01T05:46:43Z</time>
      </trkpt>
      <trkpt lat="43.26931" lon="2.35616">
        <ele>128</ele>
        <time>2010-01-01T05:46:58Z</time>
      </trkpt>
      <trkpt lat="43.26938" lon="2.35629">
        <ele>128</ele>
        <time>2010-01-01T05:47:02Z</time>
      </trkpt>
      <trkpt lat="43.2695" lon="2.35664">
        <ele>128</ele>
        <time>2010-01-01T05:47:14Z</time>
      </trkpt>
      <trkpt lat="43.26953" lon="2.35696">
        <ele>129</ele>
        <time>2010-01-01T05:47:23Z</time>
      </trkpt>
      <trkpt lat="43.26952" lon="2.35715">
        <ele>129</ele>
        <time>2010-01-01T05:47:29Z</time>
      </trkpt>
      <trkpt lat="43.26954" lon="2.35725">
        <ele>129</ele>
        <time>2010-01-01T05:47:32Z</time>
      </trkpt>
      <trkpt lat="43.26956" lon="2.35756">
        <ele>131</ele>
        <time>2010-01-01T05:47:41Z</time>
      </trkpt>
      <trkpt lat="43.26979" lon="2.35841">
        <ele>133</ele>
        <time>2010-01-01T05:48:07Z</time>
      </trkpt>
      <trkpt lat="43.26987" lon="2.35882">
        <ele>134</ele>
        <time>2010-01-01T05:48:20Z</time>
      </trkpt>
      <trkpt lat="43.26996" lon="2.35918">
        <ele>134</ele>
        <time>2010-01-01T05:48:31Z</time>
      </trkpt>
      <trkpt lat="43.27006" lon="2.35966">
        <ele>135</ele>
        <time>2010-01-01T05:48:45Z</time>
      </trkpt>
      <trkpt lat="43.27026" lon="2.36036">
        <ele>136</ele>
        <time>2010-01-01T05:49:07Z</time>
      </trkpt>
      <trkpt lat="43.27049" lon="2.36164">
        <ele>137</ele>
        <time>2010-01-01T05:49:46Z</time>
      </trkpt>
      <trkpt lat="43.27047" lon="2.36189">
        <ele>138</ele>
        <time>2010-01-01T05:49:53Z</time>
      </trkpt>
      <trkpt lat="43.27043" lon="2.36206">
        <ele>138</ele>
        <time>2010-01-01T05:49:58Z</time>
      </trkpt>
      <trkpt lat="43.2704" lon="2.36221">
        <ele>137</ele>
        <time>2010-01-01T05:50:03Z</time>
      </trkpt>
      <trkpt lat="43.27036" lon="2.3627">
        <ele>137</ele>
        <time>2010-01-01T05:50:17Z</time>
      </trkpt>
      <trkpt lat="43.27034" lon="2.36466">
        <ele>136</ele>
        <time>2010-01-01T05:51:14Z</time>
      </trkpt>
      <trkpt lat="43.27027" lon="2.36508">
        <ele>136</ele>
        <time>2010-01-01T05:51:27Z</time>
      </trkpt>
      <trkpt lat="43.26999" lon="2.36622">
        <ele>135</ele>
        <time>2010-01-01T05:52:02Z</time>
      </trkpt>
      <trkpt lat="43.26987" lon="2.36699">
        <ele>133</ele>
        <time>2010-01-01T05:52:25Z</time>
      </trkpt>
      <trkpt lat="43.26976" lon="2.36856">
        <ele>129</ele>
        <time>2010-01-01T05:53:11Z</time>
      </trkpt>
      <trkpt lat="43.27014" lon="2.36998">
        <ele>128</ele>
        <time>2010-01-01T05:53:55Z</time>
      </trkpt>
      <trkpt lat="43.27035" lon="2.37106">
        <ele>128</ele>
        <time>2010-01-01T05:54:27Z</time>
      </trkpt>
      <trkpt lat="43.27034" lon="2.37136">
        <ele>128</ele>
        <time>2010-01-01T05:54:36Z</time>
      </trkpt>
      <trkpt lat="43.27001" lon="2.37318">
        <ele>129</ele>
        <time>2010-01-01T05:55:31Z</time>
      </trkpt>
      <trkpt lat="43.26974" lon="2.37541">
        <ele>136</ele>
        <time>2010-01-01T05:56:37Z</time>
      </trkpt>
      <trkpt lat="43.27042" lon="2.37792">
        <ele>140</ele>
        <time>2010-01-01T05:57:55Z</time>
      </trkpt>
      <trkpt lat="43.27095" lon="2.37941">
        <ele>139</ele>
        <time>2010-01-01T05:58:43Z</time>
      </trkpt>
      <trkpt lat="43.27096" lon="2.37966">
        <ele>139</ele>
        <time>2010-01-01T05:58:50Z</time>
      </trkpt>
      <trkpt lat="43.27097" lon="2.38132">
        <ele>139</ele>
        <time>2010-01-01T05:59:39Z</time>
      </trkpt>
      <trkpt lat="43.27092" lon="2.38214">
        <ele>139</ele>
        <time>2010-01-01T06:00:03Z</time>
      </trkpt>
      <trkpt lat="43.27071" lon="2.38569">
        <ele>142</ele>
        <time>2010-01-01T06:01:47Z</time>
      </trkpt>
      <trkpt lat="43.27068" lon="2.38894">
        <ele>152</ele>
        <time>2010-01-01T06:03:21Z</time>
      </trkpt>
      <trkpt lat="43.27047" lon="2.39055">
        <ele>146</ele>
        <time>2010-01-01T06:04:09Z</time>
      </trkpt>
      <trkpt lat="43.27035" lon="2.39084">
        <ele>141</ele>
        <time>2010-01-01T06:04:19Z</time>
      </trkpt>
      <trkpt lat="43.27007" lon="2.39108">
        <ele>142</ele>
        <time>2010-01-01T06:04:32Z</time>
      </trkpt>
      <trkpt lat="43.26974" lon="2.39144">
        <ele>146</ele>
        <time>2010-01-01T06:04:49Z</time>
      </trkpt>
      <trkpt lat="43.26966" lon="2.39166">
        <ele>146</ele>
        <time>2010-01-01T06:04:56Z</time>
      </trkpt>
      <trkpt lat="43.26962" lon="2.39243">
        <ele>141</ele>
        <time>2010-01-01T06:05:18Z</time>
      </trkpt>
      <trkpt lat="43.26943" lon="2.39334">
        <ele>133</ele>
        <time>2010-01-01T06:05:46Z</time>
      </trkpt>
      <trkpt lat="43.26933" lon="2.39387">
        <ele>132</ele>
        <time>2010-01-01T06:06:02Z</time>
      </trkpt>
      <trkpt lat="43.26929" lon="2.39466">
        <ele>130</ele>
        <time>2010-01-01T06:06:25Z</time>
      </trkpt>
      <trkpt lat="43.26917" lon="2.39535">
        <ele>129</ele>
        <time>2010-01-01T06:06:46Z</time>
      </trkpt>
      <trkpt lat="43.26912" lon="2.39578">
        <ele>131</ele>
        <time>2010-01-01T06:06:58Z</time>
      </trkpt>
      <trkpt lat="43.26903" lon="2.396">
        <ele>130</ele>
        <time>2010-01-01T06:07:06Z</time>
      </trkpt>
      <trkpt lat="43.26867" lon="2.39648">
        <ele>129</ele>
        <time>2010-01-01T06:07:26Z</time>
      </trkpt>
      <trkpt lat="43.26867" lon="2.39672">
        <ele>127</ele>
        <time>2010-01-01T06:07:33Z</time>
      </trkpt>
      <trkpt lat="43.26815" lon="2.39724">
        <ele>127</ele>
        <time>2010-01-01T06:07:59Z</time>
      </trkpt>
      <trkpt lat="43.26777" lon="2.39752">
        <ele>125</ele>
        <time>2010-01-01T06:08:16Z</time>
      </trkpt>
      <trkpt lat="43.26734" lon="2.39771">
        <ele>124</ele>
        <time>2010-01-01T06:08:34Z</time>
      </trkpt>
      <trkpt lat="43.26753" lon="2.398">
        <ele>124</ele>
        <time>2010-01-01T06:08:45Z</time>
      </trkpt>
      <trkpt lat="43.2677" lon="2.39827">
        <ele>123</ele>
        <time>2010-01-01T06:08:56Z</time>
      </trkpt>
      <trkpt lat="43.26772" lon="2.39829">
        <ele>123</ele>
        <time>2010-01-01T06:08:57Z</time>
      </trkpt>
      <trkpt lat="43.26777" lon="2.39837">
        <ele>123</ele>
        <time>2010-01-01T06:09:00Z</time>
      </trkpt>
      <trkpt lat="43.26799" lon="2.39868">
        <ele>123</ele>
        <time>2010-01-01T06:09:12Z</time>
      </trkpt>
      <trkpt lat="43.26809" lon="2.39883">
        <ele>123</ele>
        <time>2010-01-01T06:09:18Z</time>
      </trkpt>
      <trkpt lat="43.26828" lon="2.3991">
        <ele>124</ele>
        <time>2010-01-01T06:09:29Z</time>
      </trkpt>
      <trkpt lat="43.26832" lon="2.39915">
        <ele>124</ele>
        <time>2010-01-01T06:09:31Z</time>
      </trkpt>
      <trkpt lat="43.26844" lon="2.39954">
        <ele>126</ele>
        <time>2010-01-01T06:09:44Z</time>
      </trkpt>
      <trkpt lat="43.26844" lon="2.40001">
        <ele>129</ele>
        <time>2010-01-01T06:09:57Z</time>
      </trkpt>
      <trkpt lat="43.26856" lon="2.40007">
        <ele>131</ele>
        <time>2010-01-01T06:10:03Z</time>
      </trkpt>
      <trkpt lat="43.26875" lon="2.40004">
        <ele>131</ele>
        <time>2010-01-01T06:10:10Z</time>
      </trkpt>
      <trkpt lat="43.26885" lon="2.40002">
        <ele>131</ele>
        <time>2010-01-01T06:10:14Z</time>
      </trkpt>
      <trkpt lat="43.26905" lon="2.40001">
        <ele>130</ele>
        <time>2010-01-01T06:10:22Z</time>
      </trkpt>
      <trkpt lat="43.26903" lon="2.40025">
        <ele>132</ele>
        <time>2010-01-01T06:10:29Z</time>
      </trkpt>
      <trkpt lat="43.26898" lon="2.40063">
        <ele>134</ele>
        <time>2010-01-01T06:10:41Z</time>
      </trkpt>
      <trkpt lat="43.26895" lon="2.40068">
        <ele>135</ele>
        <time>2010-01-01T06:10:43Z</time>
      </trkpt>
      <trkpt lat="43.26903" lon="2.40073">
        <ele>136</ele>
        <time>2010-01-01T06:10:46Z</time>
      </trkpt>
      <trkpt lat="43.26916" lon="2.4008">
        <ele>138</ele>
        <time>2010-01-01T06:10:52Z</time>
      </trkpt>
      <trkpt lat="43.26917" lon="2.40095">
        <ele>139</ele>
        <time>2010-01-01T06:10:56Z</time>
      </trkpt>
      <trkpt lat="43.26915" lon="2.40096">
        <ele>139</ele>
        <time>2010-01-01T06:10:57Z</time>
      </trkpt>
      <trkpt lat="43.26911" lon="2.40119">
        <ele>139</ele>
        <time>2010-01-01T06:11:04Z</time>
      </trkpt>
      <trkpt lat="43.26911" lon="2.40122">
        <ele>140</ele>
        <time>2010-01-01T06:11:05Z</time>
      </trkpt>
      <trkpt lat="43.2691" lon="2.40125">
        <ele>140</ele>
        <time>2010-01-01T06:11:06Z</time>
      </trkpt>
      <trkpt lat="43.2691" lon="2.4013">
        <ele>140</ele>
        <time>2010-01-01T06:11:07Z</time>
      </trkpt>
      <trkpt lat="43.26921" lon="2.40174">
        <ele>144</ele>
        <time>2010-01-01T06:11:21Z</time>
      </trkpt>
      <trkpt lat="43.26913" lon="2.40178">
        <ele>143</ele>
        <time>2010-01-01T06:11:24Z</time>
      </trkpt>
      <trkpt lat="43.26916" lon="2.40185">
        <ele>143</ele>
        <time>2010-01-01T06:11:26Z</time>
      </trkpt>
      <trkpt lat="43.26921" lon="2.4021">
        <ele>144</ele>
        <time>2010-01-01T06:11:34Z</time>
      </trkpt>
      <trkpt lat="43.26922" lon="2.40212">
        <ele>144</ele>
        <time>2010-01-01T06:11:35Z</time>
      </trkpt>
      <trkpt lat="43.26926" lon="2.40224">
        <ele>145</ele>
        <time>2010-01-01T06:11:38Z</time>
      </trkpt>
      <trkpt lat="43.2693" lon="2.40235">
        <ele>145</ele>
        <time>2010-01-01T06:11:42Z</time>
      </trkpt>
      <trkpt lat="43.26946" lon="2.40276">
        <ele>147</ele>
        <time>2010-01-01T06:11:56Z</time>
      </trkpt>
      <trkpt lat="43.26956" lon="2.40302">
        <ele>147</ele>
        <time>2010-01-01T06:12:04Z</time>
      </trkpt>
      <trkpt lat="43.26961" lon="2.40311">
        <ele>147</ele>
        <time>2010-01-01T06:12:08Z</time>
      </trkpt>
      <trkpt lat="43.26972" lon="2.40327">
        <ele>148</ele>
        <time>2010-01-01T06:12:14Z</time>
      </trkpt>
      <trkpt lat="43.27001" lon="2.4037">
        <ele>154</ele>
        <time>2010-01-01T06:12:31Z</time>
      </trkpt>
      <trkpt lat="43.27009" lon="2.40383">
        <ele>155</ele>
        <time>2010-01-01T06:12:36Z</time>
      </trkpt>
      <trkpt lat="43.27029" lon="2.40423">
        <ele>158</ele>
        <time>2010-01-01T06:12:50Z</time>
      </trkpt>
      <trkpt lat="43.27035" lon="2.40458">
        <ele>158</ele>
        <time>2010-01-01T06:13:01Z</time>
      </trkpt>
      <trkpt lat="43.27056" lon="2.40552">
        <ele>158</ele>
        <time>2010-01-01T06:13:29Z</time>
      </trkpt>
      <trkpt lat="43.27047" lon="2.40733">
        <ele>150</ele>
        <time>2010-01-01T06:14:22Z</time>
      </trkpt>
      <trkpt lat="43.27052" lon="2.40813">
        <ele>148</ele>
        <time>2010-01-01T06:14:46Z</time>
      </trkpt>
      <trkpt lat="43.27069" lon="2.40996">
        <ele>144</ele>
        <time>2010-01-01T06:15:39Z</time>
      </trkpt>
      <trkpt lat="43.27073" lon="2.41077">
        <ele>142</ele>
        <time>2010-01-01T06:16:03Z</time>
      </trkpt>
      <trkpt lat="43.27072" lon="2.41126">
        <ele>140</ele>
        <time>2010-01-01T06:16:17Z</time>
      </trkpt>
      <trkpt lat="43.27071" lon="2.41145">
        <ele>140</ele>
        <time>2010-01-01T06:16:23Z</time>
      </trkpt>
      <trkpt lat="43.27069" lon="2.41208">
        <ele>138</ele>
        <time>2010-01-01T06:16:41Z</time>
      </trkpt>
      <trkpt lat="43.27087" lon="2.4133">
        <ele>139</ele>
        <time>2010-01-01T06:17:17Z</time>
      </trkpt>
      <trkpt lat="43.27144" lon="2.41565">
        <ele>141</ele>
        <time>2010-01-01T06:18:30Z</time>
      </trkpt>
      <trkpt lat="43.27169" lon="2.41692">
        <ele>143</ele>
        <time>2010-01-01T06:19:08Z</time>
      </trkpt>
      <trkpt lat="43.27185" lon="2.41875">
        <ele>141</ele>
        <time>2010-01-01T06:20:02Z</time>
      </trkpt>
      <trkpt lat="43.27187" lon="2.41888">
        <ele>141</ele>
        <time>2010-01-01T06:20:06Z</time>
      </trkpt>
      <trkpt lat="43.27203" lon="2.41966">
        <ele>138</ele>
        <time>2010-01-01T06:20:29Z</time>
      </trkpt>
      <trkpt lat="43.27225" lon="2.42211">
        <ele>138</ele>
        <time>2010-01-01T06:21:41Z</time>
      </trkpt>
      <trkpt lat="43.2722" lon="2.42288">
        <ele>140</ele>
        <time>2010-01-01T06:22:04Z</time>
      </trkpt>
      <trkpt lat="43.27243" lon="2.42446">
        <ele>144</ele>
        <time>2010-01-01T06:22:51Z</time>
      </trkpt>
      <trkpt lat="43.27243" lon="2.4245">
        <ele>144</ele>
        <time>2010-01-01T06:22:52Z</time>
      </trkpt>
      <trkpt lat="43.27243" lon="2.42499">
        <ele>146</ele>
        <time>2010-01-01T06:23:06Z</time>
      </trkpt>
      <trkpt lat="43.27242" lon="2.42533">
        <ele>149</ele>
        <time>2010-01-01T06:23:16Z</time>
      </trkpt>
      <trkpt lat="43.27229" lon="2.42639">
        <ele>155</ele>
        <time>2010-01-01T06:23:47Z</time>
      </trkpt>
      <trkpt lat="43.27202" lon="2.42749">
        <ele>155</ele>
        <time>2010-01-01T06:24:21Z</time>
      </trkpt>
      <trkpt lat="43.27182" lon="2.42803">
        <ele>152</ele>
        <time>2010-01-01T06:24:39Z</time>
      </trkpt>
      <trkpt lat="43.27115" lon="2.42917">
        <ele>145</ele>
        <time>2010-01-01T06:25:22Z</time>
      </trkpt>
      <trkpt lat="43.27066" lon="2.43166">
        <ele>140</ele>
        <time>2010-01-01T06:26:37Z</time>
      </trkpt>
      <trkpt lat="43.27023" lon="2.4326">
        <ele>136</ele>
        <time>2010-01-01T06:27:09Z</time>
      </trkpt>
      <trkpt lat="43.27018" lon="2.43294">
        <ele>135</ele>
        <time>2010-01-01T06:27:19Z</time>
      </trkpt>
      <trkpt lat="43.27016" lon="2.43305">
        <ele>135</ele>
        <time>2010-01-01T06:27:22Z</time>
      </trkpt>
      <trkpt lat="43.27047" lon="2.43379">
        <ele>131</ele>
        <time>2010-01-01T06:27:47Z</time>
      </trkpt>
      <trkpt lat="43.27056" lon="2.43401">
        <ele>130</ele>
        <time>2010-01-01T06:27:55Z</time>
      </trkpt>
      <trkpt lat="43.27073" lon="2.43435">
        <ele>128</ele>
        <time>2010-01-01T06:28:07Z</time>
      </trkpt>
      <trkpt lat="43.27087" lon="2.4347">
        <ele>128</ele>
        <time>2010-01-01T06:28:18Z</time>
      </trkpt>
      <trkpt lat="43.27112" lon="2.43533">
        <ele>129</ele>
        <time>2010-01-01T06:28:39Z</time>
      </trkpt>
      <trkpt lat="43.27122" lon="2.43553">
        <ele>129</ele>
        <time>2010-01-01T06:28:46Z</time>
      </trkpt>
      <trkpt lat="43.27127" lon="2.4356">
        <ele>129</ele>
        <time>2010-01-01T06:28:49Z</time>
      </trkpt>
      <trkpt lat="43.27132" lon="2.43558">
        <ele>129</ele>
        <time>2010-01-01T06:28:51Z</time>
      </trkpt>
      <trkpt lat="43.27149" lon="2.4355">
        <ele>129</ele>
        <time>2010-01-01T06:28:59Z</time>
      </trkpt>
      <trkpt lat="43.27166" lon="2.43539">
        <ele>129</ele>
        <time>2010-01-01T06:29:06Z</time>
      </trkpt>
      <trkpt lat="43.2717" lon="2.43538">
        <ele>130</ele>
        <time>2010-01-01T06:29:08Z</time>
      </trkpt>
      <trkpt lat="43.27175" lon="2.43553">
        <ele>130</ele>
        <time>2010-01-01T06:29:12Z</time>
      </trkpt>
      <trkpt lat="43.27186" lon="2.436">
        <ele>132</ele>
        <time>2010-01-01T06:29:27Z</time>
      </trkpt>
      <trkpt lat="43.27188" lon="2.4361">
        <ele>132</ele>
        <time>2010-01-01T06:29:30Z</time>
      </trkpt>
      <trkpt lat="43.27196" lon="2.4365">
        <ele>134</ele>
        <time>2010-01-01T06:29:42Z</time>
      </trkpt>
      <trkpt lat="43.27204" lon="2.43694">
        <ele>138</ele>
        <time>2010-01-01T06:29:55Z</time>
      </trkpt>
      <trkpt lat="43.27203" lon="2.43709">
        <ele>138</ele>
        <time>2010-01-01T06:30:00Z</time>
      </trkpt>
      <trkpt lat="43.272" lon="2.43748">
        <ele>138</ele>
        <time>2010-01-01T06:30:11Z</time>
      </trkpt>
      <trkpt lat="43.27203" lon="2.43795">
        <ele>139</ele>
        <time>2010-01-01T06:30:25Z</time>
      </trkpt>
      <trkpt lat="43.27229" lon="2.43866">
        <ele>139</ele>
        <time>2010-01-01T06:30:48Z</time>
      </trkpt>
      <trkpt lat="43.27359" lon="2.44155">
        <ele>147</ele>
        <time>2010-01-01T06:32:27Z</time>
      </trkpt>
      <trkpt lat="43.27435" lon="2.4425">
        <ele>151</ele>
        <time>2010-01-01T06:33:08Z</time>
      </trkpt>
      <trkpt lat="43.27445" lon="2.44383">
        <ele>154</ele>
        <time>2010-01-01T06:33:47Z</time>
      </trkpt>
      <trkpt lat="43.27573" lon="2.44807">
        <ele>162</ele>
        <time>2010-01-01T06:36:01Z</time>
      </trkpt>
      <trkpt lat="43.27614" lon="2.45039">
        <ele>165</ele>
        <time>2010-01-01T06:37:10Z</time>
      </trkpt>
      <trkpt lat="43.27639" lon="2.4511">
        <ele>164</ele>
        <time>2010-01-01T06:37:33Z</time>
      </trkpt>
      <trkpt lat="43.27845" lon="2.45544">
        <ele>164</ele>
        <time>2010-01-01T06:40:04Z</time>
      </trkpt>
      <trkpt lat="43.27851" lon="2.45569">
        <ele>164</ele>
        <time>2010-01-01T06:40:12Z</time>
      </trkpt>
      <trkpt lat="43.27852" lon="2.45748">
        <ele>173</ele>
        <time>2010-01-01T06:41:04Z</time>
      </trkpt>
      <trkpt lat="43.27847" lon="2.45797">
        <ele>177</ele>
        <time>2010-01-01T06:41:19Z</time>
      </trkpt>
      <trkpt lat="43.27857" lon="2.45842">
        <ele>180</ele>
        <time>2010-01-01T06:41:32Z</time>
      </trkpt>
      <trkpt lat="43.27903" lon="2.45875">
        <ele>182</ele>
        <time>2010-01-01T06:41:53Z</time>
      </trkpt>
      <trkpt lat="43.27912" lon="2.45881">
        <ele>182</ele>
        <time>2010-01-01T06:41:57Z</time>
      </trkpt>
      <trkpt lat="43.27941" lon="2.45898">
        <ele>183</ele>
        <time>2010-01-01T06:42:10Z</time>
      </trkpt>
      <trkpt lat="43.27949" lon="2.45904">
        <ele>183</ele>
        <time>2010-01-01T06:42:13Z</time>
      </trkpt>
      <trkpt lat="43.27959" lon="2.45929">
        <ele>186</ele>
        <time>2010-01-01T06:42:22Z</time>
      </trkpt>
      <trkpt lat="43.27963" lon="2.45942">
        <ele>186</ele>
        <time>2010-01-01T06:42:26Z</time>
      </trkpt>
      <trkpt lat="43.27976" lon="2.45987">
        <ele>187</ele>
        <time>2010-01-01T06:42:40Z</time>
      </trkpt>
      <trkpt lat="43.27982" lon="2.46011">
        <ele>188</ele>
        <time>2010-01-01T06:42:47Z</time>
      </trkpt>
      <trkpt lat="43.27982" lon="2.46021">
        <ele>188</ele>
        <time>2010-01-01T06:42:50Z</time>
      </trkpt>
      <trkpt lat="43.2798" lon="2.46032">
        <ele>188</ele>
        <time>2010-01-01T06:42:54Z</time>
      </trkpt>
      <trkpt lat="43.27974" lon="2.46055">
        <ele>188</ele>
        <time>2010-01-01T06:43:01Z</time>
      </trkpt>
      <trkpt lat="43.27957" lon="2.46137">
        <ele>188</ele>
        <time>2010-01-01T06:43:26Z</time>
      </trkpt>
      <trkpt lat="43.27956" lon="2.46159">
        <ele>188</ele>
        <time>2010-01-01T06:43:32Z</time>
      </trkpt>
      <trkpt lat="43.27948" lon="2.46217">
        <ele>187</ele>
        <time>2010-01-01T06:43:49Z</time>
      </trkpt>
      <trkpt lat="43.27944" lon="2.46241">
        <ele>186</ele>
        <time>2010-01-01T06:43:56Z</time>
      </trkpt>
      <trkpt lat="43.27936" lon="2.46293">
        <ele>186</ele>
        <time>2010-01-01T06:44:12Z</time>
      </trkpt>
      <trkpt lat="43.27924" lon="2.46383">
        <ele>185</ele>
        <time>2010-01-01T06:44:38Z</time>
      </trkpt>
      <trkpt lat="43.27918" lon="2.46418">
        <ele>184</ele>
        <time>2010-01-01T06:44:49Z</time>
      </trkpt>
      <trkpt lat="43.27918" lon="2.4643">
        <ele>185</ele>
        <time>2010-01-01T06:44:52Z</time>
      </trkpt>
      <trkpt lat="43.2792" lon="2.46443">
        <ele>185</ele>
        <time>2010-01-01T06:44:56Z</time>
      </trkpt>
      <trkpt lat="43.27924" lon="2.46457">
        <ele>185</ele>
        <time>2010-01-01T06:45:01Z</time>
      </trkpt>
      <trkpt lat="43.27972" lon="2.46543">
        <ele>187</ele>
        <time>2010-01-01T06:45:32Z</time>
      </trkpt>
      <trkpt lat="43.27996" lon="2.46592">
        <ele>189</ele>
        <time>2010-01-01T06:45:49Z</time>
      </trkpt>
      <trkpt lat="43.28028" lon="2.46699">
        <ele>190</ele>
        <time>2010-01-01T06:46:23Z</time>
      </trkpt>
      <trkpt lat="43.28045" lon="2.46742">
        <ele>190</ele>
        <time>2010-01-01T06:46:37Z</time>
      </trkpt>
      <trkpt lat="43.28052" lon="2.46764">
        <ele>190</ele>
        <time>2010-01-01T06:46:44Z</time>
      </trkpt>
      <trkpt lat="43.28094" lon="2.46925">
        <ele>190</ele>
        <time>2010-01-01T06:47:34Z</time>
      </trkpt>
      <trkpt lat="43.28098" lon="2.46939">
        <ele>190</ele>
        <time>2010-01-01T06:47:39Z</time>
      </trkpt>
      <trkpt lat="43.28098" lon="2.46959">
        <ele>190</ele>
        <time>2010-01-01T06:47:45Z</time>
      </trkpt>
      <trkpt lat="43.28079" lon="2.47059">
        <ele>190</ele>
        <time>2010-01-01T06:48:15Z</time>
      </trkpt>
      <trkpt lat="43.28118" lon="2.47367">
        <ele>178</ele>
        <time>2010-01-01T06:49:46Z</time>
      </trkpt>
      <trkpt lat="43.28111" lon="2.475">
        <ele>171</ele>
        <time>2010-01-01T06:50:25Z</time>
      </trkpt>
      <trkpt lat="43.28113" lon="2.47514">
        <ele>170</ele>
        <time>2010-01-01T06:50:29Z</time>
      </trkpt>
      <trkpt lat="43.28122" lon="2.47548">
        <ele>169</ele>
        <time>2010-01-01T06:50:39Z</time>
      </trkpt>
      <trkpt lat="43.28123" lon="2.47604">
        <ele>167</ele>
        <time>2010-01-01T06:50:56Z</time>
      </trkpt>
      <trkpt lat="43.27982" lon="2.47836">
        <ele>160</ele>
        <time>2010-01-01T06:52:24Z</time>
      </trkpt>
      <trkpt lat="43.27957" lon="2.47981">
        <ele>153</ele>
        <time>2010-01-01T06:53:07Z</time>
      </trkpt>
      <trkpt lat="43.27937" lon="2.48035">
        <ele>151</ele>
        <time>2010-01-01T06:53:25Z</time>
      </trkpt>
      <trkpt lat="43.27883" lon="2.48089">
        <ele>149</ele>
        <time>2010-01-01T06:53:52Z</time>
      </trkpt>
      <trkpt lat="43.27863" lon="2.48103">
        <ele>150</ele>
        <time>2010-01-01T06:54:00Z</time>
      </trkpt>
      <trkpt lat="43.27839" lon="2.48123">
        <ele>149</ele>
        <time>2010-01-01T06:54:12Z</time>
      </trkpt>
      <trkpt lat="43.27776" lon="2.48196">
        <ele>144</ele>
        <time>2010-01-01T06:54:45Z</time>
      </trkpt>
      <trkpt lat="43.27652" lon="2.4827">
        <ele>137</ele>
        <time>2010-01-01T06:55:39Z</time>
      </trkpt>
      <trkpt lat="43.2761" lon="2.48318">
        <ele>136</ele>
        <time>2010-01-01T06:56:01Z</time>
      </trkpt>
      <trkpt lat="43.27587" lon="2.48439">
        <ele>132</ele>
        <time>2010-01-01T06:56:37Z</time>
      </trkpt>
      <trkpt lat="43.27501" lon="2.48602">
        <ele>126</ele>
        <time>2010-01-01T06:57:36Z</time>
      </trkpt>
      <trkpt lat="43.27416" lon="2.48679">
        <ele>122</ele>
        <time>2010-01-01T06:58:17Z</time>
      </trkpt>
      <trkpt lat="43.27383" lon="2.48793">
        <ele>120</ele>
        <time>2010-01-01T06:58:52Z</time>
      </trkpt>
      <trkpt lat="43.27374" lon="2.4882">
        <ele>120</ele>
        <time>2010-01-01T06:59:01Z</time>
      </trkpt>
      <trkpt lat="43.27368" lon="2.48834">
        <ele>120</ele>
        <time>2010-01-01T06:59:06Z</time>
      </trkpt>
      <trkpt lat="43.27282" lon="2.48897">
        <ele>115</ele>
        <time>2010-01-01T06:59:45Z</time>
      </trkpt>
      <trkpt lat="43.27249" lon="2.48962">
        <ele>113</ele>
        <time>2010-01-01T07:00:08Z</time>
      </trkpt>
      <trkpt lat="43.27246" lon="2.48971">
        <ele>113</ele>
        <time>2010-01-01T07:00:11Z</time>
      </trkpt>
      <trkpt lat="43.27239" lon="2.48988">
        <ele>112</ele>
        <time>2010-01-01T07:00:16Z</time>
      </trkpt>
      <trkpt lat="43.27221" lon="2.49044">
        <ele>113</ele>
        <time>2010-01-01T07:00:34Z</time>
      </trkpt>
      <trkpt lat="43.27222" lon="2.49095">
        <ele>112</ele>
        <time>2010-01-01T07:00:49Z</time>
      </trkpt>
      <trkpt lat="43.27233" lon="2.49135">
        <ele>112</ele>
        <time>2010-01-01T07:01:02Z</time>
      </trkpt>
      <trkpt lat="43.27235" lon="2.4915">
        <ele>111</ele>
        <time>2010-01-01T07:01:06Z</time>
      </trkpt>
      <trkpt lat="43.27219" lon="2.49253">
        <ele>108</ele>
        <time>2010-01-01T07:01:37Z</time>
      </trkpt>
      <trkpt lat="43.27154" lon="2.49419">
        <ele>103</ele>
        <time>2010-01-01T07:02:32Z</time>
      </trkpt>
      <trkpt lat="43.27164" lon="2.49536">
        <ele>101</ele>
        <time>2010-01-01T07:03:06Z</time>
      </trkpt>
      <trkpt lat="43.27156" lon="2.49653">
        <ele>99</ele>
        <time>2010-01-01T07:03:40Z</time>
      </trkpt>
      <trkpt lat="43.27169" lon="2.49746">
        <ele>97</ele>
        <time>2010-01-01T07:04:08Z</time>
      </trkpt>
      <trkpt lat="43.27184" lon="2.49777">
        <ele>97</ele>
        <time>2010-01-01T07:04:19Z</time>
      </trkpt>
      <trkpt lat="43.27189" lon="2.49783">
        <ele>97</ele>
        <time>2010-01-01T07:04:21Z</time>
      </trkpt>
      <trkpt lat="43.27191" lon="2.49785">
        <ele>97</ele>
        <time>2010-01-01T07:04:22Z</time>
      </trkpt>
      <trkpt lat="43.27197" lon="2.49791">
        <ele>98</ele>
        <time>2010-01-01T07:04:25Z</time>
      </trkpt>
      <trkpt lat="43.27205" lon="2.49799">
        <ele>98</ele>
        <time>2010-01-01T07:04:29Z</time>
      </trkpt>
      <trkpt lat="43.27214" lon="2.49809">
        <ele>98</ele>
        <time>2010-01-01T07:04:34Z</time>
      </trkpt>
      <trkpt lat="43.27218" lon="2.49831">
        <ele>99</ele>
        <time>2010-01-01T07:04:41Z</time>
      </trkpt>
      <trkpt lat="43.27211" lon="2.49857">
        <ele>101</ele>
        <time>2010-01-01T07:04:49Z</time>
      </trkpt>
      <trkpt lat="43.27203" lon="2.49869">
        <ele>101</ele>
        <time>2010-01-01T07:04:53Z</time>
      </trkpt>
      <trkpt lat="43.27189" lon="2.49885">
        <ele>100</ele>
        <time>2010-01-01T07:05:01Z</time>
      </trkpt>
      <trkpt lat="43.27113" lon="2.49982">
        <ele>97</ele>
        <time>2010-01-01T07:05:42Z</time>
      </trkpt>
      <trkpt lat="43.27067" lon="2.50151">
        <ele>101</ele>
        <time>2010-01-01T07:06:35Z</time>
      </trkpt>
      <trkpt lat="43.26984" lon="2.50302">
        <ele>93</ele>
        <time>2010-01-01T07:07:30Z</time>
      </trkpt>
      <trkpt lat="43.26931" lon="2.50337">
        <ele>92</ele>
        <time>2010-01-01T07:07:53Z</time>
      </trkpt>
      <trkpt lat="43.26911" lon="2.50363">
        <ele>90</ele>
        <time>2010-01-01T07:08:04Z</time>
      </trkpt>
      <trkpt lat="43.26896" lon="2.50596">
        <ele>94</ele>
        <time>2010-01-01T07:09:13Z</time>
      </trkpt>
      <trkpt lat="43.26762" lon="2.50734">
        <ele>90</ele>
        <time>2010-01-01T07:10:20Z</time>
      </trkpt>
      <trkpt lat="43.2675" lon="2.50766">
        <ele>88</ele>
        <time>2010-01-01T07:10:30Z</time>
      </trkpt>
      <trkpt lat="43.26761" lon="2.50852">
        <ele>93</ele>
        <time>2010-01-01T07:10:56Z</time>
      </trkpt>
      <trkpt lat="43.26751" lon="2.50896">
        <ele>93</ele>
        <time>2010-01-01T07:11:09Z</time>
      </trkpt>
      <trkpt lat="43.26625" lon="2.51025">
        <ele>86</ele>
        <time>2010-01-01T07:12:12Z</time>
      </trkpt>
      <trkpt lat="43.26606" lon="2.5119">
        <ele>86</ele>
        <time>2010-01-01T07:13:01Z</time>
      </trkpt>
      <trkpt lat="43.26571" lon="2.51306">
        <ele>86</ele>
        <time>2010-01-01T07:13:37Z</time>
      </trkpt>
      <trkpt lat="43.26571" lon="2.51323">
        <ele>87</ele>
        <time>2010-01-01T07:13:42Z</time>
      </trkpt>
      <trkpt lat="43.26575" lon="2.51341">
        <ele>89</ele>
        <time>2010-01-01T07:13:48Z</time>
      </trkpt>
      <trkpt lat="43.26585" lon="2.51381">
        <ele>90</ele>
        <time>2010-01-01T07:14:00Z</time>
      </trkpt>
      <trkpt lat="43.26609" lon="2.51447">
        <ele>91</ele>
        <time>2010-01-01T07:14:22Z</time>
      </trkpt>
      <trkpt lat="43.26634" lon="2.51502">
        <ele>92</ele>
        <time>2010-01-01T07:14:40Z</time>
      </trkpt>
      <trkpt lat="43.26691" lon="2.51624">
        <ele>92</ele>
        <time>2010-01-01T07:15:23Z</time>
      </trkpt>
      <trkpt lat="43.26708" lon="2.51652">
        <ele>92</ele>
        <time>2010-01-01T07:15:33Z</time>
      </trkpt>
      <trkpt lat="43.26716" lon="2.51658">
        <ele>92</ele>
        <time>2010-01-01T07:15:37Z</time>
      </trkpt>
      <trkpt lat="43.26733" lon="2.51671">
        <ele>90</ele>
        <time>2010-01-01T07:15:45Z</time>
      </trkpt>
      <trkpt lat="43.26816" lon="2.51717">
        <ele>86</ele>
        <time>2010-01-01T07:16:21Z</time>
      </trkpt>
      <trkpt lat="43.26838" lon="2.51731">
        <ele>84</ele>
        <time>2010-01-01T07:16:30Z</time>
      </trkpt>
      <trkpt lat="43.26889" lon="2.51764">
        <ele>83</ele>
        <time>2010-01-01T07:16:53Z</time>
      </trkpt>
      <trkpt lat="43.26899" lon="2.51771">
        <ele>83</ele>
        <time>2010-01-01T07:16:57Z</time>
      </trkpt>
      <trkpt lat="43.26977" lon="2.51827">
        <ele>86</ele>
        <time>2010-01-01T07:17:33Z</time>
      </trkpt>
      <trkpt lat="43.27001" lon="2.51845">
        <ele>87</ele>
        <time>2010-01-01T07:17:44Z</time>
      </trkpt>
      <trkpt lat="43.27005" lon="2.51848">
        <ele>87</ele>
        <time>2010-01-01T07:17:45Z</time>
      </trkpt>
      <trkpt lat="43.27033" lon="2.51865">
        <ele>88</ele>
        <time>2010-01-01T07:17:58Z</time>
      </trkpt>
      <trkpt lat="43.27041" lon="2.51869">
        <ele>88</ele>
        <time>2010-01-01T07:18:01Z</time>
      </trkpt>
      <trkpt lat="43.27054" lon="2.51876">
        <ele>88</ele>
        <time>2010-01-01T07:18:07Z</time>
      </trkpt>
      <trkpt lat="43.27059" lon="2.51879">
        <ele>88</ele>
        <time>2010-01-01T07:18:09Z</time>
      </trkpt>
      <trkpt lat="43.27054" lon="2.51892">
        <ele>88</ele>
        <time>2010-01-01T07:18:13Z</time>
      </trkpt>
      <trkpt lat="43.27091" lon="2.51928">
        <ele>88</ele>
        <time>2010-01-01T07:18:31Z</time>
      </trkpt>
      <trkpt lat="43.27097" lon="2.5193">
        <ele>88</ele>
        <time>2010-01-01T07:18:34Z</time>
      </trkpt>
      <trkpt lat="43.27097" lon="2.51942">
        <ele>88</ele>
        <time>2010-01-01T07:18:37Z</time>
      </trkpt>
      <trkpt lat="43.27097" lon="2.51944">
        <ele>88</ele>
        <time>2010-01-01T07:18:38Z</time>
      </trkpt>
      <trkpt lat="43.27126" lon="2.51946">
        <ele>87</ele>
        <time>2010-01-01T07:18:49Z</time>
      </trkpt>
      <trkpt lat="43.27158" lon="2.51957">
        <ele>87</ele>
        <time>2010-01-01T07:19:03Z</time>
      </trkpt>
      <trkpt lat="43.2717" lon="2.51963">
        <ele>85</ele>
        <time>2010-01-01T07:19:08Z</time>
      </trkpt>
      <trkpt lat="43.27178" lon="2.51976">
        <ele>85</ele>
        <time>2010-01-01T07:19:13Z</time>
      </trkpt>
      <trkpt lat="43.27179" lon="2.51994">
        <ele>84</ele>
        <time>2010-01-01T07:19:18Z</time>
      </trkpt>
      <trkpt lat="43.27183" lon="2.52005">
        <ele>83</ele>
        <time>2010-01-01T07:19:22Z</time>
      </trkpt>
      <trkpt lat="43.27181" lon="2.52075">
        <ele>83</ele>
        <time>2010-01-01T07:19:42Z</time>
      </trkpt>
      <trkpt lat="43.27181" lon="2.52088">
        <ele>82</ele>
        <time>2010-01-01T07:19:46Z</time>
      </trkpt>
      <trkpt lat="43.27181" lon="2.52118">
        <ele>81</ele>
        <time>2010-01-01T07:19:55Z</time>
      </trkpt>
      <trkpt lat="43.27181" lon="2.52128">
        <ele>81</ele>
        <time>2010-01-01T07:19:57Z</time>
      </trkpt>
      <trkpt lat="43.27177" lon="2.52192">
        <ele>79</ele>
        <time>2010-01-01T07:20:16Z</time>
      </trkpt>
      <trkpt lat="43.27173" lon="2.52231">
        <ele>79</ele>
        <time>2010-01-01T07:20:28Z</time>
      </trkpt>
      <trkpt lat="43.27172" lon="2.52245">
        <ele>78</ele>
        <time>2010-01-01T07:20:32Z</time>
      </trkpt>
      <trkpt lat="43.27155" lon="2.52439">
        <ele>77</ele>
        <time>2010-01-01T07:21:29Z</time>
      </trkpt>
      <trkpt lat="43.27143" lon="2.52456">
        <ele>77</ele>
        <time>2010-01-01T07:21:36Z</time>
      </trkpt>
      <trkpt lat="43.27031" lon="2.52515">
        <ele>76</ele>
        <time>2010-01-01T07:22:24Z</time>
      </trkpt>
      <trkpt lat="43.26965" lon="2.5255">
        <ele>75</ele>
        <time>2010-01-01T07:22:52Z</time>
      </trkpt>
      <trkpt lat="43.26904" lon="2.5258">
        <ele>74</ele>
        <time>2010-01-01T07:23:18Z</time>
      </trkpt>
      <trkpt lat="43.26786" lon="2.52596">
        <ele>72</ele>
        <time>2010-01-01T07:24:05Z</time>
      </trkpt>
      <trkpt lat="43.26772" lon="2.52622">
        <ele>72</ele>
        <time>2010-01-01T07:24:15Z</time>
      </trkpt>
      <trkpt lat="43.26683" lon="2.52969">
        <ele>69</ele>
        <time>2010-01-01T07:26:02Z</time>
      </trkpt>
      <trkpt lat="43.26645" lon="2.53118">
        <ele>69</ele>
        <time>2010-01-01T07:26:48Z</time>
      </trkpt>
      <trkpt lat="43.26643" lon="2.53129">
        <ele>70</ele>
        <time>2010-01-01T07:26:51Z</time>
      </trkpt>
      <trkpt lat="43.26619" lon="2.53222">
        <ele>71</ele>
        <time>2010-01-01T07:27:20Z</time>
      </trkpt>
      <trkpt lat="43.26518" lon="2.53627">
        <ele>67</ele>
        <time>2010-01-01T07:29:25Z</time>
      </trkpt>
      <trkpt lat="43.26493" lon="2.53727">
        <ele>67</ele>
        <time>2010-01-01T07:29:56Z</time>
      </trkpt>
      <trkpt lat="43.26429" lon="2.53968">
        <ele>66</ele>
        <time>2010-01-01T07:31:10Z</time>
      </trkpt>
      <trkpt lat="43.26362" lon="2.5422">
        <ele>67</ele>
        <time>2010-01-01T07:32:29Z</time>
      </trkpt>
      <trkpt lat="43.26357" lon="2.54239">
        <ele>67</ele>
        <time>2010-01-01T07:32:35Z</time>
      </trkpt>
      <trkpt lat="43.2618" lon="2.54917">
        <ele>74</ele>
        <time>2010-01-01T07:36:04Z</time>
      </trkpt>
      <trkpt lat="43.26159" lon="2.54996">
        <ele>74</ele>
        <time>2010-01-01T07:36:29Z</time>
      </trkpt>
      <trkpt lat="43.2615" lon="2.55034">
        <ele>74</ele>
        <time>2010-01-01T07:36:41Z</time>
      </trkpt>
      <trkpt lat="43.26136" lon="2.55091">
        <ele>74</ele>
        <time>2010-01-01T07:36:58Z</time>
      </trkpt>
      <trkpt lat="43.26118" lon="2.5519">
        <ele>73</ele>
        <time>2010-01-01T07:37:28Z</time>
      </trkpt>
      <trkpt lat="43.26117" lon="2.55197">
        <ele>73</ele>
        <time>2010-01-01T07:37:30Z</time>
      </trkpt>
      <trkpt lat="43.26088" lon="2.55395">
        <ele>70</ele>
        <time>2010-01-01T07:38:29Z</time>
      </trkpt>
      <trkpt lat="43.26039" lon="2.55737">
        <ele>64</ele>
        <time>2010-01-01T07:40:11Z</time>
      </trkpt>
      <trkpt lat="43.25978" lon="2.56178">
        <ele>62</ele>
        <time>2010-01-01T07:42:21Z</time>
      </trkpt>
      <trkpt lat="43.25928" lon="2.5652">
        <ele>58</ele>
        <time>2010-01-01T07:44:03Z</time>
      </trkpt>
      <trkpt lat="43.25928" lon="2.56568">
        <ele>58</ele>
        <time>2010-01-01T07:44:17Z</time>
      </trkpt>
      <trkpt lat="43.25949" lon="2.56733">
        <ele>60</ele>
        <time>2010-01-01T07:45:06Z</time>
      </trkpt>
      <trkpt lat="43.25956" lon="2.56784">
        <ele>60</ele>
        <time>2010-01-01T07:45:21Z</time>
      </trkpt>
      <trkpt lat="43.26009" lon="2.57213">
        <ele>60</ele>
        <time>2010-01-01T07:47:28Z</time>
      </trkpt>
      <trkpt lat="43.26022" lon="2.57334">
        <ele>61</ele>
        <time>2010-01-01T07:48:04Z</time>
      </trkpt>
      <trkpt lat="43.26067" lon="2.57661">
        <ele>64</ele>
        <time>2010-01-01T07:49:41Z</time>
      </trkpt>
      <trkpt lat="43.26122" lon="2.58083">
        <ele>60</ele>
        <time>2010-01-01T07:51:46Z</time>
      </trkpt>
      <trkpt lat="43.26118" lon="2.58432">
        <ele>65</ele>
        <time>2010-01-01T07:53:27Z</time>
      </trkpt>
      <trkpt lat="43.26124" lon="2.58524">
        <ele>62</ele>
        <time>2010-01-01T07:53:54Z</time>
      </trkpt>
      <trkpt lat="43.26132" lon="2.58624">
        <ele>60</ele>
        <time>2010-01-01T07:54:24Z</time>
      </trkpt>
      <trkpt lat="43.26132" lon="2.58712">
        <ele>60</ele>
        <time>2010-01-01T07:54:49Z</time>
      </trkpt>
      <trkpt lat="43.26124" lon="2.58797">
        <ele>60</ele>
        <time>2010-01-01T07:55:14Z</time>
      </trkpt>
      <trkpt lat="43.26102" lon="2.58951">
        <ele>61</ele>
        <time>2010-01-01T07:56:00Z</time>
      </trkpt>
      <trkpt lat="43.26074" lon="2.59033">
        <ele>60</ele>
        <time>2010-01-01T07:56:26Z</time>
      </trkpt>
      <trkpt lat="43.25915" lon="2.59246">
        <ele>65</ele>
        <time>2010-01-01T07:57:55Z</time>
      </trkpt>
      <trkpt lat="43.25882" lon="2.59289">
        <ele>65</ele>
        <time>2010-01-01T07:58:13Z</time>
      </trkpt>
      <trkpt lat="43.25872" lon="2.593">
        <ele>65</ele>
        <time>2010-01-01T07:58:19Z</time>
      </trkpt>
      <trkpt lat="43.25853" lon="2.59317">
        <ele>65</ele>
        <time>2010-01-01T07:58:28Z</time>
      </trkpt>
      <trkpt lat="43.25835" lon="2.59326">
        <ele>64</ele>
        <time>2010-01-01T07:58:35Z</time>
      </trkpt>
      <trkpt lat="43.25608" lon="2.5942">
        <ele>59</ele>
        <time>2010-01-01T08:00:10Z</time>
      </trkpt>
      <trkpt lat="43.2508" lon="2.59638">
        <ele>60</ele>
        <time>2010-01-01T08:03:51Z</time>
      </trkpt>
      <trkpt lat="43.25105" lon="2.59794">
        <ele>60</ele>
        <time>2010-01-01T08:04:37Z</time>
      </trkpt>
      <trkpt lat="43.25151" lon="2.59882">
        <ele>60</ele>
        <time>2010-01-01T08:05:09Z</time>
      </trkpt>
      <trkpt lat="43.25198" lon="2.59972">
        <ele>62</ele>
        <time>2010-01-01T08:05:41Z</time>
      </trkpt>
      <trkpt lat="43.25174" lon="2.6004">
        <ele>62</ele>
        <time>2010-01-01T08:06:03Z</time>
      </trkpt>
      <trkpt lat="43.2514" lon="2.60142">
        <ele>63</ele>
        <time>2010-01-01T08:06:36Z</time>
      </trkpt>
      <trkpt lat="43.25079" lon="2.60272">
        <ele>64</ele>
        <time>2010-01-01T08:07:21Z</time>
      </trkpt>
      <trkpt lat="43.24947" lon="2.60433">
        <ele>68</ele>
        <time>2010-01-01T08:08:32Z</time>
      </trkpt>
      <trkpt lat="43.24905" lon="2.60469">
        <ele>68</ele>
        <time>2010-01-01T08:08:52Z</time>
      </trkpt>
      <trkpt lat="43.24863" lon="2.60555">
        <ele>70</ele>
        <time>2010-01-01T08:09:22Z</time>
      </trkpt>
      <trkpt lat="43.24796" lon="2.6064">
        <ele>69</ele>
        <time>2010-01-01T08:09:58Z</time>
      </trkpt>
      <trkpt lat="43.24732" lon="2.60706">
        <ele>72</ele>
        <time>2010-01-01T08:10:30Z</time>
      </trkpt>
      <trkpt lat="43.24653" lon="2.60764">
        <ele>72</ele>
        <time>2010-01-01T08:11:06Z</time>
      </trkpt>
      <trkpt lat="43.24649" lon="2.60765">
        <ele>72</ele>
        <time>2010-01-01T08:11:08Z</time>
      </trkpt>
      <trkpt lat="43.24581" lon="2.60789">
        <ele>71</ele>
        <time>2010-01-01T08:11:36Z</time>
      </trkpt>
      <trkpt lat="43.24483" lon="2.60821">
        <ele>70</ele>
        <time>2010-01-01T08:12:16Z</time>
      </trkpt>
      <trkpt lat="43.24382" lon="2.60854">
        <ele>69</ele>
        <time>2010-01-01T08:12:58Z</time>
      </trkpt>
      <trkpt lat="43.24267" lon="2.60909">
        <ele>68</ele>
        <time>2010-01-01T08:13:47Z</time>
      </trkpt>
      <trkpt lat="43.2415" lon="2.609">
        <ele>65</ele>
        <time>2010-01-01T08:14:34Z</time>
      </trkpt>
      <trkpt lat="43.24102" lon="2.60913">
        <ele>65</ele>
        <time>2010-01-01T08:14:53Z</time>
      </trkpt>
      <trkpt lat="43.24077" lon="2.6092">
        <ele>64</ele>
        <time>2010-01-01T08:15:03Z</time>
      </trkpt>
      <trkpt lat="43.24032" lon="2.60924">
        <ele>64</ele>
        <time>2010-01-01T08:15:21Z</time>
      </trkpt>
      <trkpt lat="43.23993" lon="2.60951">
        <ele>63</ele>
        <time>2010-01-01T08:15:39Z</time>
      </trkpt>
      <trkpt lat="43.23958" lon="2.6098">
        <ele>63</ele>
        <time>2010-01-01T08:15:55Z</time>
      </trkpt>
      <trkpt lat="43.23888" lon="2.61069">
        <ele>62</ele>
        <time>2010-01-01T08:16:33Z</time>
      </trkpt>
      <trkpt lat="43.238" lon="2.61134">
        <ele>62</ele>
        <time>2010-01-01T08:17:13Z</time>
      </trkpt>
      <trkpt lat="43.23772" lon="2.61157">
        <ele>61</ele>
        <time>2010-01-01T08:17:27Z</time>
      </trkpt>
      <trkpt lat="43.23751" lon="2.6118">
        <ele>62</ele>
        <time>2010-01-01T08:17:37Z</time>
      </trkpt>
      <trkpt lat="43.23663" lon="2.61258">
        <ele>62</ele>
        <time>2010-01-01T08:18:19Z</time>
      </trkpt>
      <trkpt lat="43.23574" lon="2.61405">
        <ele>60</ele>
        <time>2010-01-01T08:19:15Z</time>
      </trkpt>
      <trkpt lat="43.2348" lon="2.61455">
        <ele>59</ele>
        <time>2010-01-01T08:19:55Z</time>
      </trkpt>
      <trkpt lat="43.23439" lon="2.61492">
        <ele>59</ele>
        <time>2010-01-01T08:20:15Z</time>
      </trkpt>
      <trkpt lat="43.23339" lon="2.61684">
        <ele>62</ele>
        <time>2010-01-01T08:21:24Z</time>
      </trkpt>
      <trkpt lat="43.23266" lon="2.61882">
        <ele>63</ele>
        <time>2010-01-01T08:22:29Z</time>
      </trkpt>
      <trkpt lat="43.23246" lon="2.61903">
        <ele>60</ele>
        <time>2010-01-01T08:22:39Z</time>
      </trkpt>
      <trkpt lat="43.23189" lon="2.62002">
        <ele>60</ele>
        <time>2010-01-01T08:23:15Z</time>
      </trkpt>
      <trkpt lat="43.23164" lon="2.62155">
        <ele>57</ele>
        <time>2010-01-01T08:24:01Z</time>
      </trkpt>
      <trkpt lat="43.23165" lon="2.62189">
        <ele>57</ele>
        <time>2010-01-01T08:24:11Z</time>
      </trkpt>
      <trkpt lat="43.23159" lon="2.62189">
        <ele>57</ele>
        <time>2010-01-01T08:24:13Z</time>
      </trkpt>
      <trkpt lat="43.23141" lon="2.6219">
        <ele>57</ele>
        <time>2010-01-01T08:24:21Z</time>
      </trkpt>
      <trkpt lat="43.23137" lon="2.62192">
        <ele>57</ele>
        <time>2010-01-01T08:24:22Z</time>
      </trkpt>
      <trkpt lat="43.23133" lon="2.62198">
        <ele>57</ele>
        <time>2010-01-01T08:24:25Z</time>
      </trkpt>
      <trkpt lat="43.23132" lon="2.62211">
        <ele>57</ele>
        <time>2010-01-01T08:24:29Z</time>
      </trkpt>
      <trkpt lat="43.2313" lon="2.62236">
        <ele>57</ele>
        <time>2010-01-01T08:24:36Z</time>
      </trkpt>
      <trkpt lat="43.23128" lon="2.62242">
        <ele>57</ele>
        <time>2010-01-01T08:24:38Z</time>
      </trkpt>
      <trkpt lat="43.23124" lon="2.62247">
        <ele>57</ele>
        <time>2010-01-01T08:24:40Z</time>
      </trkpt>
      <trkpt lat="43.22984" lon="2.62267">
        <ele>54</ele>
        <time>2010-01-01T08:25:36Z</time>
      </trkpt>
      <trkpt lat="43.22855" lon="2.62241">
        <ele>54</ele>
        <time>2010-01-01T08:26:29Z</time>
      </trkpt>
      <trkpt lat="43.2261" lon="2.62241">
        <ele>53</ele>
        <time>2010-01-01T08:28:07Z</time>
      </trkpt>
      <trkpt lat="43.22524" lon="2.62247">
        <ele>54</ele>
        <time>2010-01-01T08:28:41Z</time>
      </trkpt>
      <trkpt lat="43.22495" lon="2.62257">
        <ele>55</ele>
        <time>2010-01-01T08:28:53Z</time>
      </trkpt>
      <trkpt lat="43.22485" lon="2.62255">
        <ele>56</ele>
        <time>2010-01-01T08:28:57Z</time>
      </trkpt>
      <trkpt lat="43.22472" lon="2.62255">
        <ele>56</ele>
        <time>2010-01-01T08:29:02Z</time>
      </trkpt>
      <trkpt lat="43.22454" lon="2.6226">
        <ele>56</ele>
        <time>2010-01-01T08:29:10Z</time>
      </trkpt>
      <trkpt lat="43.22388" lon="2.62268">
        <ele>56</ele>
        <time>2010-01-01T08:29:36Z</time>
      </trkpt>
      <trkpt lat="43.22372" lon="2.62268">
        <ele>56</ele>
        <time>2010-01-01T08:29:43Z</time>
      </trkpt>
      <trkpt lat="43.22362" lon="2.62265">
        <ele>56</ele>
        <time>2010-01-01T08:29:47Z</time>
      </trkpt>
      <trkpt lat="43.22337" lon="2.62256">
        <ele>55</ele>
        <time>2010-01-01T08:29:57Z</time>
      </trkpt>
      <trkpt lat="43.22304" lon="2.62244">
        <ele>55</ele>
        <time>2010-01-01T08:30:11Z</time>
      </trkpt>
      <trkpt lat="43.22292" lon="2.62247">
        <ele>55</ele>
        <time>2010-01-01T08:30:16Z</time>
      </trkpt>
      <trkpt lat="43.22293" lon="2.62255">
        <ele>56</ele>
        <time>2010-01-01T08:30:18Z</time>
      </trkpt>
      <trkpt lat="43.22296" lon="2.62268">
        <ele>56</ele>
        <time>2010-01-01T08:30:22Z</time>
      </trkpt>
      <trkpt lat="43.223" lon="2.62289">
        <ele>56</ele>
        <time>2010-01-01T08:30:28Z</time>
      </trkpt>
      <trkpt lat="43.22302" lon="2.62303">
        <ele>57</ele>
        <time>2010-01-01T08:30:32Z</time>
      </trkpt>
      <trkpt lat="43.22303" lon="2.62377">
        <ele>58</ele>
        <time>2010-01-01T08:30:54Z</time>
      </trkpt>
      <trkpt lat="43.22302" lon="2.62412">
        <ele>58</ele>
        <time>2010-01-01T08:31:04Z</time>
      </trkpt>
      <trkpt lat="43.22302" lon="2.62435">
        <ele>58</ele>
        <time>2010-01-01T08:31:11Z</time>
      </trkpt>
      <trkpt lat="43.22292" lon="2.62443">
        <ele>58</ele>
        <time>2010-01-01T08:31:16Z</time>
      </trkpt>
      <trkpt lat="43.22272" lon="2.62486">
        <ele>58</ele>
        <time>2010-01-01T08:31:30Z</time>
      </trkpt>
      <trkpt lat="43.22262" lon="2.62508">
        <ele>57</ele>
        <time>2010-01-01T08:31:38Z</time>
      </trkpt>
      <trkpt lat="43.2226" lon="2.62514">
        <ele>57</ele>
        <time>2010-01-01T08:31:40Z</time>
      </trkpt>
      <trkpt lat="43.22221" lon="2.62601">
        <ele>56</ele>
        <time>2010-01-01T08:32:10Z</time>
      </trkpt>
      <trkpt lat="43.2221" lon="2.62625">
        <ele>56</ele>
        <time>2010-01-01T08:32:18Z</time>
      </trkpt>
      <trkpt lat="43.22197" lon="2.62653">
        <ele>55</ele>
        <time>2010-01-01T08:32:28Z</time>
      </trkpt>
      <trkpt lat="43.22147" lon="2.62761">
        <ele>55</ele>
        <time>2010-01-01T08:33:05Z</time>
      </trkpt>
      <trkpt lat="43.22134" lon="2.62792">
        <ele>55</ele>
        <time>2010-01-01T08:33:15Z</time>
      </trkpt>
      <trkpt lat="43.22123" lon="2.62818">
        <ele>55</ele>
        <time>2010-01-01T08:33:24Z</time>
      </trkpt>
      <trkpt lat="43.22125" lon="2.62843">
        <ele>55</ele>
        <time>2010-01-01T08:33:32Z</time>
      </trkpt>
      <trkpt lat="43.22009" lon="2.64104">
        <ele>58</ele>
        <time>2010-01-01T08:39:42Z</time>
      </trkpt>
      <trkpt lat="43.21978" lon="2.64384">
        <ele>64</ele>
        <time>2010-01-01T08:41:05Z</time>
      </trkpt>
      <trkpt lat="43.21936" lon="2.6464">
        <ele>61</ele>
        <time>2010-01-01T08:42:21Z</time>
      </trkpt>
      <trkpt lat="43.21936" lon="2.6466">
        <ele>61</ele>
        <time>2010-01-01T08:42:27Z</time>
      </trkpt>
      <trkpt lat="43.21942" lon="2.64728">
        <ele>61</ele>
        <time>2010-01-01T08:42:47Z</time>
      </trkpt>
      <trkpt lat="43.21954" lon="2.64771">
        <ele>61</ele>
        <time>2010-01-01T08:43:01Z</time>
      </trkpt>
      <trkpt lat="43.2196" lon="2.64789">
        <ele>60</ele>
        <time>2010-01-01T08:43:06Z</time>
      </trkpt>
      <trkpt lat="43.21961" lon="2.64813">
        <ele>60</ele>
        <time>2010-01-01T08:43:13Z</time>
      </trkpt>
      <trkpt lat="43.21943" lon="2.64891">
        <ele>60</ele>
        <time>2010-01-01T08:43:37Z</time>
      </trkpt>
      <trkpt lat="43.21933" lon="2.6491">
        <ele>61</ele>
        <time>2010-01-01T08:43:44Z</time>
      </trkpt>
      <trkpt lat="43.21977" lon="2.64938">
        <ele>60</ele>
        <time>2010-01-01T08:44:04Z</time>
      </trkpt>
      <trkpt lat="43.21986" lon="2.64938">
        <ele>59</ele>
        <time>2010-01-01T08:44:07Z</time>
      </trkpt>
      <trkpt lat="43.22028" lon="2.64957">
        <ele>58</ele>
        <time>2010-01-01T08:44:25Z</time>
      </trkpt>
      <trkpt lat="43.22044" lon="2.6496">
        <ele>57</ele>
        <time>2010-01-01T08:44:31Z</time>
      </trkpt>
      <trkpt lat="43.22117" lon="2.64956">
        <ele>54</ele>
        <time>2010-01-01T08:45:01Z</time>
      </trkpt>
      <trkpt lat="43.22147" lon="2.64964">
        <ele>53</ele>
        <time>2010-01-01T08:45:13Z</time>
      </trkpt>
      <trkpt lat="43.22208" lon="2.65016">
        <ele>52</ele>
        <time>2010-01-01T08:45:42Z</time>
      </trkpt>
      <trkpt lat="43.22248" lon="2.65057">
        <ele>52</ele>
        <time>2010-01-01T08:46:02Z</time>
      </trkpt>
      <trkpt lat="43.22265" lon="2.65089">
        <ele>52</ele>
        <time>2010-01-01T08:46:13Z</time>
      </trkpt>
      <trkpt lat="43.22403" lon="2.65457">
        <ele>53</ele>
        <time>2010-01-01T08:48:14Z</time>
      </trkpt>
      <trkpt lat="43.22509" lon="2.65673">
        <ele>52</ele>
        <time>2010-01-01T08:49:30Z</time>
      </trkpt>
      <trkpt lat="43.22555" lon="2.65735">
        <ele>52</ele>
        <time>2010-01-01T08:49:56Z</time>
      </trkpt>
      <trkpt lat="43.2262" lon="2.65824">
        <ele>53</ele>
        <time>2010-01-01T08:50:32Z</time>
      </trkpt>
      <trkpt lat="43.22673" lon="2.65934">
        <ele>58</ele>
        <time>2010-01-01T08:51:11Z</time>
      </trkpt>
      <trkpt lat="43.22741" lon="2.66027">
        <ele>63</ele>
        <time>2010-01-01T08:51:49Z</time>
      </trkpt>
      <trkpt lat="43.22762" lon="2.66112">
        <ele>62</ele>
        <time>2010-01-01T08:52:15Z</time>
      </trkpt>
      <trkpt lat="43.22756" lon="2.66204">
        <ele>62</ele>
        <time>2010-01-01T08:52:42Z</time>
      </trkpt>
      <trkpt lat="43.22751" lon="2.66257">
        <ele>64</ele>
        <time>2010-01-01T08:52:58Z</time>
      </trkpt>
      <trkpt lat="43.22746" lon="2.66332">
        <ele>65</ele>
        <time>2010-01-01T08:53:20Z</time>
      </trkpt>
      <trkpt lat="43.22751" lon="2.66361">
        <ele>65</ele>
        <time>2010-01-01T08:53:29Z</time>
      </trkpt>
      <trkpt lat="43.22783" lon="2.6642">
        <ele>66</ele>
        <time>2010-01-01T08:53:50Z</time>
      </trkpt>
      <trkpt lat="43.22784" lon="2.6659">
        <ele>70</ele>
        <time>2010-01-01T08:54:40Z</time>
      </trkpt>
      <trkpt lat="43.22825" lon="2.6669">
        <ele>72</ele>
        <time>2010-01-01T08:55:13Z</time>
      </trkpt>
      <trkpt lat="43.22828" lon="2.66699">
        <ele>71</ele>
        <time>2010-01-01T08:55:16Z</time>
      </trkpt>
      <trkpt lat="43.22854" lon="2.66777">
        <ele>69</ele>
        <time>2010-01-01T08:55:41Z</time>
      </trkpt>
      <trkpt lat="43.22869" lon="2.66818">
        <ele>69</ele>
        <time>2010-01-01T08:55:54Z</time>
      </trkpt>
      <trkpt lat="43.22887" lon="2.66837">
        <ele>69</ele>
        <time>2010-01-01T08:56:04Z</time>
      </trkpt>
      <trkpt lat="43.22951" lon="2.66891">
        <ele>70</ele>
        <time>2010-01-01T08:56:34Z</time>
      </trkpt>
      <trkpt lat="43.2302" lon="2.66948">
        <ele>70</ele>
        <time>2010-01-01T08:57:06Z</time>
      </trkpt>
      <trkpt lat="43.23074" lon="2.66993">
        <ele>70</ele>
        <time>2010-01-01T08:57:31Z</time>
      </trkpt>
      <trkpt lat="43.23129" lon="2.67046">
        <ele>66</ele>
        <time>2010-01-01T08:57:58Z</time>
      </trkpt>
      <trkpt lat="43.23143" lon="2.67075">
        <ele>66</ele>
        <time>2010-01-01T08:58:08Z</time>
      </trkpt>
      <trkpt lat="43.23146" lon="2.67087">
        <ele>66</ele>
        <time>2010-01-01T08:58:12Z</time>
      </trkpt>
      <trkpt lat="43.23144" lon="2.6711">
        <ele>66</ele>
        <time>2010-01-01T08:58:19Z</time>
      </trkpt>
      <trkpt lat="43.23143" lon="2.67117">
        <ele>67</ele>
        <time>2010-01-01T08:58:21Z</time>
      </trkpt>
      <trkpt lat="43.23139" lon="2.67136">
        <ele>67</ele>
        <time>2010-01-01T08:58:26Z</time>
      </trkpt>
      <trkpt lat="43.2314" lon="2.67228">
        <ele>69</ele>
        <time>2010-01-01T08:58:53Z</time>
      </trkpt>
      <trkpt lat="43.23145" lon="2.67255">
        <ele>69</ele>
        <time>2010-01-01T08:59:01Z</time>
      </trkpt>
      <trkpt lat="43.23171" lon="2.67323">
        <ele>70</ele>
        <time>2010-01-01T08:59:24Z</time>
      </trkpt>
      <trkpt lat="43.23194" lon="2.67416">
        <ele>68</ele>
        <time>2010-01-01T08:59:52Z</time>
      </trkpt>
      <trkpt lat="43.23196" lon="2.67435">
        <ele>69</ele>
        <time>2010-01-01T08:59:58Z</time>
      </trkpt>
      <trkpt lat="43.23191" lon="2.67451">
        <ele>69</ele>
        <time>2010-01-01T09:00:03Z</time>
      </trkpt>
      <trkpt lat="43.23168" lon="2.67501">
        <ele>68</ele>
        <time>2010-01-01T09:00:20Z</time>
      </trkpt>
      <trkpt lat="43.23135" lon="2.67576">
        <ele>66</ele>
        <time>2010-01-01T09:00:46Z</time>
      </trkpt>
      <trkpt lat="43.23127" lon="2.67594">
        <ele>64</ele>
        <time>2010-01-01T09:00:52Z</time>
      </trkpt>
      <trkpt lat="43.23112" lon="2.67617">
        <ele>64</ele>
        <time>2010-01-01T09:01:01Z</time>
      </trkpt>
      <trkpt lat="43.23093" lon="2.67633">
        <ele>63</ele>
        <time>2010-01-01T09:01:10Z</time>
      </trkpt>
      <trkpt lat="43.23076" lon="2.67649">
        <ele>62</ele>
        <time>2010-01-01T09:01:18Z</time>
      </trkpt>
      <trkpt lat="43.23069" lon="2.67654">
        <ele>62</ele>
        <time>2010-01-01T09:01:21Z</time>
      </trkpt>
      <trkpt lat="43.23023" lon="2.67692">
        <ele>62</ele>
        <time>2010-01-01T09:01:43Z</time>
      </trkpt>
      <trkpt lat="43.22927" lon="2.67774">
        <ele>61</ele>
        <time>2010-01-01T09:02:28Z</time>
      </trkpt>
      <trkpt lat="43.22864" lon="2.6787">
        <ele>59</ele>
        <time>2010-01-01T09:03:06Z</time>
      </trkpt>
      <trkpt lat="43.22806" lon="2.67956">
        <ele>59</ele>
        <time>2010-01-01T09:03:40Z</time>
      </trkpt>
      <trkpt lat="43.22706" lon="2.6804">
        <ele>63</ele>
        <time>2010-01-01T09:04:27Z</time>
      </trkpt>
      <trkpt lat="43.227" lon="2.68051">
        <ele>63</ele>
        <time>2010-01-01T09:04:31Z</time>
      </trkpt>
      <trkpt lat="43.22688" lon="2.68071">
        <ele>64</ele>
        <time>2010-01-01T09:04:39Z</time>
      </trkpt>
      <trkpt lat="43.22644" lon="2.68201">
        <ele>64</ele>
        <time>2010-01-01T09:05:20Z</time>
      </trkpt>
      <trkpt lat="43.22602" lon="2.68304">
        <ele>64</ele>
        <time>2010-01-01T09:05:55Z</time>
      </trkpt>
      <trkpt lat="43.22587" lon="2.68339">
        <ele>64</ele>
        <time>2010-01-01T09:06:07Z</time>
      </trkpt>
      <trkpt lat="43.22569" lon="2.68384">
        <ele>64</ele>
        <time>2010-01-01T09:06:22Z</time>
      </trkpt>
      <trkpt lat="43.22551" lon="2.68521">
        <ele>60</ele>
        <time>2010-01-01T09:07:02Z</time>
      </trkpt>
      <trkpt lat="43.2251" lon="2.68693">
        <ele>62</ele>
        <time>2010-01-01T09:07:55Z</time>
      </trkpt>
      <trkpt lat="43.22507" lon="2.68708">
        <ele>62</ele>
        <time>2010-01-01T09:08:00Z</time>
      </trkpt>
      <trkpt lat="43.22469" lon="2.68952">
        <ele>62</ele>
        <time>2010-01-01T09:09:12Z</time>
      </trkpt>
      <trkpt lat="43.22432" lon="2.69178">
        <ele>64</ele>
        <time>2010-01-01T09:10:20Z</time>
      </trkpt>
      <trkpt lat="43.22425" lon="2.69277">
        <ele>65</ele>
        <time>2010-01-01T09:10:49Z</time>
      </trkpt>
      <trkpt lat="43.22425" lon="2.69286">
        <ele>66</ele>
        <time>2010-01-01T09:10:52Z</time>
      </trkpt>
      <trkpt lat="43.22426" lon="2.69304">
        <ele>66</ele>
        <time>2010-01-01T09:10:57Z</time>
      </trkpt>
      <trkpt lat="43.22441" lon="2.69343">
        <ele>69</ele>
        <time>2010-01-01T09:11:10Z</time>
      </trkpt>
      <trkpt lat="43.22461" lon="2.69398">
        <ele>68</ele>
        <time>2010-01-01T09:11:28Z</time>
      </trkpt>
      <trkpt lat="43.2247" lon="2.69463">
        <ele>71</ele>
        <time>2010-01-01T09:11:47Z</time>
      </trkpt>
      <trkpt lat="43.2247" lon="2.69486">
        <ele>71</ele>
        <time>2010-01-01T09:11:54Z</time>
      </trkpt>
      <trkpt lat="43.22472" lon="2.69603">
        <ele>73</ele>
        <time>2010-01-01T09:12:28Z</time>
      </trkpt>
      <trkpt lat="43.22471" lon="2.69608">
        <ele>73</ele>
        <time>2010-01-01T09:12:29Z</time>
      </trkpt>
      <trkpt lat="43.22471" lon="2.69617">
        <ele>73</ele>
        <time>2010-01-01T09:12:32Z</time>
      </trkpt>
      <trkpt lat="43.2247" lon="2.69632">
        <ele>74</ele>
        <time>2010-01-01T09:12:36Z</time>
      </trkpt>
      <trkpt lat="43.22472" lon="2.69646">
        <ele>74</ele>
        <time>2010-01-01T09:12:40Z</time>
      </trkpt>
      <trkpt lat="43.22492" lon="2.69734">
        <ele>72</ele>
        <time>2010-01-01T09:13:07Z</time>
      </trkpt>
      <trkpt lat="43.22508" lon="2.6976">
        <ele>70</ele>
        <time>2010-01-01T09:13:17Z</time>
      </trkpt>
      <trkpt lat="43.22527" lon="2.69868">
        <ele>66</ele>
        <time>2010-01-01T09:13:50Z</time>
      </trkpt>
      <trkpt lat="43.22622" lon="2.70244">
        <ele>63</ele>
        <time>2010-01-01T09:15:46Z</time>
      </trkpt>
      <trkpt lat="43.22693" lon="2.70522">
        <ele>61</ele>
        <time>2010-01-01T09:17:12Z</time>
      </trkpt>
      <trkpt lat="43.22698" lon="2.7054">
        <ele>61</ele>
        <time>2010-01-01T09:17:17Z</time>
      </trkpt>
      <trkpt lat="43.22706" lon="2.70573">
        <ele>61</ele>
        <time>2010-01-01T09:17:27Z</time>
      </trkpt>
      <trkpt lat="43.22809" lon="2.70819">
        <ele>62</ele>
        <time>2010-01-01T09:18:50Z</time>
      </trkpt>
      <trkpt lat="43.22881" lon="2.71041">
        <ele>60</ele>
        <time>2010-01-01T09:20:01Z</time>
      </trkpt>
      <trkpt lat="43.22883" lon="2.71061">
        <ele>60</ele>
        <time>2010-01-01T09:20:07Z</time>
      </trkpt>
      <trkpt lat="43.22882" lon="2.71086">
        <ele>60</ele>
        <time>2010-01-01T09:20:14Z</time>
      </trkpt>
      <trkpt lat="43.22879" lon="2.71246">
        <ele>61</ele>
        <time>2010-01-01T09:21:01Z</time>
      </trkpt>
      <trkpt lat="43.22856" lon="2.71423">
        <ele>57</ele>
        <time>2010-01-01T09:21:53Z</time>
      </trkpt>
      <trkpt lat="43.22872" lon="2.71587">
        <ele>56</ele>
        <time>2010-01-01T09:22:42Z</time>
      </trkpt>
      <trkpt lat="43.2289" lon="2.7168">
        <ele>57</ele>
        <time>2010-01-01T09:23:10Z</time>
      </trkpt>
      <trkpt lat="43.22918" lon="2.71764">
        <ele>59</ele>
        <time>2010-01-01T09:23:37Z</time>
      </trkpt>
      <trkpt lat="43.22937" lon="2.71915">
        <ele>59</ele>
        <time>2010-01-01T09:24:21Z</time>
      </trkpt>
      <trkpt lat="43.23026" lon="2.7266">
        <ele>56</ele>
        <time>2010-01-01T09:28:02Z</time>
      </trkpt>
      <trkpt lat="43.23018" lon="2.72863">
        <ele>53</ele>
        <time>2010-01-01T09:29:01Z</time>
      </trkpt>
      <trkpt lat="43.22991" lon="2.7299">
        <ele>52</ele>
        <time>2010-01-01T09:29:39Z</time>
      </trkpt>
      <trkpt lat="43.22988" lon="2.73048">
        <ele>52</ele>
        <time>2010-01-01T09:29:56Z</time>
      </trkpt>
      <trkpt lat="43.22988" lon="2.73171">
        <ele>52</ele>
        <time>2010-01-01T09:30:32Z</time>
      </trkpt>
      <trkpt lat="43.2299" lon="2.73305">
        <ele>52</ele>
        <time>2010-01-01T09:31:11Z</time>
      </trkpt>
      <trkpt lat="43.23044" lon="2.73635">
        <ele>59</ele>
        <time>2010-01-01T09:32:50Z</time>
      </trkpt>
      <trkpt lat="43.23048" lon="2.73658">
        <ele>59</ele>
        <time>2010-01-01T09:32:57Z</time>
      </trkpt>
      <trkpt lat="43.23086" lon="2.73866">
        <ele>58</ele>
        <time>2010-01-01T09:33:59Z</time>
      </trkpt>
      <trkpt lat="43.23106" lon="2.74258">
        <ele>52</ele>
        <time>2010-01-01T09:35:54Z</time>
      </trkpt>
      <trkpt lat="43.23139" lon="2.74416">
        <ele>50</ele>
        <time>2010-01-01T09:36:42Z</time>
      </trkpt>
      <trkpt lat="43.23156" lon="2.74496">
        <ele>51</ele>
        <time>2010-01-01T09:37:06Z</time>
      </trkpt>
      <trkpt lat="43.23163" lon="2.7453">
        <ele>49</ele>
        <time>2010-01-01T09:37:17Z</time>
      </trkpt>
      <trkpt lat="43.23255" lon="2.74789">
        <ele>50</ele>
        <time>2010-01-01T09:38:41Z</time>
      </trkpt>
      <trkpt lat="43.23363" lon="2.75093">
        <ele>48</ele>
        <time>2010-01-01T09:40:19Z</time>
      </trkpt>
      <trkpt lat="43.23365" lon="2.751">
        <ele>48</ele>
        <time>2010-01-01T09:40:21Z</time>
      </trkpt>
      <trkpt lat="43.23377" lon="2.75132">
        <ele>47</ele>
        <time>2010-01-01T09:40:32Z</time>
      </trkpt>
      <trkpt lat="43.23398" lon="2.75169">
        <ele>45</ele>
        <time>2010-01-01T09:40:46Z</time>
      </trkpt>
      <trkpt lat="43.23416" lon="2.75187">
        <ele>45</ele>
        <time>2010-01-01T09:40:55Z</time>
      </trkpt>
      <trkpt lat="43.23437" lon="2.75208">
        <ele>46</ele>
        <time>2010-01-01T09:41:05Z</time>
      </trkpt>
      <trkpt lat="43.23561" lon="2.75344">
        <ele>47</ele>
        <time>2010-01-01T09:42:08Z</time>
      </trkpt>
      <trkpt lat="43.2359" lon="2.75406">
        <ele>46</ele>
        <time>2010-01-01T09:42:30Z</time>
      </trkpt>
      <trkpt lat="43.23596" lon="2.75435">
        <ele>46</ele>
        <time>2010-01-01T09:42:39Z</time>
      </trkpt>
      <trkpt lat="43.23613" lon="2.75687">
        <ele>46</ele>
        <time>2010-01-01T09:43:53Z</time>
      </trkpt>
      <trkpt lat="43.2362" lon="2.75739">
        <ele>46</ele>
        <time>2010-01-01T09:44:08Z</time>
      </trkpt>
      <trkpt lat="43.23635" lon="2.75788">
        <ele>45</ele>
        <time>2010-01-01T09:44:23Z</time>
      </trkpt>
      <trkpt lat="43.23659" lon="2.75848">
        <ele>45</ele>
        <time>2010-01-01T09:44:43Z</time>
      </trkpt>
      <trkpt lat="43.23693" lon="2.75934">
        <ele>43</ele>
        <time>2010-01-01T09:45:12Z</time>
      </trkpt>
      <trkpt lat="43.23726" lon="2.76011">
        <ele>39</ele>
        <time>2010-01-01T09:45:38Z</time>
      </trkpt>
      <trkpt lat="43.2376" lon="2.76092">
        <ele>35</ele>
        <time>2010-01-01T09:46:05Z</time>
      </trkpt>
      <trkpt lat="43.23764" lon="2.76103">
        <ele>35</ele>
        <time>2010-01-01T09:46:09Z</time>
      </trkpt>
      <trkpt lat="43.23852" lon="2.76239">
        <ele>35</ele>
        <time>2010-01-01T09:47:02Z</time>
      </trkpt>
      <trkpt lat="43.23911" lon="2.76332">
        <ele>30</ele>
        <time>2010-01-01T09:47:38Z</time>
      </trkpt>
      <trkpt lat="43.23976" lon="2.76438">
        <ele>34</ele>
        <time>2010-01-01T09:48:18Z</time>
      </trkpt>
      <trkpt lat="43.23979" lon="2.76442">
        <ele>35</ele>
        <time>2010-01-01T09:48:20Z</time>
      </trkpt>
      <trkpt lat="43.23986" lon="2.76453">
        <ele>35</ele>
        <time>2010-01-01T09:48:24Z</time>
      </trkpt>
      <trkpt lat="43.23992" lon="2.76457">
        <ele>35</ele>
        <time>2010-01-01T09:48:27Z</time>
      </trkpt>
      <trkpt lat="43.24023" lon="2.76483">
        <ele>37</ele>
        <time>2010-01-01T09:48:41Z</time>
      </trkpt>
      <trkpt lat="43.24032" lon="2.76499">
        <ele>37</ele>
        <time>2010-01-01T09:48:47Z</time>
      </trkpt>
      <trkpt lat="43.24013" lon="2.76539">
        <ele>37</ele>
        <time>2010-01-01T09:49:01Z</time>
      </trkpt>
      <trkpt lat="43.24012" lon="2.76541">
        <ele>37</ele>
        <time>2010-01-01T09:49:02Z</time>
      </trkpt>
      <trkpt lat="43.24" lon="2.76559">
        <ele>37</ele>
        <time>2010-01-01T09:49:09Z</time>
      </trkpt>
      <trkpt lat="43.23992" lon="2.76576">
        <ele>36</ele>
        <time>2010-01-01T09:49:15Z</time>
      </trkpt>
      <trkpt lat="43.23989" lon="2.7659">
        <ele>36</ele>
        <time>2010-01-01T09:49:19Z</time>
      </trkpt>
      <trkpt lat="43.23989" lon="2.766">
        <ele>36</ele>
        <time>2010-01-01T09:49:22Z</time>
      </trkpt>
      <trkpt lat="43.2399" lon="2.76607">
        <ele>36</ele>
        <time>2010-01-01T09:49:24Z</time>
      </trkpt>
      <trkpt lat="43.23997" lon="2.76622">
        <ele>36</ele>
        <time>2010-01-01T09:49:29Z</time>
      </trkpt>
      <trkpt lat="43.24003" lon="2.76628">
        <ele>37</ele>
        <time>2010-01-01T09:49:32Z</time>
      </trkpt>
      <trkpt lat="43.24031" lon="2.76648">
        <ele>37</ele>
        <time>2010-01-01T09:49:45Z</time>
      </trkpt>
      <trkpt lat="43.24034" lon="2.7665">
        <ele>37</ele>
        <time>2010-01-01T09:49:46Z</time>
      </trkpt>
      <trkpt lat="43.24101" lon="2.76694">
        <ele>39</ele>
        <time>2010-01-01T09:50:16Z</time>
      </trkpt>
      <trkpt lat="43.24124" lon="2.76722">
        <ele>40</ele>
        <time>2010-01-01T09:50:28Z</time>
      </trkpt>
      <trkpt lat="43.2413" lon="2.76732">
        <ele>40</ele>
        <time>2010-01-01T09:50:32Z</time>
      </trkpt>
      <trkpt lat="43.24134" lon="2.76754">
        <ele>40</ele>
        <time>2010-01-01T09:50:39Z</time>
      </trkpt>
      <trkpt lat="43.24135" lon="2.76784">
        <ele>40</ele>
        <time>2010-01-01T09:50:48Z</time>
      </trkpt>
      <trkpt lat="43.24101" lon="2.76953">
        <ele>39</ele>
        <time>2010-01-01T09:51:39Z</time>
      </trkpt>
      <trkpt lat="43.24105" lon="2.77">
        <ele>39</ele>
        <time>2010-01-01T09:51:52Z</time>
      </trkpt>
      <trkpt lat="43.24106" lon="2.77006">
        <ele>39</ele>
        <time>2010-01-01T09:51:54Z</time>
      </trkpt>
      <trkpt lat="43.24111" lon="2.77069">
        <ele>38</ele>
        <time>2010-01-01T09:52:13Z</time>
      </trkpt>
      <trkpt lat="43.24076" lon="2.77327">
        <ele>37</ele>
        <time>2010-01-01T09:53:29Z</time>
      </trkpt>
      <trkpt lat="43.24074" lon="2.77366">
        <ele>37</ele>
        <time>2010-01-01T09:53:41Z</time>
      </trkpt>
      <trkpt lat="43.24093" lon="2.77467">
        <ele>39</ele>
        <time>2010-01-01T09:54:11Z</time>
      </trkpt>
      <trkpt lat="43.24121" lon="2.77581">
        <ele>39</ele>
        <time>2010-01-01T09:54:46Z</time>
      </trkpt>
      <trkpt lat="43.24135" lon="2.77627">
        <ele>38</ele>
        <time>2010-01-01T09:55:01Z</time>
      </trkpt>
      <trkpt lat="43.24157" lon="2.77683">
        <ele>39</ele>
        <time>2010-01-01T09:55:19Z</time>
      </trkpt>
      <trkpt lat="43.24203" lon="2.77833">
        <ele>39</ele>
        <time>2010-01-01T09:56:07Z</time>
      </trkpt>
      <trkpt lat="43.24233" lon="2.77929">
        <ele>39</ele>
        <time>2010-01-01T09:56:37Z</time>
      </trkpt>
      <trkpt lat="43.24261" lon="2.78089">
        <ele>41</ele>
        <time>2010-01-01T09:57:25Z</time>
      </trkpt>
      <trkpt lat="43.24328" lon="2.78294">
        <ele>40</ele>
        <time>2010-01-01T09:58:31Z</time>
      </trkpt>
      <trkpt lat="43.24361" lon="2.7847">
        <ele>39</ele>
        <time>2010-01-01T09:59:24Z</time>
      </trkpt>
      <trkpt lat="43.24369" lon="2.78508">
        <ele>38</ele>
        <time>2010-01-01T09:59:35Z</time>
      </trkpt>
      <trkpt lat="43.24385" lon="2.78545">
        <ele>38</ele>
        <time>2010-01-01T09:59:48Z</time>
      </trkpt>
      <trkpt lat="43.24404" lon="2.78608">
        <ele>38</ele>
        <time>2010-01-01T10:00:08Z</time>
      </trkpt>
      <trkpt lat="43.24405" lon="2.7867">
        <ele>39</ele>
        <time>2010-01-01T10:00:26Z</time>
      </trkpt>
      <trkpt lat="43.24458" lon="2.78798">
        <ele>39</ele>
        <time>2010-01-01T10:01:09Z</time>
      </trkpt>
      <trkpt lat="43.24486" lon="2.789">
        <ele>40</ele>
        <time>2010-01-01T10:01:40Z</time>
      </trkpt>
      <trkpt lat="43.2448" lon="2.78969">
        <ele>40</ele>
        <time>2010-01-01T10:02:01Z</time>
      </trkpt>
      <trkpt lat="43.24473" lon="2.79047">
        <ele>41</ele>
        <time>2010-01-01T10:02:24Z</time>
      </trkpt>
      <trkpt lat="43.24469" lon="2.79127">
        <ele>41</ele>
        <time>2010-01-01T10:02:47Z</time>
      </trkpt>
      <trkpt lat="43.24486" lon="2.79198">
        <ele>41</ele>
        <time>2010-01-01T10:03:09Z</time>
      </trkpt>
      <trkpt lat="43.24492" lon="2.79216">
        <ele>41</ele>
        <time>2010-01-01T10:03:15Z</time>
      </trkpt>
      <trkpt lat="43.24501" lon="2.79241">
        <ele>41</ele>
        <time>2010-01-01T10:03:23Z</time>
      </trkpt>
      <trkpt lat="43.24508" lon="2.79257">
        <ele>41</ele>
        <time>2010-01-01T10:03:28Z</time>
      </trkpt>
      <trkpt lat="43.24523" lon="2.79294">
        <ele>41</ele>
        <time>2010-01-01T10:03:40Z</time>
      </trkpt>
      <trkpt lat="43.24599" lon="2.7947">
        <ele>41</ele>
        <time>2010-01-01T10:04:40Z</time>
      </trkpt>
      <trkpt lat="43.24662" lon="2.79618">
        <ele>42</ele>
        <time>2010-01-01T10:05:30Z</time>
      </trkpt>
      <trkpt lat="43.24723" lon="2.79756">
        <ele>41</ele>
        <time>2010-01-01T10:06:17Z</time>
      </trkpt>
      <trkpt lat="43.24727" lon="2.79785">
        <ele>41</ele>
        <time>2010-01-01T10:06:26Z</time>
      </trkpt>
      <trkpt lat="43.24744" lon="2.79894">
        <ele>42</ele>
        <time>2010-01-01T10:06:58Z</time>
      </trkpt>
      <trkpt lat="43.24739" lon="2.79954">
        <ele>43</ele>
        <time>2010-01-01T10:07:16Z</time>
      </trkpt>
      <trkpt lat="43.24728" lon="2.7998">
        <ele>43</ele>
        <time>2010-01-01T10:07:25Z</time>
      </trkpt>
      <trkpt lat="43.24722" lon="2.79995">
        <ele>43</ele>
        <time>2010-01-01T10:07:30Z</time>
      </trkpt>
      <trkpt lat="43.24716" lon="2.80013">
        <ele>43</ele>
        <time>2010-01-01T10:07:35Z</time>
      </trkpt>
      <trkpt lat="43.24715" lon="2.80035">
        <ele>43</ele>
        <time>2010-01-01T10:07:42Z</time>
      </trkpt>
      <trkpt lat="43.24715" lon="2.80056">
        <ele>43</ele>
        <time>2010-01-01T10:07:48Z</time>
      </trkpt>
      <trkpt lat="43.24719" lon="2.8006">
        <ele>43</ele>
        <time>2010-01-01T10:07:50Z</time>
      </trkpt>
      <trkpt lat="43.24721" lon="2.8006">
        <ele>43</ele>
        <time>2010-01-01T10:07:51Z</time>
      </trkpt>
      <trkpt lat="43.24725" lon="2.80061">
        <ele>43</ele>
        <time>2010-01-01T10:07:52Z</time>
      </trkpt>
      <trkpt lat="43.24732" lon="2.80099">
        <ele>43</ele>
        <time>2010-01-01T10:08:04Z</time>
      </trkpt>
      <trkpt lat="43.24737" lon="2.80135">
        <ele>42</ele>
        <time>2010-01-01T10:08:15Z</time>
      </trkpt>
      <trkpt lat="43.24729" lon="2.80167">
        <ele>41</ele>
        <time>2010-01-01T10:08:24Z</time>
      </trkpt>
      <trkpt lat="43.24711" lon="2.80195">
        <ele>41</ele>
        <time>2010-01-01T10:08:35Z</time>
      </trkpt>
      <trkpt lat="43.24704" lon="2.80206">
        <ele>41</ele>
        <time>2010-01-01T10:08:40Z</time>
      </trkpt>
      <trkpt lat="43.24699" lon="2.80215">
        <ele>41</ele>
        <time>2010-01-01T10:08:43Z</time>
      </trkpt>
      <trkpt lat="43.24683" lon="2.80256">
        <ele>40</ele>
        <time>2010-01-01T10:08:56Z</time>
      </trkpt>
      <trkpt lat="43.24666" lon="2.80297">
        <ele>37</ele>
        <time>2010-01-01T10:09:10Z</time>
      </trkpt>
      <trkpt lat="43.24662" lon="2.80311">
        <ele>37</ele>
        <time>2010-01-01T10:09:15Z</time>
      </trkpt>
      <trkpt lat="43.2465" lon="2.80339">
        <ele>35</ele>
        <time>2010-01-01T10:09:24Z</time>
      </trkpt>
      <trkpt lat="43.24646" lon="2.80343">
        <ele>35</ele>
        <time>2010-01-01T10:09:26Z</time>
      </trkpt>
      <trkpt lat="43.24661" lon="2.80359">
        <ele>35</ele>
        <time>2010-01-01T10:09:34Z</time>
      </trkpt>
      <trkpt lat="43.24697" lon="2.80383">
        <ele>36</ele>
        <time>2010-01-01T10:09:50Z</time>
      </trkpt>
      <trkpt lat="43.24701" lon="2.80387">
        <ele>36</ele>
        <time>2010-01-01T10:09:52Z</time>
      </trkpt>
      <trkpt lat="43.24719" lon="2.80409">
        <ele>37</ele>
        <time>2010-01-01T10:10:01Z</time>
      </trkpt>
      <trkpt lat="43.24738" lon="2.80439">
        <ele>36</ele>
        <time>2010-01-01T10:10:13Z</time>
      </trkpt>
      <trkpt lat="43.24746" lon="2.80452">
        <ele>35</ele>
        <time>2010-01-01T10:10:18Z</time>
      </trkpt>
      <trkpt lat="43.24782" lon="2.80505">
        <ele>35</ele>
        <time>2010-01-01T10:10:39Z</time>
      </trkpt>
      <trkpt lat="43.24833" lon="2.80588">
        <ele>35</ele>
        <time>2010-01-01T10:11:11Z</time>
      </trkpt>
      <trkpt lat="43.24858" lon="2.80627">
        <ele>35</ele>
        <time>2010-01-01T10:11:26Z</time>
      </trkpt>
      <trkpt lat="43.24895" lon="2.80684">
        <ele>36</ele>
        <time>2010-01-01T10:11:48Z</time>
      </trkpt>
      <trkpt lat="43.24987" lon="2.80827">
        <ele>36</ele>
        <time>2010-01-01T10:12:44Z</time>
      </trkpt>
      <trkpt lat="43.25082" lon="2.81167">
        <ele>35</ele>
        <time>2010-01-01T10:14:30Z</time>
      </trkpt>
      <trkpt lat="43.25081" lon="2.81201">
        <ele>34</ele>
        <time>2010-01-01T10:14:40Z</time>
      </trkpt>
      <trkpt lat="43.25057" lon="2.81295">
        <ele>32</ele>
        <time>2010-01-01T10:15:09Z</time>
      </trkpt>
      <trkpt lat="43.25058" lon="2.81402">
        <ele>31</ele>
        <time>2010-01-01T10:15:40Z</time>
      </trkpt>
      <trkpt lat="43.25078" lon="2.81531">
        <ele>31</ele>
        <time>2010-01-01T10:16:18Z</time>
      </trkpt>
      <trkpt lat="43.25118" lon="2.81658">
        <ele>34</ele>
        <time>2010-01-01T10:16:59Z</time>
      </trkpt>
      <trkpt lat="43.2513" lon="2.81728">
        <ele>34</ele>
        <time>2010-01-01T10:17:20Z</time>
      </trkpt>
      <trkpt lat="43.25057" lon="2.82256">
        <ele>32</ele>
        <time>2010-01-01T10:19:56Z</time>
      </trkpt>
      <trkpt lat="43.2504" lon="2.82361">
        <ele>33</ele>
        <time>2010-01-01T10:20:28Z</time>
      </trkpt>
      <trkpt lat="43.25036" lon="2.82402">
        <ele>33</ele>
        <time>2010-01-01T10:20:40Z</time>
      </trkpt>
      <trkpt lat="43.25035" lon="2.82469">
        <ele>35</ele>
        <time>2010-01-01T10:20:59Z</time>
      </trkpt>
      <trkpt lat="43.25033" lon="2.82485">
        <ele>35</ele>
        <time>2010-01-01T10:21:04Z</time>
      </trkpt>
      <trkpt lat="43.25026" lon="2.82518">
        <ele>37</ele>
        <time>2010-01-01T10:21:14Z</time>
      </trkpt>
      <trkpt lat="43.24887" lon="2.83026">
        <ele>36</ele>
        <time>2010-01-01T10:23:52Z</time>
      </trkpt>
      <trkpt lat="43.24877" lon="2.83068">
        <ele>36</ele>
        <time>2010-01-01T10:24:05Z</time>
      </trkpt>
      <trkpt lat="43.2487" lon="2.83099">
        <ele>37</ele>
        <time>2010-01-01T10:24:15Z</time>
      </trkpt>
      <trkpt lat="43.24863" lon="2.83167">
        <ele>36</ele>
        <time>2010-01-01T10:24:35Z</time>
      </trkpt>
      <trkpt lat="43.24862" lon="2.83194">
        <ele>36</ele>
        <time>2010-01-01T10:24:43Z</time>
      </trkpt>
      <trkpt lat="43.24862" lon="2.83211">
        <ele>37</ele>
        <time>2010-01-01T10:24:48Z</time>
      </trkpt>
      <trkpt lat="43.24863" lon="2.83324">
        <ele>36</ele>
        <time>2010-01-01T10:25:21Z</time>
      </trkpt>
      <trkpt lat="43.24862" lon="2.83362">
        <ele>36</ele>
        <time>2010-01-01T10:25:32Z</time>
      </trkpt>
      <trkpt lat="43.24862" lon="2.8337">
        <ele>36</ele>
        <time>2010-01-01T10:25:34Z</time>
      </trkpt>
      <trkpt lat="43.24862" lon="2.83406">
        <ele>35</ele>
        <time>2010-01-01T10:25:44Z</time>
      </trkpt>
      <trkpt lat="43.24863" lon="2.83445">
        <ele>34</ele>
        <time>2010-01-01T10:25:56Z</time>
      </trkpt>
      <trkpt lat="43.24866" lon="2.83488">
        <ele>34</ele>
        <time>2010-01-01T10:26:08Z</time>
      </trkpt>
      <trkpt lat="43.24869" lon="2.8352">
        <ele>33</ele>
        <time>2010-01-01T10:26:18Z</time>
      </trkpt>
      <trkpt lat="43.24874" lon="2.83602">
        <ele>33</ele>
        <time>2010-01-01T10:26:42Z</time>
      </trkpt>
      <trkpt lat="43.24872" lon="2.83632">
        <ele>33</ele>
        <time>2010-01-01T10:26:51Z</time>
      </trkpt>
      <trkpt lat="43.24867" lon="2.83714">
        <ele>33</ele>
        <time>2010-01-01T10:27:15Z</time>
      </trkpt>
      <trkpt lat="43.24859" lon="2.83876">
        <ele>32</ele>
        <time>2010-01-01T10:28:02Z</time>
      </trkpt>
      <trkpt lat="43.24857" lon="2.83926">
        <ele>32</ele>
        <time>2010-01-01T10:28:17Z</time>
      </trkpt>
      <trkpt lat="43.24849" lon="2.84119">
        <ele>26</ele>
        <time>2010-01-01T10:29:13Z</time>
      </trkpt>
      <trkpt lat="43.24848" lon="2.84164">
        <ele>25</ele>
        <time>2010-01-01T10:29:26Z</time>
      </trkpt>
      <trkpt lat="43.24848" lon="2.84168">
        <ele>25</ele>
        <time>2010-01-01T10:29:27Z</time>
      </trkpt>
      <trkpt lat="43.24846" lon="2.84185">
        <ele>26</ele>
        <time>2010-01-01T10:29:32Z</time>
      </trkpt>
      <trkpt lat="43.24742" lon="2.84437">
        <ele>25</ele>
        <time>2010-01-01T10:30:57Z</time>
      </trkpt>
      <trkpt lat="43.24689" lon="2.84705">
        <ele>27</ele>
        <time>2010-01-01T10:32:18Z</time>
      </trkpt>
      <trkpt lat="43.24689" lon="2.84719">
        <ele>27</ele>
        <time>2010-01-01T10:32:22Z</time>
      </trkpt>
      <trkpt lat="43.24691" lon="2.84741">
        <ele>27</ele>
        <time>2010-01-01T10:32:28Z</time>
      </trkpt>
      <trkpt lat="43.24704" lon="2.84805">
        <ele>29</ele>
        <time>2010-01-01T10:32:48Z</time>
      </trkpt>
      <trkpt lat="43.2476" lon="2.84944">
        <ele>34</ele>
        <time>2010-01-01T10:33:34Z</time>
      </trkpt>
      <trkpt lat="43.2478" lon="2.85051">
        <ele>34</ele>
        <time>2010-01-01T10:34:06Z</time>
      </trkpt>
      <trkpt lat="43.24774" lon="2.85401">
        <ele>35</ele>
        <time>2010-01-01T10:35:48Z</time>
      </trkpt>
      <trkpt lat="43.2473" lon="2.85668">
        <ele>36</ele>
        <time>2010-01-01T10:37:08Z</time>
      </trkpt>
      <trkpt lat="43.24721" lon="2.85809">
        <ele>37</ele>
        <time>2010-01-01T10:37:49Z</time>
      </trkpt>
      <trkpt lat="43.24704" lon="2.85874">
        <ele>37</ele>
        <time>2010-01-01T10:38:09Z</time>
      </trkpt>
      <trkpt lat="43.24701" lon="2.85902">
        <ele>36</ele>
        <time>2010-01-01T10:38:18Z</time>
      </trkpt>
      <trkpt lat="43.24699" lon="2.85942">
        <ele>37</ele>
        <time>2010-01-01T10:38:29Z</time>
      </trkpt>
      <trkpt lat="43.24697" lon="2.85962">
        <ele>37</ele>
        <time>2010-01-01T10:38:35Z</time>
      </trkpt>
      <trkpt lat="43.24696" lon="2.85971">
        <ele>37</ele>
        <time>2010-01-01T10:38:38Z</time>
      </trkpt>
      <trkpt lat="43.24694" lon="2.85993">
        <ele>36</ele>
        <time>2010-01-01T10:38:44Z</time>
      </trkpt>
      <trkpt lat="43.24688" lon="2.86042">
        <ele>39</ele>
        <time>2010-01-01T10:38:59Z</time>
      </trkpt>
      <trkpt lat="43.24687" lon="2.86062">
        <ele>40</ele>
        <time>2010-01-01T10:39:05Z</time>
      </trkpt>
      <trkpt lat="43.24651" lon="2.86351">
        <ele>35</ele>
        <time>2010-01-01T10:40:30Z</time>
      </trkpt>
      <trkpt lat="43.24653" lon="2.86422">
        <ele>37</ele>
        <time>2010-01-01T10:40:51Z</time>
      </trkpt>
      <trkpt lat="43.24665" lon="2.86583">
        <ele>36</ele>
        <time>2010-01-01T10:41:38Z</time>
      </trkpt>
      <trkpt lat="43.2467" lon="2.86632">
        <ele>35</ele>
        <time>2010-01-01T10:41:53Z</time>
      </trkpt>
      <trkpt lat="43.24679" lon="2.86693">
        <ele>33</ele>
        <time>2010-01-01T10:42:11Z</time>
      </trkpt>
      <trkpt lat="43.24692" lon="2.86732">
        <ele>32</ele>
        <time>2010-01-01T10:42:23Z</time>
      </trkpt>
      <trkpt lat="43.24718" lon="2.86775">
        <ele>32</ele>
        <time>2010-01-01T10:42:39Z</time>
      </trkpt>
      <trkpt lat="43.24758" lon="2.86823">
        <ele>34</ele>
        <time>2010-01-01T10:43:01Z</time>
      </trkpt>
      <trkpt lat="43.24771" lon="2.86844">
        <ele>33</ele>
        <time>2010-01-01T10:43:09Z</time>
      </trkpt>
      <trkpt lat="43.24783" lon="2.86872">
        <ele>33</ele>
        <time>2010-01-01T10:43:18Z</time>
      </trkpt>
      <trkpt lat="43.24788" lon="2.86912">
        <ele>33</ele>
        <time>2010-01-01T10:43:30Z</time>
      </trkpt>
      <trkpt lat="43.24792" lon="2.86984">
        <ele>32</ele>
        <time>2010-01-01T10:43:51Z</time>
      </trkpt>
      <trkpt lat="43.24799" lon="2.87029">
        <ele>32</ele>
        <time>2010-01-01T10:44:05Z</time>
      </trkpt>
      <trkpt lat="43.24805" lon="2.87086">
        <ele>32</ele>
        <time>2010-01-01T10:44:21Z</time>
      </trkpt>
      <trkpt lat="43.24791" lon="2.87233">
        <ele>31</ele>
        <time>2010-01-01T10:45:05Z</time>
      </trkpt>
      <trkpt lat="43.24787" lon="2.87293">
        <ele>31</ele>
        <time>2010-01-01T10:45:22Z</time>
      </trkpt>
      <trkpt lat="43.24787" lon="2.87314">
        <ele>31</ele>
        <time>2010-01-01T10:45:28Z</time>
      </trkpt>
      <trkpt lat="43.24789" lon="2.87341">
        <ele>32</ele>
        <time>2010-01-01T10:45:36Z</time>
      </trkpt>
      <trkpt lat="43.2479" lon="2.87379">
        <ele>32</ele>
        <time>2010-01-01T10:45:47Z</time>
      </trkpt>
      <trkpt lat="43.24767" lon="2.87521">
        <ele>30</ele>
        <time>2010-01-01T10:46:30Z</time>
      </trkpt>
      <trkpt lat="43.24754" lon="2.87576">
        <ele>30</ele>
        <time>2010-01-01T10:46:47Z</time>
      </trkpt>
      <trkpt lat="43.24658" lon="2.87835">
        <ele>28</ele>
        <time>2010-01-01T10:48:11Z</time>
      </trkpt>
      <trkpt lat="43.24526" lon="2.88363">
        <ele>25</ele>
        <time>2010-01-01T10:50:54Z</time>
      </trkpt>
      <trkpt lat="43.24513" lon="2.88412">
        <ele>25</ele>
        <time>2010-01-01T10:51:09Z</time>
      </trkpt>
      <trkpt lat="43.24501" lon="2.88439">
        <ele>24</ele>
        <time>2010-01-01T10:51:18Z</time>
      </trkpt>
      <trkpt lat="43.24472" lon="2.88485">
        <ele>22</ele>
        <time>2010-01-01T10:51:36Z</time>
      </trkpt>
      <trkpt lat="43.24463" lon="2.88511">
        <ele>22</ele>
        <time>2010-01-01T10:51:45Z</time>
      </trkpt>
      <trkpt lat="43.24458" lon="2.88547">
        <ele>22</ele>
        <time>2010-01-01T10:51:55Z</time>
      </trkpt>
      <trkpt lat="43.24456" lon="2.88581">
        <ele>22</ele>
        <time>2010-01-01T10:52:05Z</time>
      </trkpt>
      <trkpt lat="43.24457" lon="2.88631">
        <ele>23</ele>
        <time>2010-01-01T10:52:20Z</time>
      </trkpt>
      <trkpt lat="43.24467" lon="2.88739">
        <ele>23</ele>
        <time>2010-01-01T10:52:52Z</time>
      </trkpt>
      <trkpt lat="43.24456" lon="2.8893">
        <ele>24</ele>
        <time>2010-01-01T10:53:47Z</time>
      </trkpt>
      <trkpt lat="43.24455" lon="2.88972">
        <ele>24</ele>
        <time>2010-01-01T10:54:00Z</time>
      </trkpt>
      <trkpt lat="43.24456" lon="2.89008">
        <ele>24</ele>
        <time>2010-01-01T10:54:10Z</time>
      </trkpt>
      <trkpt lat="43.24465" lon="2.89165">
        <ele>24</ele>
        <time>2010-01-01T10:54:56Z</time>
      </trkpt>
      <trkpt lat="43.24468" lon="2.89196">
        <ele>24</ele>
        <time>2010-01-01T10:55:05Z</time>
      </trkpt>
      <trkpt lat="43.24473" lon="2.89236">
        <ele>24</ele>
        <time>2010-01-01T10:55:17Z</time>
      </trkpt>
      <trkpt lat="43.24478" lon="2.89249">
        <ele>23</ele>
        <time>2010-01-01T10:55:21Z</time>
      </trkpt>
      <trkpt lat="43.24489" lon="2.89282">
        <ele>24</ele>
        <time>2010-01-01T10:55:32Z</time>
      </trkpt>
      <trkpt lat="43.24495" lon="2.89318">
        <ele>23</ele>
        <time>2010-01-01T10:55:43Z</time>
      </trkpt>
      <trkpt lat="43.24497" lon="2.89337">
        <ele>23</ele>
        <time>2010-01-01T10:55:48Z</time>
      </trkpt>
      <trkpt lat="43.24497" lon="2.8935">
        <ele>24</ele>
        <time>2010-01-01T10:55:52Z</time>
      </trkpt>
      <trkpt lat="43.24495" lon="2.89362">
        <ele>25</ele>
        <time>2010-01-01T10:55:56Z</time>
      </trkpt>
      <trkpt lat="43.24491" lon="2.89377">
        <ele>25</ele>
        <time>2010-01-01T10:56:00Z</time>
      </trkpt>
      <trkpt lat="43.24486" lon="2.89382">
        <ele>26</ele>
        <time>2010-01-01T10:56:03Z</time>
      </trkpt>
      <trkpt lat="43.24476" lon="2.89395">
        <ele>26</ele>
        <time>2010-01-01T10:56:08Z</time>
      </trkpt>
      <trkpt lat="43.24462" lon="2.89409">
        <ele>26</ele>
        <time>2010-01-01T10:56:15Z</time>
      </trkpt>
      <trkpt lat="43.2446" lon="2.89416">
        <ele>26</ele>
        <time>2010-01-01T10:56:17Z</time>
      </trkpt>
      <trkpt lat="43.24458" lon="2.89424">
        <ele>27</ele>
        <time>2010-01-01T10:56:20Z</time>
      </trkpt>
      <trkpt lat="43.24456" lon="2.89435">
        <ele>27</ele>
        <time>2010-01-01T10:56:23Z</time>
      </trkpt>
      <trkpt lat="43.24455" lon="2.89446">
        <ele>27</ele>
        <time>2010-01-01T10:56:26Z</time>
      </trkpt>
      <trkpt lat="43.24454" lon="2.8945">
        <ele>27</ele>
        <time>2010-01-01T10:56:28Z</time>
      </trkpt>
      <trkpt lat="43.24452" lon="2.89455">
        <ele>27</ele>
        <time>2010-01-01T10:56:29Z</time>
      </trkpt>
      <trkpt lat="43.24437" lon="2.89498">
        <ele>27</ele>
        <time>2010-01-01T10:56:43Z</time>
      </trkpt>
      <trkpt lat="43.24424" lon="2.89535">
        <ele>27</ele>
        <time>2010-01-01T10:56:55Z</time>
      </trkpt>
      <trkpt lat="43.24417" lon="2.89558">
        <ele>27</ele>
        <time>2010-01-01T10:57:02Z</time>
      </trkpt>
      <trkpt lat="43.24414" lon="2.89573">
        <ele>26</ele>
        <time>2010-01-01T10:57:07Z</time>
      </trkpt>
      <trkpt lat="43.24412" lon="2.89589">
        <ele>27</ele>
        <time>2010-01-01T10:57:12Z</time>
      </trkpt>
      <trkpt lat="43.24412" lon="2.89604">
        <ele>27</ele>
        <time>2010-01-01T10:57:16Z</time>
      </trkpt>
      <trkpt lat="43.24412" lon="2.89642">
        <ele>27</ele>
        <time>2010-01-01T10:57:27Z</time>
      </trkpt>
      <trkpt lat="43.24413" lon="2.897">
        <ele>27</ele>
        <time>2010-01-01T10:57:44Z</time>
      </trkpt>
      <trkpt lat="43.24413" lon="2.89706">
        <ele>27</ele>
        <time>2010-01-01T10:57:46Z</time>
      </trkpt>
      <trkpt lat="43.24414" lon="2.89746">
        <ele>27</ele>
        <time>2010-01-01T10:57:58Z</time>
      </trkpt>
      <trkpt lat="43.24414" lon="2.89776">
        <ele>26</ele>
        <time>2010-01-01T10:58:06Z</time>
      </trkpt>
      <trkpt lat="43.24417" lon="2.89807">
        <ele>26</ele>
        <time>2010-01-01T10:58:15Z</time>
      </trkpt>
      <trkpt lat="43.2442" lon="2.89833">
        <ele>26</ele>
        <time>2010-01-01T10:58:23Z</time>
      </trkpt>
      <trkpt lat="43.24423" lon="2.89866">
        <ele>25</ele>
        <time>2010-01-01T10:58:33Z</time>
      </trkpt>
      <trkpt lat="43.24424" lon="2.89874">
        <ele>25</ele>
        <time>2010-01-01T10:58:35Z</time>
      </trkpt>
      <trkpt lat="43.24424" lon="2.8988">
        <ele>25</ele>
        <time>2010-01-01T10:58:37Z</time>
      </trkpt>
      <trkpt lat="43.24429" lon="2.89946">
        <ele>25</ele>
        <time>2010-01-01T10:58:56Z</time>
      </trkpt>
      <trkpt lat="43.24434" lon="2.90027">
        <ele>25</ele>
        <time>2010-01-01T10:59:20Z</time>
      </trkpt>
      <trkpt lat="43.24465" lon="2.90228">
        <ele>24</ele>
        <time>2010-01-01T11:00:20Z</time>
      </trkpt>
      <trkpt lat="43.24471" lon="2.90264">
        <ele>24</ele>
        <time>2010-01-01T11:00:31Z</time>
      </trkpt>
      <trkpt lat="43.24486" lon="2.90363">
        <ele>25</ele>
        <time>2010-01-01T11:01:00Z</time>
      </trkpt>
      <trkpt lat="43.24486" lon="2.90422">
        <ele>24</ele>
        <time>2010-01-01T11:01:17Z</time>
      </trkpt>
      <trkpt lat="43.24486" lon="2.90551">
        <ele>23</ele>
        <time>2010-01-01T11:01:55Z</time>
      </trkpt>
      <trkpt lat="43.24485" lon="2.90717">
        <ele>24</ele>
        <time>2010-01-01T11:02:43Z</time>
      </trkpt>
      <trkpt lat="43.24485" lon="2.90752">
        <ele>24</ele>
        <time>2010-01-01T11:02:54Z</time>
      </trkpt>
      <trkpt lat="43.24481" lon="2.90792">
        <ele>23</ele>
        <time>2010-01-01T11:03:05Z</time>
      </trkpt>
      <trkpt lat="43.24466" lon="2.90841">
        <ele>24</ele>
        <time>2010-01-01T11:03:21Z</time>
      </trkpt>
      <trkpt lat="43.2437" lon="2.91184">
        <ele>22</ele>
        <time>2010-01-01T11:05:08Z</time>
      </trkpt>
      <trkpt lat="43.24347" lon="2.9125">
        <ele>22</ele>
        <time>2010-01-01T11:05:29Z</time>
      </trkpt>
      <trkpt lat="43.24337" lon="2.9129">
        <ele>22</ele>
        <time>2010-01-01T11:05:42Z</time>
      </trkpt>
      <trkpt lat="43.24333" lon="2.91406">
        <ele>21</ele>
        <time>2010-01-01T11:06:16Z</time>
      </trkpt>
      <trkpt lat="43.24307" lon="2.9157">
        <ele>18</ele>
        <time>2010-01-01T11:07:04Z</time>
      </trkpt>
      <trkpt lat="43.24304" lon="2.9171">
        <ele>20</ele>
        <time>2010-01-01T11:07:45Z</time>
      </trkpt>
      <trkpt lat="43.24315" lon="2.9189">
        <ele>19</ele>
        <time>2010-01-01T11:08:38Z</time>
      </trkpt>
      <trkpt lat="43.24314" lon="2.91962">
        <ele>21</ele>
        <time>2010-01-01T11:08:59Z</time>
      </trkpt>
      <trkpt lat="43.24301" lon="2.9205">
        <ele>22</ele>
        <time>2010-01-01T11:09:25Z</time>
      </trkpt>
      <trkpt lat="43.24286" lon="2.92183">
        <ele>24</ele>
        <time>2010-01-01T11:10:04Z</time>
      </trkpt>
      <trkpt lat="43.24281" lon="2.92201">
        <ele>24</ele>
        <time>2010-01-01T11:10:10Z</time>
      </trkpt>
      <trkpt lat="43.24277" lon="2.92213">
        <ele>25</ele>
        <time>2010-01-01T11:10:14Z</time>
      </trkpt>
      <trkpt lat="43.2427" lon="2.92246">
        <ele>25</ele>
        <time>2010-01-01T11:10:24Z</time>
      </trkpt>
      <trkpt lat="43.24269" lon="2.92259">
        <ele>26</ele>
        <time>2010-01-01T11:10:28Z</time>
      </trkpt>
      <trkpt lat="43.24269" lon="2.92266">
        <ele>26</ele>
        <time>2010-01-01T11:10:30Z</time>
      </trkpt>
      <trkpt lat="43.24269" lon="2.92271">
        <ele>27</ele>
        <time>2010-01-01T11:10:31Z</time>
      </trkpt>
      <trkpt lat="43.24272" lon="2.92286">
        <ele>27</ele>
        <time>2010-01-01T11:10:36Z</time>
      </trkpt>
      <trkpt lat="43.24275" lon="2.92297">
        <ele>27</ele>
        <time>2010-01-01T11:10:39Z</time>
      </trkpt>
      <trkpt lat="43.24277" lon="2.92316">
        <ele>28</ele>
        <time>2010-01-01T11:10:45Z</time>
      </trkpt>
      <trkpt lat="43.24294" lon="2.92324">
        <ele>28</ele>
        <time>2010-01-01T11:10:52Z</time>
      </trkpt>
      <trkpt lat="43.2431" lon="2.92331">
        <ele>28</ele>
        <time>2010-01-01T11:10:59Z</time>
      </trkpt>
      <trkpt lat="43.24341" lon="2.92345">
        <ele>28</ele>
        <time>2010-01-01T11:11:12Z</time>
      </trkpt>
      <trkpt lat="43.24373" lon="2.92364">
        <ele>27</ele>
        <time>2010-01-01T11:11:26Z</time>
      </trkpt>
      <trkpt lat="43.24404" lon="2.92382">
        <ele>26</ele>
        <time>2010-01-01T11:11:39Z</time>
      </trkpt>
      <trkpt lat="43.24443" lon="2.92414">
        <ele>23</ele>
        <time>2010-01-01T11:11:57Z</time>
      </trkpt>
      <trkpt lat="43.24488" lon="2.9246">
        <ele>20</ele>
        <time>2010-01-01T11:12:20Z</time>
      </trkpt>
      <trkpt lat="43.24541" lon="2.92504">
        <ele>19</ele>
        <time>2010-01-01T11:12:45Z</time>
      </trkpt>
      <trkpt lat="43.24555" lon="2.92513">
        <ele>19</ele>
        <time>2010-01-01T11:12:51Z</time>
      </trkpt>
      <trkpt lat="43.24662" lon="2.92585">
        <ele>18</ele>
        <time>2010-01-01T11:13:38Z</time>
      </trkpt>
      <trkpt lat="43.24706" lon="2.92613">
        <ele>18</ele>
        <time>2010-01-01T11:13:58Z</time>
      </trkpt>
      <trkpt lat="43.24731" lon="2.92628">
        <ele>18</ele>
        <time>2010-01-01T11:14:09Z</time>
      </trkpt>
      <trkpt lat="43.24748" lon="2.92639">
        <ele>18</ele>
        <time>2010-01-01T11:14:16Z</time>
      </trkpt>
      <trkpt lat="43.24761" lon="2.92667">
        <ele>18</ele>
        <time>2010-01-01T11:14:26Z</time>
      </trkpt>
      <trkpt lat="43.24831" lon="2.9284">
        <ele>17</ele>
        <time>2010-01-01T11:15:24Z</time>
      </trkpt>
      <trkpt lat="43.24852" lon="2.92872">
        <ele>16</ele>
        <time>2010-01-01T11:15:36Z</time>
      </trkpt>
      <trkpt lat="43.24872" lon="2.92892">
        <ele>16</ele>
        <time>2010-01-01T11:15:46Z</time>
      </trkpt>
      <trkpt lat="43.24894" lon="2.92904">
        <ele>16</ele>
        <time>2010-01-01T11:15:56Z</time>
      </trkpt>
      <trkpt lat="43.24941" lon="2.92912">
        <ele>16</ele>
        <time>2010-01-01T11:16:15Z</time>
      </trkpt>
      <trkpt lat="43.25106" lon="2.9293">
        <ele>16</ele>
        <time>2010-01-01T11:17:21Z</time>
      </trkpt>
      <trkpt lat="43.25146" lon="2.9294">
        <ele>16</ele>
        <time>2010-01-01T11:17:37Z</time>
      </trkpt>
      <trkpt lat="43.25161" lon="2.92949">
        <ele>16</ele>
        <time>2010-01-01T11:17:44Z</time>
      </trkpt>
      <trkpt lat="43.25165" lon="2.92952">
        <ele>16</ele>
        <time>2010-01-01T11:17:46Z</time>
      </trkpt>
      <trkpt lat="43.25183" lon="2.9298">
        <ele>16</ele>
        <time>2010-01-01T11:17:56Z</time>
      </trkpt>
      <trkpt lat="43.2525" lon="2.93146">
        <ele>16</ele>
        <time>2010-01-01T11:18:52Z</time>
      </trkpt>
      <trkpt lat="43.25259" lon="2.93166">
        <ele>16</ele>
        <time>2010-01-01T11:18:59Z</time>
      </trkpt>
      <trkpt lat="43.25306" lon="2.93244">
        <ele>16</ele>
        <time>2010-01-01T11:19:28Z</time>
      </trkpt>
      <trkpt lat="43.25396" lon="2.93385">
        <ele>17</ele>
        <time>2010-01-01T11:20:23Z</time>
      </trkpt>
      <trkpt lat="43.254" lon="2.93391">
        <ele>17</ele>
        <time>2010-01-01T11:20:25Z</time>
      </trkpt>
      <trkpt lat="43.25542" lon="2.93612">
        <ele>15</ele>
        <time>2010-01-01T11:21:51Z</time>
      </trkpt>
      <trkpt lat="43.25591" lon="2.93691">
        <ele>16</ele>
        <time>2010-01-01T11:22:21Z</time>
      </trkpt>
      <trkpt lat="43.25623" lon="2.93756">
        <ele>16</ele>
        <time>2010-01-01T11:22:44Z</time>
      </trkpt>
      <trkpt lat="43.25625" lon="2.93765">
        <ele>17</ele>
        <time>2010-01-01T11:22:47Z</time>
      </trkpt>
      <trkpt lat="43.2564" lon="2.93798">
        <ele>17</ele>
        <time>2010-01-01T11:22:58Z</time>
      </trkpt>
      <trkpt lat="43.25672" lon="2.93873">
        <ele>18</ele>
        <time>2010-01-01T11:23:24Z</time>
      </trkpt>
      <trkpt lat="43.25701" lon="2.93997">
        <ele>17</ele>
        <time>2010-01-01T11:24:02Z</time>
      </trkpt>
      <trkpt lat="43.25711" lon="2.94106">
        <ele>17</ele>
        <time>2010-01-01T11:24:34Z</time>
      </trkpt>
      <trkpt lat="43.2571" lon="2.94136">
        <ele>17</ele>
        <time>2010-01-01T11:24:42Z</time>
      </trkpt>
      <trkpt lat="43.25709" lon="2.94217">
        <ele>17</ele>
        <time>2010-01-01T11:25:06Z</time>
      </trkpt>
      <trkpt lat="43.25707" lon="2.94259">
        <ele>18</ele>
        <time>2010-01-01T11:25:18Z</time>
      </trkpt>
      <trkpt lat="43.257" lon="2.94411">
        <ele>18</ele>
        <time>2010-01-01T11:26:03Z</time>
      </trkpt>
      <trkpt lat="43.25692" lon="2.94472">
        <ele>18</ele>
        <time>2010-01-01T11:26:21Z</time>
      </trkpt>
      <trkpt lat="43.25687" lon="2.94501">
        <ele>19</ele>
        <time>2010-01-01T11:26:29Z</time>
      </trkpt>
      <trkpt lat="43.2568" lon="2.94545">
        <ele>19</ele>
        <time>2010-01-01T11:26:43Z</time>
      </trkpt>
      <trkpt lat="43.25676" lon="2.94569">
        <ele>18</ele>
        <time>2010-01-01T11:26:50Z</time>
      </trkpt>
      <trkpt lat="43.25671" lon="2.946">
        <ele>19</ele>
        <time>2010-01-01T11:26:59Z</time>
      </trkpt>
      <trkpt lat="43.2565" lon="2.94724">
        <ele>21</ele>
        <time>2010-01-01T11:27:36Z</time>
      </trkpt>
      <trkpt lat="43.2566" lon="2.9473">
        <ele>21</ele>
        <time>2010-01-01T11:27:40Z</time>
      </trkpt>
      <trkpt lat="43.25673" lon="2.9474">
        <ele>21</ele>
        <time>2010-01-01T11:27:46Z</time>
      </trkpt>
      <trkpt lat="43.25686" lon="2.94754">
        <ele>21</ele>
        <time>2010-01-01T11:27:53Z</time>
      </trkpt>
      <trkpt lat="43.2571" lon="2.94771">
        <ele>21</ele>
        <time>2010-01-01T11:28:04Z</time>
      </trkpt>
      <trkpt lat="43.25734" lon="2.94777">
        <ele>21</ele>
        <time>2010-01-01T11:28:14Z</time>
      </trkpt>
      <trkpt lat="43.25734" lon="2.94821">
        <ele>21</ele>
        <time>2010-01-01T11:28:26Z</time>
      </trkpt>
      <trkpt lat="43.25733" lon="2.94868">
        <ele>21</ele>
        <time>2010-01-01T11:28:40Z</time>
      </trkpt>
      <trkpt lat="43.25732" lon="2.94884">
        <ele>22</ele>
        <time>2010-01-01T11:28:45Z</time>
      </trkpt>
      <trkpt lat="43.25722" lon="2.94923">
        <ele>22</ele>
        <time>2010-01-01T11:28:57Z</time>
      </trkpt>
      <trkpt lat="43.25706" lon="2.9496">
        <ele>22</ele>
        <time>2010-01-01T11:29:09Z</time>
      </trkpt>
      <trkpt lat="43.25693" lon="2.9497">
        <ele>22</ele>
        <time>2010-01-01T11:29:15Z</time>
      </trkpt>
      <trkpt lat="43.25694" lon="2.94976">
        <ele>22</ele>
        <time>2010-01-01T11:29:17Z</time>
      </trkpt>
      <trkpt lat="43.25696" lon="2.94983">
        <ele>22</ele>
        <time>2010-01-01T11:29:19Z</time>
      </trkpt>
      <trkpt lat="43.25703" lon="2.95003">
        <ele>21</ele>
        <time>2010-01-01T11:29:26Z</time>
      </trkpt>
      <trkpt lat="43.25704" lon="2.95009">
        <ele>21</ele>
        <time>2010-01-01T11:29:28Z</time>
      </trkpt>
      <trkpt lat="43.25704" lon="2.95013">
        <ele>20</ele>
        <time>2010-01-01T11:29:29Z</time>
      </trkpt>
      <trkpt lat="43.25718" lon="2.95014">
        <ele>20</ele>
        <time>2010-01-01T11:29:34Z</time>
      </trkpt>
      <trkpt lat="43.25787" lon="2.94968">
        <ele>21</ele>
        <time>2010-01-01T11:30:05Z</time>
      </trkpt>
      <trkpt lat="43.2581" lon="2.94949">
        <ele>21</ele>
        <time>2010-01-01T11:30:16Z</time>
      </trkpt>
      <trkpt lat="43.2583" lon="2.94931">
        <ele>21</ele>
        <time>2010-01-01T11:30:25Z</time>
      </trkpt>
      <trkpt lat="43.25849" lon="2.94912">
        <ele>21</ele>
        <time>2010-01-01T11:30:35Z</time>
      </trkpt>
      <trkpt lat="43.25913" lon="2.94843">
        <ele>22</ele>
        <time>2010-01-01T11:31:07Z</time>
      </trkpt>
      <trkpt lat="43.25936" lon="2.9482">
        <ele>22</ele>
        <time>2010-01-01T11:31:19Z</time>
      </trkpt>
      <trkpt lat="43.25948" lon="2.94816">
        <ele>22</ele>
        <time>2010-01-01T11:31:24Z</time>
      </trkpt>
      <trkpt lat="43.26072" lon="2.9481">
        <ele>20</ele>
        <time>2010-01-01T11:32:13Z</time>
      </trkpt>
      <trkpt lat="43.26111" lon="2.94809">
        <ele>20</ele>
        <time>2010-01-01T11:32:29Z</time>
      </trkpt>
      <trkpt lat="43.26144" lon="2.9481">
        <ele>20</ele>
        <time>2010-01-01T11:32:42Z</time>
      </trkpt>
      <trkpt lat="43.26152" lon="2.9481">
        <ele>20</ele>
        <time>2010-01-01T11:32:45Z</time>
      </trkpt>
      <trkpt lat="43.26186" lon="2.9481">
        <ele>19</ele>
        <time>2010-01-01T11:32:59Z</time>
      </trkpt>
      <trkpt lat="43.26236" lon="2.94813">
        <ele>20</ele>
        <time>2010-01-01T11:33:19Z</time>
      </trkpt>
      <trkpt lat="43.26253" lon="2.94814">
        <ele>19</ele>
        <time>2010-01-01T11:33:26Z</time>
      </trkpt>
      <trkpt lat="43.26299" lon="2.94818">
        <ele>19</ele>
        <time>2010-01-01T11:33:44Z</time>
      </trkpt>
      <trkpt lat="43.2631" lon="2.94819">
        <ele>19</ele>
        <time>2010-01-01T11:33:49Z</time>
      </trkpt>
      <trkpt lat="43.26337" lon="2.94821">
        <ele>19</ele>
        <time>2010-01-01T11:34:00Z</time>
      </trkpt>
      <trkpt lat="43.26387" lon="2.94817">
        <ele>19</ele>
        <time>2010-01-01T11:34:20Z</time>
      </trkpt>
      <trkpt lat="43.26448" lon="2.94806">
        <ele>18</ele>
        <time>2010-01-01T11:34:44Z</time>
      </trkpt>
      <trkpt lat="43.26522" lon="2.94806">
        <ele>18</ele>
        <time>2010-01-01T11:35:14Z</time>
      </trkpt>
      <trkpt lat="43.26592" lon="2.94826">
        <ele>18</ele>
        <time>2010-01-01T11:35:43Z</time>
      </trkpt>
      <trkpt lat="43.26625" lon="2.94846">
        <ele>18</ele>
        <time>2010-01-01T11:35:57Z</time>
      </trkpt>
      <trkpt lat="43.26738" lon="2.94914">
        <ele>19</ele>
        <time>2010-01-01T11:36:46Z</time>
      </trkpt>
      <trkpt lat="43.26824" lon="2.94975">
        <ele>21</ele>
        <time>2010-01-01T11:37:25Z</time>
      </trkpt>
      <trkpt lat="43.26854" lon="2.94993">
        <ele>21</ele>
        <time>2010-01-01T11:37:38Z</time>
      </trkpt>
      <trkpt lat="43.26915" lon="2.95016">
        <ele>22</ele>
        <time>2010-01-01T11:38:04Z</time>
      </trkpt>
      <trkpt lat="43.26934" lon="2.95025">
        <ele>22</ele>
        <time>2010-01-01T11:38:12Z</time>
      </trkpt>
      <trkpt lat="43.26954" lon="2.95038">
        <ele>23</ele>
        <time>2010-01-01T11:38:20Z</time>
      </trkpt>
      <trkpt lat="43.27012" lon="2.95085">
        <ele>25</ele>
        <time>2010-01-01T11:38:47Z</time>
      </trkpt>
      <trkpt lat="43.27067" lon="2.95138">
        <ele>26</ele>
        <time>2010-01-01T11:39:14Z</time>
      </trkpt>
      <trkpt lat="43.27217" lon="2.95275">
        <ele>28</ele>
        <time>2010-01-01T11:40:26Z</time>
      </trkpt>
      <trkpt lat="43.27275" lon="2.95307">
        <ele>28</ele>
        <time>2010-01-01T11:40:51Z</time>
      </trkpt>
      <trkpt lat="43.27401" lon="2.95363">
        <ele>30</ele>
        <time>2010-01-01T11:41:44Z</time>
      </trkpt>
      <trkpt lat="43.27483" lon="2.95447">
        <ele>32</ele>
        <time>2010-01-01T11:42:25Z</time>
      </trkpt>
      <trkpt lat="43.27614" lon="2.95601">
        <ele>36</ele>
        <time>2010-01-01T11:43:34Z</time>
      </trkpt>
      <trkpt lat="43.27882" lon="2.95796">
        <ele>30</ele>
        <time>2010-01-01T11:45:36Z</time>
      </trkpt>
      <trkpt lat="43.28006" lon="2.9586">
        <ele>28</ele>
        <time>2010-01-01T11:46:29Z</time>
      </trkpt>
      <trkpt lat="43.28113" lon="2.95981">
        <ele>30</ele>
        <time>2010-01-01T11:47:24Z</time>
      </trkpt>
      <trkpt lat="43.28144" lon="2.96016">
        <ele>32</ele>
        <time>2010-01-01T11:47:40Z</time>
      </trkpt>
      <trkpt lat="43.28223" lon="2.96168">
        <ele>35</ele>
        <time>2010-01-01T11:48:35Z</time>
      </trkpt>
      <trkpt lat="43.28329" lon="2.96271">
        <ele>34</ele>
        <time>2010-01-01T11:49:27Z</time>
      </trkpt>
      <trkpt lat="43.28375" lon="2.96295">
        <ele>32</ele>
        <time>2010-01-01T11:49:46Z</time>
      </trkpt>
      <trkpt lat="43.28423" lon="2.96314">
        <ele>30</ele>
        <time>2010-01-01T11:50:06Z</time>
      </trkpt>
      <trkpt lat="43.28483" lon="2.9634">
        <ele>26</ele>
        <time>2010-01-01T11:50:32Z</time>
      </trkpt>
      <trkpt lat="43.28593" lon="2.96431">
        <ele>26</ele>
        <time>2010-01-01T11:51:23Z</time>
      </trkpt>
      <trkpt lat="43.28642" lon="2.96486">
        <ele>27</ele>
        <time>2010-01-01T11:51:48Z</time>
      </trkpt>
      <trkpt lat="43.28654" lon="2.96506">
        <ele>27</ele>
        <time>2010-01-01T11:51:56Z</time>
      </trkpt>
      <trkpt lat="43.28662" lon="2.96524">
        <ele>26</ele>
        <time>2010-01-01T11:52:02Z</time>
      </trkpt>
      <trkpt lat="43.28674" lon="2.96579">
        <ele>28</ele>
        <time>2010-01-01T11:52:19Z</time>
      </trkpt>
      <trkpt lat="43.2868" lon="2.96617">
        <ele>29</ele>
        <time>2010-01-01T11:52:30Z</time>
      </trkpt>
      <trkpt lat="43.28695" lon="2.96757">
        <ele>30</ele>
        <time>2010-01-01T11:53:11Z</time>
      </trkpt>
      <trkpt lat="43.287" lon="2.96785">
        <ele>30</ele>
        <time>2010-01-01T11:53:20Z</time>
      </trkpt>
      <trkpt lat="43.28704" lon="2.96797">
        <ele>30</ele>
        <time>2010-01-01T11:53:24Z</time>
      </trkpt>
      <trkpt lat="43.28707" lon="2.96807">
        <ele>31</ele>
        <time>2010-01-01T11:53:27Z</time>
      </trkpt>
      <trkpt lat="43.28717" lon="2.96839">
        <ele>32</ele>
        <time>2010-01-01T11:53:37Z</time>
      </trkpt>
      <trkpt lat="43.28732" lon="2.9686">
        <ele>33</ele>
        <time>2010-01-01T11:53:46Z</time>
      </trkpt>
      <trkpt lat="43.28736" lon="2.96863">
        <ele>33</ele>
        <time>2010-01-01T11:53:47Z</time>
      </trkpt>
      <trkpt lat="43.28739" lon="2.96865">
        <ele>33</ele>
        <time>2010-01-01T11:53:49Z</time>
      </trkpt>
      <trkpt lat="43.28748" lon="2.9687">
        <ele>33</ele>
        <time>2010-01-01T11:53:53Z</time>
      </trkpt>
      <trkpt lat="43.28763" lon="2.96877">
        <ele>35</ele>
        <time>2010-01-01T11:53:59Z</time>
      </trkpt>
      <trkpt lat="43.28791" lon="2.96889">
        <ele>35</ele>
        <time>2010-01-01T11:54:11Z</time>
      </trkpt>
      <trkpt lat="43.288" lon="2.96893">
        <ele>35</ele>
        <time>2010-01-01T11:54:14Z</time>
      </trkpt>
      <trkpt lat="43.28804" lon="2.96898">
        <ele>35</ele>
        <time>2010-01-01T11:54:17Z</time>
      </trkpt>
      <trkpt lat="43.28813" lon="2.96911">
        <ele>35</ele>
        <time>2010-01-01T11:54:22Z</time>
      </trkpt>
      <trkpt lat="43.28824" lon="2.96926">
        <ele>36</ele>
        <time>2010-01-01T11:54:28Z</time>
      </trkpt>
      <trkpt lat="43.28848" lon="2.96959">
        <ele>36</ele>
        <time>2010-01-01T11:54:42Z</time>
      </trkpt>
      <trkpt lat="43.28852" lon="2.96984">
        <ele>36</ele>
        <time>2010-01-01T11:54:49Z</time>
      </trkpt>
      <trkpt lat="43.28859" lon="2.97024">
        <ele>39</ele>
        <time>2010-01-01T11:55:01Z</time>
      </trkpt>
      <trkpt lat="43.28859" lon="2.97027">
        <ele>39</ele>
        <time>2010-01-01T11:55:02Z</time>
      </trkpt>
      <trkpt lat="43.28857" lon="2.97077">
        <ele>41</ele>
        <time>2010-01-01T11:55:17Z</time>
      </trkpt>
      <trkpt lat="43.28859" lon="2.97099">
        <ele>43</ele>
        <time>2010-01-01T11:55:23Z</time>
      </trkpt>
      <trkpt lat="43.28862" lon="2.97109">
        <ele>43</ele>
        <time>2010-01-01T11:55:26Z</time>
      </trkpt>
      <trkpt lat="43.28864" lon="2.97116">
        <ele>43</ele>
        <time>2010-01-01T11:55:28Z</time>
      </trkpt>
      <trkpt lat="43.28873" lon="2.97175">
        <ele>42</ele>
        <time>2010-01-01T11:55:46Z</time>
      </trkpt>
      <trkpt lat="43.28876" lon="2.97186">
        <ele>42</ele>
        <time>2010-01-01T11:55:49Z</time>
      </trkpt>
      <trkpt lat="43.28874" lon="2.97186">
        <ele>42</ele>
        <time>2010-01-01T11:55:50Z</time>
      </trkpt>
      <trkpt lat="43.2887" lon="2.9719">
        <ele>42</ele>
        <time>2010-01-01T11:55:52Z</time>
      </trkpt>
      <trkpt lat="43.28868" lon="2.97193">
        <ele>42</ele>
        <time>2010-01-01T11:55:53Z</time>
      </trkpt>
      <trkpt lat="43.28868" lon="2.97197">
        <ele>42</ele>
        <time>2010-01-01T11:55:54Z</time>
      </trkpt>
      <trkpt lat="43.28868" lon="2.972">
        <ele>42</ele>
        <time>2010-01-01T11:55:55Z</time>
      </trkpt>
      <trkpt lat="43.28868" lon="2.97204">
        <ele>42</ele>
        <time>2010-01-01T11:55:57Z</time>
      </trkpt>
      <trkpt lat="43.2887" lon="2.97207">
        <ele>41</ele>
        <time>2010-01-01T11:55:58Z</time>
      </trkpt>
      <trkpt lat="43.28872" lon="2.9721">
        <ele>41</ele>
        <time>2010-01-01T11:55:59Z</time>
      </trkpt>
      <trkpt lat="43.28875" lon="2.97211">
        <ele>41</ele>
        <time>2010-01-01T11:56:00Z</time>
      </trkpt>
      <trkpt lat="43.28878" lon="2.97211">
        <ele>41</ele>
        <time>2010-01-01T11:56:01Z</time>
      </trkpt>
      <trkpt lat="43.28883" lon="2.97208">
        <ele>41</ele>
        <time>2010-01-01T11:56:03Z</time>
      </trkpt>
      <trkpt lat="43.28885" lon="2.97206">
        <ele>41</ele>
        <time>2010-01-01T11:56:04Z</time>
      </trkpt>
      <trkpt lat="43.28886" lon="2.97199">
        <ele>41</ele>
        <time>2010-01-01T11:56:07Z</time>
      </trkpt>
      <trkpt lat="43.28885" lon="2.97193">
        <ele>41</ele>
        <time>2010-01-01T11:56:08Z</time>
      </trkpt>
      <trkpt lat="43.28883" lon="2.97189">
        <ele>42</ele>
        <time>2010-01-01T11:56:10Z</time>
      </trkpt>
      <trkpt lat="43.28887" lon="2.9718">
        <ele>42</ele>
        <time>2010-01-01T11:56:13Z</time>
      </trkpt>
      <trkpt lat="43.28894" lon="2.97173">
        <ele>41</ele>
        <time>2010-01-01T11:56:16Z</time>
      </trkpt>
      <trkpt lat="43.28957" lon="2.97128">
        <ele>38</ele>
        <time>2010-01-01T11:56:45Z</time>
      </trkpt>
      <trkpt lat="43.28963" lon="2.97124">
        <ele>38</ele>
        <time>2010-01-01T11:56:47Z</time>
      </trkpt>
      <trkpt lat="43.29034" lon="2.97251">
        <ele>31</ele>
        <time>2010-01-01T11:57:34Z</time>
      </trkpt>
      <trkpt lat="43.29087" lon="2.97349">
        <ele>26</ele>
        <time>2010-01-01T11:58:10Z</time>
      </trkpt>
      <trkpt lat="43.2916" lon="2.9749">
        <ele>23</ele>
        <time>2010-01-01T11:59:00Z</time>
      </trkpt>
      <trkpt lat="43.29317" lon="2.97679">
        <ele>20</ele>
        <time>2010-01-01T12:00:24Z</time>
      </trkpt>
      <trkpt lat="43.29334" lon="2.97719">
        <ele>20</ele>
        <time>2010-01-01T12:00:37Z</time>
      </trkpt>
      <trkpt lat="43.29359" lon="2.97805">
        <ele>20</ele>
        <time>2010-01-01T12:01:04Z</time>
      </trkpt>
      <trkpt lat="43.29386" lon="2.97883">
        <ele>19</ele>
        <time>2010-01-01T12:01:29Z</time>
      </trkpt>
      <trkpt lat="43.29485" lon="2.98403">
        <ele>17</ele>
        <time>2010-01-01T12:04:06Z</time>
      </trkpt>
      <trkpt lat="43.29531" lon="2.9853">
        <ele>19</ele>
        <time>2010-01-01T12:04:47Z</time>
      </trkpt>
      <trkpt lat="43.29643" lon="2.98782">
        <ele>14</ele>
        <time>2010-01-01T12:06:13Z</time>
      </trkpt>
      <trkpt lat="43.29664" lon="2.98854">
        <ele>14</ele>
        <time>2010-01-01T12:06:36Z</time>
      </trkpt>
      <trkpt lat="43.29703" lon="2.98922">
        <ele>16</ele>
        <time>2010-01-01T12:07:01Z</time>
      </trkpt>
      <trkpt lat="43.2971" lon="2.98935">
        <ele>16</ele>
        <time>2010-01-01T12:07:06Z</time>
      </trkpt>
      <trkpt lat="43.29738" lon="2.98982">
        <ele>17</ele>
        <time>2010-01-01T12:07:23Z</time>
      </trkpt>
      <trkpt lat="43.29795" lon="2.99115">
        <ele>19</ele>
        <time>2010-01-01T12:08:08Z</time>
      </trkpt>
      <trkpt lat="43.29835" lon="2.99259">
        <ele>23</ele>
        <time>2010-01-01T12:08:53Z</time>
      </trkpt>
      <trkpt lat="43.29868" lon="2.99368">
        <ele>22</ele>
        <time>2010-01-01T12:09:28Z</time>
      </trkpt>
      <trkpt lat="43.29931" lon="2.99475">
        <ele>18</ele>
        <time>2010-01-01T12:10:08Z</time>
      </trkpt>
      <trkpt lat="43.30288" lon="3.00115">
        <ele>12</ele>
        <time>2010-01-01T12:14:03Z</time>
      </trkpt>
      <trkpt lat="43.30322" lon="3.00221">
        <ele>13</ele>
        <time>2010-01-01T12:14:36Z</time>
      </trkpt>
      <trkpt lat="43.30385" lon="3.00382">
        <ele>13</ele>
        <time>2010-01-01T12:15:30Z</time>
      </trkpt>
      <trkpt lat="43.30441" lon="3.0052">
        <ele>16</ele>
        <time>2010-01-01T12:16:16Z</time>
      </trkpt>
      <trkpt lat="43.30455" lon="3.00563">
        <ele>18</ele>
        <time>2010-01-01T12:16:29Z</time>
      </trkpt>
      <trkpt lat="43.30461" lon="3.00619">
        <ele>20</ele>
        <time>2010-01-01T12:16:46Z</time>
      </trkpt>
      <trkpt lat="43.30472" lon="3.00737">
        <ele>21</ele>
        <time>2010-01-01T12:17:21Z</time>
      </trkpt>
      <trkpt lat="43.30487" lon="3.01084">
        <ele>20</ele>
        <time>2010-01-01T12:19:02Z</time>
      </trkpt>
      <trkpt lat="43.30496" lon="3.01248">
        <ele>25</ele>
        <time>2010-01-01T12:19:50Z</time>
      </trkpt>
      <trkpt lat="43.30488" lon="3.01275">
        <ele>24</ele>
        <time>2010-01-01T12:19:58Z</time>
      </trkpt>
      <trkpt lat="43.30434" lon="3.01411">
        <ele>23</ele>
        <time>2010-01-01T12:20:43Z</time>
      </trkpt>
      <trkpt lat="43.30428" lon="3.01453">
        <ele>23</ele>
        <time>2010-01-01T12:20:56Z</time>
      </trkpt>
      <trkpt lat="43.30423" lon="3.0156">
        <ele>23</ele>
        <time>2010-01-01T12:21:27Z</time>
      </trkpt>
      <trkpt lat="43.30413" lon="3.01641">
        <ele>24</ele>
        <time>2010-01-01T12:21:51Z</time>
      </trkpt>
      <trkpt lat="43.3041" lon="3.01818">
        <ele>23</ele>
        <time>2010-01-01T12:22:43Z</time>
      </trkpt>
      <trkpt lat="43.30418" lon="3.01931">
        <ele>22</ele>
        <time>2010-01-01T12:23:16Z</time>
      </trkpt>
      <trkpt lat="43.30419" lon="3.01981">
        <ele>22</ele>
        <time>2010-01-01T12:23:30Z</time>
      </trkpt>
      <trkpt lat="43.30415" lon="3.02074">
        <ele>25</ele>
        <time>2010-01-01T12:23:57Z</time>
      </trkpt>
      <trkpt lat="43.30404" lon="3.02191">
        <ele>21</ele>
        <time>2010-01-01T12:24:32Z</time>
      </trkpt>
      <trkpt lat="43.30386" lon="3.02385">
        <ele>19</ele>
        <time>2010-01-01T12:25:29Z</time>
      </trkpt>
      <trkpt lat="43.30379" lon="3.02584">
        <ele>16</ele>
        <time>2010-01-01T12:26:27Z</time>
      </trkpt>
      <trkpt lat="43.30365" lon="3.02688">
        <ele>16</ele>
        <time>2010-01-01T12:26:58Z</time>
      </trkpt>
      <trkpt lat="43.3035" lon="3.02798">
        <ele>15</ele>
        <time>2010-01-01T12:27:30Z</time>
      </trkpt>
      <trkpt lat="43.30318" lon="3.03066">
        <ele>11</ele>
        <time>2010-01-01T12:28:49Z</time>
      </trkpt>
      <trkpt lat="43.30578" lon="3.0308">
        <ele>10</ele>
        <time>2010-01-01T12:30:33Z</time>
      </trkpt>
      <trkpt lat="43.30601" lon="3.03082">
        <ele>10</ele>
        <time>2010-01-01T12:30:43Z</time>
      </trkpt>
      <trkpt lat="43.30684" lon="3.03096">
        <ele>11</ele>
        <time>2010-01-01T12:31:16Z</time>
      </trkpt>
      <trkpt lat="43.30855" lon="3.03124">
        <ele>10</ele>
        <time>2010-01-01T12:32:25Z</time>
      </trkpt>
      <trkpt lat="43.30999" lon="3.03146">
        <ele>8</ele>
        <time>2010-01-01T12:33:23Z</time>
      </trkpt>
      <trkpt lat="43.313" lon="3.03194">
        <ele>9</ele>
        <time>2010-01-01T12:35:24Z</time>
      </trkpt>
      <trkpt lat="43.31303" lon="3.03195">
        <ele>9</ele>
        <time>2010-01-01T12:35:26Z</time>
      </trkpt>
      <trkpt lat="43.31448" lon="3.03219">
        <ele>7</ele>
        <time>2010-01-01T12:36:24Z</time>
      </trkpt>
      <trkpt lat="43.31494" lon="3.03228">
        <ele>7</ele>
        <time>2010-01-01T12:36:43Z</time>
      </trkpt>
      <trkpt lat="43.31538" lon="3.03245">
        <ele>7</ele>
        <time>2010-01-01T12:37:01Z</time>
      </trkpt>
      <trkpt lat="43.3156" lon="3.03255">
        <ele>7</ele>
        <time>2010-01-01T12:37:10Z</time>
      </trkpt>
      <trkpt lat="43.31966" lon="3.03458">
        <ele>7</ele>
        <time>2010-01-01T12:40:03Z</time>
      </trkpt>
      <trkpt lat="43.32511" lon="3.0373">
        <ele>10</ele>
        <time>2010-01-01T12:43:55Z</time>
      </trkpt>
      <trkpt lat="43.32552" lon="3.03751">
        <ele>11</ele>
        <time>2010-01-01T12:44:13Z</time>
      </trkpt>
      <trkpt lat="43.32565" lon="3.0376">
        <ele>11</ele>
        <time>2010-01-01T12:44:19Z</time>
      </trkpt>
      <trkpt lat="43.32581" lon="3.03775">
        <ele>11</ele>
        <time>2010-01-01T12:44:26Z</time>
      </trkpt>
      <trkpt lat="43.3271" lon="3.03914">
        <ele>15</ele>
        <time>2010-01-01T12:45:32Z</time>
      </trkpt>
      <trkpt lat="43.32719" lon="3.03923">
        <ele>15</ele>
        <time>2010-01-01T12:45:36Z</time>
      </trkpt>
      <trkpt lat="43.32764" lon="3.03971">
        <ele>17</ele>
        <time>2010-01-01T12:45:59Z</time>
      </trkpt>
      <trkpt lat="43.32812" lon="3.04025">
        <ele>18</ele>
        <time>2010-01-01T12:46:24Z</time>
      </trkpt>
      <trkpt lat="43.32862" lon="3.04078">
        <ele>22</ele>
        <time>2010-01-01T12:46:49Z</time>
      </trkpt>
      <trkpt lat="43.3287" lon="3.04088">
        <ele>24</ele>
        <time>2010-01-01T12:46:54Z</time>
      </trkpt>
      <trkpt lat="43.32918" lon="3.04138">
        <ele>30</ele>
        <time>2010-01-01T12:47:18Z</time>
      </trkpt>
      <trkpt lat="43.32963" lon="3.04186">
        <ele>31</ele>
        <time>2010-01-01T12:47:41Z</time>
      </trkpt>
      <trkpt lat="43.32965" lon="3.04189">
        <ele>31</ele>
        <time>2010-01-01T12:47:42Z</time>
      </trkpt>
      <trkpt lat="43.32997" lon="3.04223">
        <ele>31</ele>
        <time>2010-01-01T12:47:58Z</time>
      </trkpt>
      <trkpt lat="43.3301" lon="3.04229">
        <ele>34</ele>
        <time>2010-01-01T12:48:03Z</time>
      </trkpt>
      <trkpt lat="43.33018" lon="3.04229">
        <ele>34</ele>
        <time>2010-01-01T12:48:07Z</time>
      </trkpt>
      <trkpt lat="43.33023" lon="3.04224">
        <ele>34</ele>
        <time>2010-01-01T12:48:09Z</time>
      </trkpt>
      <trkpt lat="43.33064" lon="3.04188">
        <ele>36</ele>
        <time>2010-01-01T12:48:29Z</time>
      </trkpt>
      <trkpt lat="43.33071" lon="3.04182">
        <ele>36</ele>
        <time>2010-01-01T12:48:32Z</time>
      </trkpt>
      <trkpt lat="43.33096" lon="3.04162">
        <ele>37</ele>
        <time>2010-01-01T12:48:44Z</time>
      </trkpt>
      <trkpt lat="43.33098" lon="3.04161">
        <ele>37</ele>
        <time>2010-01-01T12:48:44Z</time>
      </trkpt>
      <trkpt lat="43.33103" lon="3.04157">
        <ele>37</ele>
        <time>2010-01-01T12:48:47Z</time>
      </trkpt>
      <trkpt lat="43.33105" lon="3.04163">
        <ele>37</ele>
        <time>2010-01-01T12:48:49Z</time>
      </trkpt>
      <trkpt lat="43.33108" lon="3.04171">
        <ele>37</ele>
        <time>2010-01-01T12:48:51Z</time>
      </trkpt>
      <trkpt lat="43.33123" lon="3.04214">
        <ele>38</ele>
        <time>2010-01-01T12:49:05Z</time>
      </trkpt>
      <trkpt lat="43.33136" lon="3.04249">
        <ele>37</ele>
        <time>2010-01-01T12:49:17Z</time>
      </trkpt>
      <trkpt lat="43.33161" lon="3.04314">
        <ele>36</ele>
        <time>2010-01-01T12:49:38Z</time>
      </trkpt>
      <trkpt lat="43.33176" lon="3.04369">
        <ele>36</ele>
        <time>2010-01-01T12:49:55Z</time>
      </trkpt>
      <trkpt lat="43.3318" lon="3.04405">
        <ele>35</ele>
        <time>2010-01-01T12:50:06Z</time>
      </trkpt>
      <trkpt lat="43.3318" lon="3.04436">
        <ele>36</ele>
        <time>2010-01-01T12:50:15Z</time>
      </trkpt>
      <trkpt lat="43.3318" lon="3.04477">
        <ele>37</ele>
        <time>2010-01-01T12:50:27Z</time>
      </trkpt>
      <trkpt lat="43.33172" lon="3.04508">
        <ele>38</ele>
        <time>2010-01-01T12:50:36Z</time>
      </trkpt>
      <trkpt lat="43.33164" lon="3.04527">
        <ele>38</ele>
        <time>2010-01-01T12:50:43Z</time>
      </trkpt>
      <trkpt lat="43.33135" lon="3.04612">
        <ele>40</ele>
        <time>2010-01-01T12:51:10Z</time>
      </trkpt>
      <trkpt lat="43.33134" lon="3.04616">
        <ele>40</ele>
        <time>2010-01-01T12:51:11Z</time>
      </trkpt>
      <trkpt lat="43.33132" lon="3.0462">
        <ele>40</ele>
        <time>2010-01-01T12:51:13Z</time>
      </trkpt>
      <trkpt lat="43.33107" lon="3.04703">
        <ele>41</ele>
        <time>2010-01-01T12:51:39Z</time>
      </trkpt>
      <trkpt lat="43.331" lon="3.0473">
        <ele>41</ele>
        <time>2010-01-01T12:51:47Z</time>
      </trkpt>
      <trkpt lat="43.33084" lon="3.04833">
        <ele>40</ele>
        <time>2010-01-01T12:52:18Z</time>
      </trkpt>
      <trkpt lat="43.33082" lon="3.04847">
        <ele>39</ele>
        <time>2010-01-01T12:52:22Z</time>
      </trkpt>
      <trkpt lat="43.33079" lon="3.04864">
        <ele>38</ele>
        <time>2010-01-01T12:52:27Z</time>
      </trkpt>
      <trkpt lat="43.33069" lon="3.04969">
        <ele>38</ele>
        <time>2010-01-01T12:52:58Z</time>
      </trkpt>
      <trkpt lat="43.33065" lon="3.04989">
        <ele>38</ele>
        <time>2010-01-01T12:53:04Z</time>
      </trkpt>
      <trkpt lat="43.33056" lon="3.05019">
        <ele>38</ele>
        <time>2010-01-01T12:53:13Z</time>
      </trkpt>
      <trkpt lat="43.33051" lon="3.05044">
        <ele>38</ele>
        <time>2010-01-01T12:53:21Z</time>
      </trkpt>
      <trkpt lat="43.33047" lon="3.05098">
        <ele>38</ele>
        <time>2010-01-01T12:53:37Z</time>
      </trkpt>
      <trkpt lat="43.3305" lon="3.0519">
        <ele>37</ele>
        <time>2010-01-01T12:54:03Z</time>
      </trkpt>
      <trkpt lat="43.33055" lon="3.05221">
        <ele>37</ele>
        <time>2010-01-01T12:54:13Z</time>
      </trkpt>
      <trkpt lat="43.33065" lon="3.05268">
        <ele>37</ele>
        <time>2010-01-01T12:54:27Z</time>
      </trkpt>
      <trkpt lat="43.33082" lon="3.05328">
        <ele>38</ele>
        <time>2010-01-01T12:54:46Z</time>
      </trkpt>
      <trkpt lat="43.33127" lon="3.05475">
        <ele>36</ele>
        <time>2010-01-01T12:55:32Z</time>
      </trkpt>
      <trkpt lat="43.33136" lon="3.05513">
        <ele>37</ele>
        <time>2010-01-01T12:55:44Z</time>
      </trkpt>
      <trkpt lat="43.3314" lon="3.05605">
        <ele>37</ele>
        <time>2010-01-01T12:56:11Z</time>
      </trkpt>
      <trkpt lat="43.33145" lon="3.0564">
        <ele>37</ele>
        <time>2010-01-01T12:56:21Z</time>
      </trkpt>
      <trkpt lat="43.33151" lon="3.05652">
        <ele>37</ele>
        <time>2010-01-01T12:56:25Z</time>
      </trkpt>
      <trkpt lat="43.33201" lon="3.05709">
        <ele>38</ele>
        <time>2010-01-01T12:56:51Z</time>
      </trkpt>
      <trkpt lat="43.33209" lon="3.0572">
        <ele>38</ele>
        <time>2010-01-01T12:56:56Z</time>
      </trkpt>
      <trkpt lat="43.33215" lon="3.05735">
        <ele>38</ele>
        <time>2010-01-01T12:57:01Z</time>
      </trkpt>
      <trkpt lat="43.33266" lon="3.05872">
        <ele>37</ele>
        <time>2010-01-01T12:57:46Z</time>
      </trkpt>
      <trkpt lat="43.3331" lon="3.05961">
        <ele>36</ele>
        <time>2010-01-01T12:58:17Z</time>
      </trkpt>
      <trkpt lat="43.33335" lon="3.06018">
        <ele>37</ele>
        <time>2010-01-01T12:58:36Z</time>
      </trkpt>
      <trkpt lat="43.33361" lon="3.06065">
        <ele>37</ele>
        <time>2010-01-01T12:58:54Z</time>
      </trkpt>
      <trkpt lat="43.3338" lon="3.06095">
        <ele>37</ele>
        <time>2010-01-01T12:59:05Z</time>
      </trkpt>
      <trkpt lat="43.33406" lon="3.06157">
        <ele>38</ele>
        <time>2010-01-01T12:59:26Z</time>
      </trkpt>
      <trkpt lat="43.33438" lon="3.06232">
        <ele>38</ele>
        <time>2010-01-01T12:59:51Z</time>
      </trkpt>
      <trkpt lat="43.33445" lon="3.06249">
        <ele>38</ele>
        <time>2010-01-01T12:59:57Z</time>
      </trkpt>
      <trkpt lat="43.3346" lon="3.06302">
        <ele>39</ele>
        <time>2010-01-01T13:00:13Z</time>
      </trkpt>
      <trkpt lat="43.33485" lon="3.0637">
        <ele>40</ele>
        <time>2010-01-01T13:00:36Z</time>
      </trkpt>
      <trkpt lat="43.33497" lon="3.06402">
        <ele>40</ele>
        <time>2010-01-01T13:00:46Z</time>
      </trkpt>
      <trkpt lat="43.33513" lon="3.06474">
        <ele>41</ele>
        <time>2010-01-01T13:01:08Z</time>
      </trkpt>
      <trkpt lat="43.33586" lon="3.06708">
        <ele>45</ele>
        <time>2010-01-01T13:02:22Z</time>
      </trkpt>
      <trkpt lat="43.33627" lon="3.06797">
        <ele>48</ele>
        <time>2010-01-01T13:02:53Z</time>
      </trkpt>
      <trkpt lat="43.3369" lon="3.06988">
        <ele>55</ele>
        <time>2010-01-01T13:03:54Z</time>
      </trkpt>
      <trkpt lat="43.33702" lon="3.07016">
        <ele>58</ele>
        <time>2010-01-01T13:04:03Z</time>
      </trkpt>
      <trkpt lat="43.33734" lon="3.07082">
        <ele>60</ele>
        <time>2010-01-01T13:04:27Z</time>
      </trkpt>
      <trkpt lat="43.33739" lon="3.07094">
        <ele>63</ele>
        <time>2010-01-01T13:04:31Z</time>
      </trkpt>
      <trkpt lat="43.33746" lon="3.07111">
        <ele>64</ele>
        <time>2010-01-01T13:04:36Z</time>
      </trkpt>
      <trkpt lat="43.33772" lon="3.07202">
        <ele>70</ele>
        <time>2010-01-01T13:05:05Z</time>
      </trkpt>
      <trkpt lat="43.33784" lon="3.07247">
        <ele>72</ele>
        <time>2010-01-01T13:05:19Z</time>
      </trkpt>
      <trkpt lat="43.33796" lon="3.07309">
        <ele>76</ele>
        <time>2010-01-01T13:05:37Z</time>
      </trkpt>
      <trkpt lat="43.33804" lon="3.07338">
        <ele>78</ele>
        <time>2010-01-01T13:05:46Z</time>
      </trkpt>
      <trkpt lat="43.33838" lon="3.07422">
        <ele>78</ele>
        <time>2010-01-01T13:06:14Z</time>
      </trkpt>
      <trkpt lat="43.33846" lon="3.07434">
        <ele>77</ele>
        <time>2010-01-01T13:06:19Z</time>
      </trkpt>
      <trkpt lat="43.33861" lon="3.07464">
        <ele>77</ele>
        <time>2010-01-01T13:06:30Z</time>
      </trkpt>
      <trkpt lat="43.3387" lon="3.07485">
        <ele>76</ele>
        <time>2010-01-01T13:06:37Z</time>
      </trkpt>
      <trkpt lat="43.33928" lon="3.07726">
        <ele>78</ele>
        <time>2010-01-01T13:07:51Z</time>
      </trkpt>
      <trkpt lat="43.33965" lon="3.0787">
        <ele>81</ele>
        <time>2010-01-01T13:08:35Z</time>
      </trkpt>
      <trkpt lat="43.33986" lon="3.07974">
        <ele>82</ele>
        <time>2010-01-01T13:09:07Z</time>
      </trkpt>
      <trkpt lat="43.33992" lon="3.08006">
        <ele>83</ele>
        <time>2010-01-01T13:09:16Z</time>
      </trkpt>
      <trkpt lat="43.34008" lon="3.08103">
        <ele>84</ele>
        <time>2010-01-01T13:09:45Z</time>
      </trkpt>
      <trkpt lat="43.34025" lon="3.08155">
        <ele>85</ele>
        <time>2010-01-01T13:10:02Z</time>
      </trkpt>
      <trkpt lat="43.34185" lon="3.08528">
        <ele>80</ele>
        <time>2010-01-01T13:12:08Z</time>
      </trkpt>
      <trkpt lat="43.34198" lon="3.08565">
        <ele>80</ele>
        <time>2010-01-01T13:12:20Z</time>
      </trkpt>
      <trkpt lat="43.34207" lon="3.08597">
        <ele>79</ele>
        <time>2010-01-01T13:12:30Z</time>
      </trkpt>
      <trkpt lat="43.3428" lon="3.08911">
        <ele>77</ele>
        <time>2010-01-01T13:14:06Z</time>
      </trkpt>
      <trkpt lat="43.34305" lon="3.09025">
        <ele>73</ele>
        <time>2010-01-01T13:14:40Z</time>
      </trkpt>
      <trkpt lat="43.34313" lon="3.09055">
        <ele>73</ele>
        <time>2010-01-01T13:14:50Z</time>
      </trkpt>
      <trkpt lat="43.34322" lon="3.0908">
        <ele>72</ele>
        <time>2010-01-01T13:14:58Z</time>
      </trkpt>
      <trkpt lat="43.3433" lon="3.09097">
        <ele>72</ele>
        <time>2010-01-01T13:15:04Z</time>
      </trkpt>
      <trkpt lat="43.34388" lon="3.09205">
        <ele>70</ele>
        <time>2010-01-01T13:15:43Z</time>
      </trkpt>
      <trkpt lat="43.34508" lon="3.09485">
        <ele>66</ele>
        <time>2010-01-01T13:17:17Z</time>
      </trkpt>
      <trkpt lat="43.34537" lon="3.09529">
        <ele>65</ele>
        <time>2010-01-01T13:17:35Z</time>
      </trkpt>
      <trkpt lat="43.34545" lon="3.09545">
        <ele>65</ele>
        <time>2010-01-01T13:17:40Z</time>
      </trkpt>
      <trkpt lat="43.34659" lon="3.0987">
        <ele>58</ele>
        <time>2010-01-01T13:19:25Z</time>
      </trkpt>
      <trkpt lat="43.34681" lon="3.0991">
        <ele>58</ele>
        <time>2010-01-01T13:19:40Z</time>
      </trkpt>
      <trkpt lat="43.3469" lon="3.09921">
        <ele>58</ele>
        <time>2010-01-01T13:19:45Z</time>
      </trkpt>
      <trkpt lat="43.34701" lon="3.09935">
        <ele>57</ele>
        <time>2010-01-01T13:19:51Z</time>
      </trkpt>
      <trkpt lat="43.34737" lon="3.09961">
        <ele>57</ele>
        <time>2010-01-01T13:20:07Z</time>
      </trkpt>
      <trkpt lat="43.34876" lon="3.10046">
        <ele>49</ele>
        <time>2010-01-01T13:21:08Z</time>
      </trkpt>
      <trkpt lat="43.3502" lon="3.10131">
        <ele>46</ele>
        <time>2010-01-01T13:22:11Z</time>
      </trkpt>
      <trkpt lat="43.35095" lon="3.10165">
        <ele>47</ele>
        <time>2010-01-01T13:22:42Z</time>
      </trkpt>
      <trkpt lat="43.35116" lon="3.10178">
        <ele>47</ele>
        <time>2010-01-01T13:22:52Z</time>
      </trkpt>
      <trkpt lat="43.3513" lon="3.1019">
        <ele>47</ele>
        <time>2010-01-01T13:22:58Z</time>
      </trkpt>
      <trkpt lat="43.35142" lon="3.10205">
        <ele>47</ele>
        <time>2010-01-01T13:23:05Z</time>
      </trkpt>
      <trkpt lat="43.3515" lon="3.10222">
        <ele>47</ele>
        <time>2010-01-01T13:23:11Z</time>
      </trkpt>
      <trkpt lat="43.35158" lon="3.10247">
        <ele>47</ele>
        <time>2010-01-01T13:23:18Z</time>
      </trkpt>
      <trkpt lat="43.35191" lon="3.10579">
        <ele>49</ele>
        <time>2010-01-01T13:24:56Z</time>
      </trkpt>
      <trkpt lat="43.35203" lon="3.10674">
        <ele>46</ele>
        <time>2010-01-01T13:25:24Z</time>
      </trkpt>
      <trkpt lat="43.35208" lon="3.10729">
        <ele>46</ele>
        <time>2010-01-01T13:25:40Z</time>
      </trkpt>
      <trkpt lat="43.35238" lon="3.11186">
        <ele>45</ele>
        <time>2010-01-01T13:27:54Z</time>
      </trkpt>
      <trkpt lat="43.35239" lon="3.11241">
        <ele>45</ele>
        <time>2010-01-01T13:28:10Z</time>
      </trkpt>
      <trkpt lat="43.35237" lon="3.1129">
        <ele>45</ele>
        <time>2010-01-01T13:28:24Z</time>
      </trkpt>
      <trkpt lat="43.3524" lon="3.11329">
        <ele>46</ele>
        <time>2010-01-01T13:28:36Z</time>
      </trkpt>
      <trkpt lat="43.3525" lon="3.11407">
        <ele>45</ele>
        <time>2010-01-01T13:28:59Z</time>
      </trkpt>
      <trkpt lat="43.35251" lon="3.11414">
        <ele>45</ele>
        <time>2010-01-01T13:29:01Z</time>
      </trkpt>
      <trkpt lat="43.35255" lon="3.11435">
        <ele>45</ele>
        <time>2010-01-01T13:29:07Z</time>
      </trkpt>
      <trkpt lat="43.35262" lon="3.11462">
        <ele>45</ele>
        <time>2010-01-01T13:29:15Z</time>
      </trkpt>
      <trkpt lat="43.35268" lon="3.11475">
        <ele>45</ele>
        <time>2010-01-01T13:29:20Z</time>
      </trkpt>
      <trkpt lat="43.35283" lon="3.11508">
        <ele>45</ele>
        <time>2010-01-01T13:29:31Z</time>
      </trkpt>
      <trkpt lat="43.35288" lon="3.11518">
        <ele>45</ele>
        <time>2010-01-01T13:29:35Z</time>
      </trkpt>
      <trkpt lat="43.35322" lon="3.1157">
        <ele>45</ele>
        <time>2010-01-01T13:29:55Z</time>
      </trkpt>
      <trkpt lat="43.35391" lon="3.11712">
        <ele>45</ele>
        <time>2010-01-01T13:30:45Z</time>
      </trkpt>
      <trkpt lat="43.35436" lon="3.11788">
        <ele>47</ele>
        <time>2010-01-01T13:31:13Z</time>
      </trkpt>
      <trkpt lat="43.35445" lon="3.11804">
        <ele>47</ele>
        <time>2010-01-01T13:31:19Z</time>
      </trkpt>
      <trkpt lat="43.35447" lon="3.1181">
        <ele>47</ele>
        <time>2010-01-01T13:31:21Z</time>
      </trkpt>
      <trkpt lat="43.35478" lon="3.11931">
        <ele>49</ele>
        <time>2010-01-01T13:31:58Z</time>
      </trkpt>
      <trkpt lat="43.35497" lon="3.11974">
        <ele>50</ele>
        <time>2010-01-01T13:32:13Z</time>
      </trkpt>
      <trkpt lat="43.35512" lon="3.11996">
        <ele>51</ele>
        <time>2010-01-01T13:32:22Z</time>
      </trkpt>
      <trkpt lat="43.35522" lon="3.1201">
        <ele>52</ele>
        <time>2010-01-01T13:32:28Z</time>
      </trkpt>
      <trkpt lat="43.35543" lon="3.12037">
        <ele>52</ele>
        <time>2010-01-01T13:32:39Z</time>
      </trkpt>
      <trkpt lat="43.35547" lon="3.12036">
        <ele>53</ele>
        <time>2010-01-01T13:32:41Z</time>
      </trkpt>
      <trkpt lat="43.35599" lon="3.12028">
        <ele>55</ele>
        <time>2010-01-01T13:33:02Z</time>
      </trkpt>
      <trkpt lat="43.35665" lon="3.12024">
        <ele>56</ele>
        <time>2010-01-01T13:33:28Z</time>
      </trkpt>
      <trkpt lat="43.35732" lon="3.12021">
        <ele>57</ele>
        <time>2010-01-01T13:33:55Z</time>
      </trkpt>
      <trkpt lat="43.35742" lon="3.12017">
        <ele>57</ele>
        <time>2010-01-01T13:33:59Z</time>
      </trkpt>
      <trkpt lat="43.3575" lon="3.12009">
        <ele>57</ele>
        <time>2010-01-01T13:34:03Z</time>
      </trkpt>
      <trkpt lat="43.35758" lon="3.12008">
        <ele>57</ele>
        <time>2010-01-01T13:34:06Z</time>
      </trkpt>
      <trkpt lat="43.35764" lon="3.12009">
        <ele>58</ele>
        <time>2010-01-01T13:34:09Z</time>
      </trkpt>
      <trkpt lat="43.35769" lon="3.11993">
        <ele>55</ele>
        <time>2010-01-01T13:34:14Z</time>
      </trkpt>
      <trkpt lat="43.35776" lon="3.11971">
        <ele>55</ele>
        <time>2010-01-01T13:34:21Z</time>
      </trkpt>
      <trkpt lat="43.35781" lon="3.11971">
        <ele>55</ele>
        <time>2010-01-01T13:34:23Z</time>
      </trkpt>
      <trkpt lat="43.35789" lon="3.1197">
        <ele>55</ele>
        <time>2010-01-01T13:34:26Z</time>
      </trkpt>
      <trkpt lat="43.3581" lon="3.11955">
        <ele>55</ele>
        <time>2010-01-01T13:34:35Z</time>
      </trkpt>
      <trkpt lat="43.35819" lon="3.1195">
        <ele>55</ele>
        <time>2010-01-01T13:34:39Z</time>
      </trkpt>
      <trkpt lat="43.35836" lon="3.11943">
        <ele>55</ele>
        <time>2010-01-01T13:34:46Z</time>
      </trkpt>
      <trkpt lat="43.35861" lon="3.11934">
        <ele>55</ele>
        <time>2010-01-01T13:34:57Z</time>
      </trkpt>
      <trkpt lat="43.35869" lon="3.1193">
        <ele>55</ele>
        <time>2010-01-01T13:35:00Z</time>
      </trkpt>
      <trkpt lat="43.35923" lon="3.11904">
        <ele>52</ele>
        <time>2010-01-01T13:35:23Z</time>
      </trkpt>
      <trkpt lat="43.35934" lon="3.11897">
        <ele>51</ele>
        <time>2010-01-01T13:35:28Z</time>
      </trkpt>
      <trkpt lat="43.35961" lon="3.11877">
        <ele>50</ele>
        <time>2010-01-01T13:35:40Z</time>
      </trkpt>
      <trkpt lat="43.36003" lon="3.11847">
        <ele>47</ele>
        <time>2010-01-01T13:35:59Z</time>
      </trkpt>
      <trkpt lat="43.36044" lon="3.11815">
        <ele>43</ele>
        <time>2010-01-01T13:36:18Z</time>
      </trkpt>
      <trkpt lat="43.36065" lon="3.11802">
        <ele>43</ele>
        <time>2010-01-01T13:36:27Z</time>
      </trkpt>
      <trkpt lat="43.36086" lon="3.11798">
        <ele>41</ele>
        <time>2010-01-01T13:36:36Z</time>
      </trkpt>
      <trkpt lat="43.36094" lon="3.11799">
        <ele>41</ele>
        <time>2010-01-01T13:36:39Z</time>
      </trkpt>
      <trkpt lat="43.36104" lon="3.11802">
        <ele>41</ele>
        <time>2010-01-01T13:36:43Z</time>
      </trkpt>
      <trkpt lat="43.36128" lon="3.11819">
        <ele>41</ele>
        <time>2010-01-01T13:36:54Z</time>
      </trkpt>
      <trkpt lat="43.36141" lon="3.11833">
        <ele>40</ele>
        <time>2010-01-01T13:37:00Z</time>
      </trkpt>
      <trkpt lat="43.36156" lon="3.11853">
        <ele>42</ele>
        <time>2010-01-01T13:37:09Z</time>
      </trkpt>
      <trkpt lat="43.36167" lon="3.11868">
        <ele>40</ele>
        <time>2010-01-01T13:37:15Z</time>
      </trkpt>
      <trkpt lat="43.36173" lon="3.11877">
        <ele>40</ele>
        <time>2010-01-01T13:37:19Z</time>
      </trkpt>
      <trkpt lat="43.36181" lon="3.11891">
        <ele>40</ele>
        <time>2010-01-01T13:37:24Z</time>
      </trkpt>
      <trkpt lat="43.36186" lon="3.11902">
        <ele>40</ele>
        <time>2010-01-01T13:37:27Z</time>
      </trkpt>
      <trkpt lat="43.3619" lon="3.11912">
        <ele>40</ele>
        <time>2010-01-01T13:37:31Z</time>
      </trkpt>
      <trkpt lat="43.36198" lon="3.11933">
        <ele>41</ele>
        <time>2010-01-01T13:37:38Z</time>
      </trkpt>
      <trkpt lat="43.36216" lon="3.1198">
        <ele>41</ele>
        <time>2010-01-01T13:37:53Z</time>
      </trkpt>
      <trkpt lat="43.36221" lon="3.12001">
        <ele>41</ele>
        <time>2010-01-01T13:38:00Z</time>
      </trkpt>
      <trkpt lat="43.36227" lon="3.12032">
        <ele>41</ele>
        <time>2010-01-01T13:38:09Z</time>
      </trkpt>
      <trkpt lat="43.36235" lon="3.12071">
        <ele>40</ele>
        <time>2010-01-01T13:38:21Z</time>
      </trkpt>
      <trkpt lat="43.3624" lon="3.12083">
        <ele>39</ele>
        <time>2010-01-01T13:38:25Z</time>
      </trkpt>
      <trkpt lat="43.36251" lon="3.12098">
        <ele>37</ele>
        <time>2010-01-01T13:38:31Z</time>
      </trkpt>
      <trkpt lat="43.36257" lon="3.12103">
        <ele>37</ele>
        <time>2010-01-01T13:38:34Z</time>
      </trkpt>
      <trkpt lat="43.36265" lon="3.12107">
        <ele>37</ele>
        <time>2010-01-01T13:38:37Z</time>
      </trkpt>
      <trkpt lat="43.3628" lon="3.1211">
        <ele>36</ele>
        <time>2010-01-01T13:38:43Z</time>
      </trkpt>
      <trkpt lat="43.3632" lon="3.12109">
        <ele>36</ele>
        <time>2010-01-01T13:38:59Z</time>
      </trkpt>
      <trkpt lat="43.3636" lon="3.12108">
        <ele>36</ele>
        <time>2010-01-01T13:39:15Z</time>
      </trkpt>
      <trkpt lat="43.36391" lon="3.12109">
        <ele>35</ele>
        <time>2010-01-01T13:39:28Z</time>
      </trkpt>
      <trkpt lat="43.3641" lon="3.12102">
        <ele>35</ele>
        <time>2010-01-01T13:39:36Z</time>
      </trkpt>
      <trkpt lat="43.36415" lon="3.12097">
        <ele>35</ele>
        <time>2010-01-01T13:39:38Z</time>
      </trkpt>
      <trkpt lat="43.36422" lon="3.12105">
        <ele>36</ele>
        <time>2010-01-01T13:39:42Z</time>
      </trkpt>
      <trkpt lat="43.36431" lon="3.12124">
        <ele>36</ele>
        <time>2010-01-01T13:39:48Z</time>
      </trkpt>
      <trkpt lat="43.36433" lon="3.12136">
        <ele>36</ele>
        <time>2010-01-01T13:39:52Z</time>
      </trkpt>
      <trkpt lat="43.36434" lon="3.12146">
        <ele>36</ele>
        <time>2010-01-01T13:39:55Z</time>
      </trkpt>
      <trkpt lat="43.36431" lon="3.12176">
        <ele>36</ele>
        <time>2010-01-01T13:40:04Z</time>
      </trkpt>
      <trkpt lat="43.36424" lon="3.12213">
        <ele>37</ele>
        <time>2010-01-01T13:40:15Z</time>
      </trkpt>
      <trkpt lat="43.36415" lon="3.12264">
        <ele>37</ele>
        <time>2010-01-01T13:40:30Z</time>
      </trkpt>
      <trkpt lat="43.36408" lon="3.12316">
        <ele>37</ele>
        <time>2010-01-01T13:40:45Z</time>
      </trkpt>
      <trkpt lat="43.36397" lon="3.12361">
        <ele>38</ele>
        <time>2010-01-01T13:40:59Z</time>
      </trkpt>
      <trkpt lat="43.36383" lon="3.12399">
        <ele>38</ele>
        <time>2010-01-01T13:41:12Z</time>
      </trkpt>
      <trkpt lat="43.36378" lon="3.12409">
        <ele>38</ele>
        <time>2010-01-01T13:41:15Z</time>
      </trkpt>
      <trkpt lat="43.36359" lon="3.12453">
        <ele>38</ele>
        <time>2010-01-01T13:41:30Z</time>
      </trkpt>
      <trkpt lat="43.36338" lon="3.12505">
        <ele>38</ele>
        <time>2010-01-01T13:41:47Z</time>
      </trkpt>
      <trkpt lat="43.36328" lon="3.12546">
        <ele>37</ele>
        <time>2010-01-01T13:42:00Z</time>
      </trkpt>
      <trkpt lat="43.36311" lon="3.12669">
        <ele>38</ele>
        <time>2010-01-01T13:42:36Z</time>
      </trkpt>
      <trkpt lat="43.36296" lon="3.12753">
        <ele>38</ele>
        <time>2010-01-01T13:43:02Z</time>
      </trkpt>
      <trkpt lat="43.36277" lon="3.12796">
        <ele>38</ele>
        <time>2010-01-01T13:43:16Z</time>
      </trkpt>
      <trkpt lat="43.36249" lon="3.12839">
        <ele>36</ele>
        <time>2010-01-01T13:43:33Z</time>
      </trkpt>
      <trkpt lat="43.36233" lon="3.12871">
        <ele>36</ele>
        <time>2010-01-01T13:43:44Z</time>
      </trkpt>
      <trkpt lat="43.36213" lon="3.12967">
        <ele>36</ele>
        <time>2010-01-01T13:44:13Z</time>
      </trkpt>
      <trkpt lat="43.36212" lon="3.1298">
        <ele>36</ele>
        <time>2010-01-01T13:44:17Z</time>
      </trkpt>
      <trkpt lat="43.36218" lon="3.1301">
        <ele>36</ele>
        <time>2010-01-01T13:44:26Z</time>
      </trkpt>
      <trkpt lat="43.36234" lon="3.13052">
        <ele>36</ele>
        <time>2010-01-01T13:44:40Z</time>
      </trkpt>
      <trkpt lat="43.36239" lon="3.13073">
        <ele>37</ele>
        <time>2010-01-01T13:44:46Z</time>
      </trkpt>
      <trkpt lat="43.36241" lon="3.13089">
        <ele>38</ele>
        <time>2010-01-01T13:44:51Z</time>
      </trkpt>
      <trkpt lat="43.36241" lon="3.13108">
        <ele>37</ele>
        <time>2010-01-01T13:44:57Z</time>
      </trkpt>
      <trkpt lat="43.36218" lon="3.13214">
        <ele>38</ele>
        <time>2010-01-01T13:45:29Z</time>
      </trkpt>
      <trkpt lat="43.36198" lon="3.13331">
        <ele>40</ele>
        <time>2010-01-01T13:46:04Z</time>
      </trkpt>
      <trkpt lat="43.36186" lon="3.13478">
        <ele>40</ele>
        <time>2010-01-01T13:46:47Z</time>
      </trkpt>
      <trkpt lat="43.36176" lon="3.13553">
        <ele>42</ele>
        <time>2010-01-01T13:47:09Z</time>
      </trkpt>
      <trkpt lat="43.36169" lon="3.1362">
        <ele>44</ele>
        <time>2010-01-01T13:47:29Z</time>
      </trkpt>
      <trkpt lat="43.36169" lon="3.13643">
        <ele>43</ele>
        <time>2010-01-01T13:47:36Z</time>
      </trkpt>
      <trkpt lat="43.36172" lon="3.13664">
        <ele>42</ele>
        <time>2010-01-01T13:47:42Z</time>
      </trkpt>
      <trkpt lat="43.36178" lon="3.13687">
        <ele>43</ele>
        <time>2010-01-01T13:47:49Z</time>
      </trkpt>
      <trkpt lat="43.36188" lon="3.13712">
        <ele>44</ele>
        <time>2010-01-01T13:47:57Z</time>
      </trkpt>
      <trkpt lat="43.36212" lon="3.13803">
        <ele>45</ele>
        <time>2010-01-01T13:48:25Z</time>
      </trkpt>
      <trkpt lat="43.36219" lon="3.13826">
        <ele>45</ele>
        <time>2010-01-01T13:48:33Z</time>
      </trkpt>
      <trkpt lat="43.36251" lon="3.13923">
        <ele>47</ele>
        <time>2010-01-01T13:49:04Z</time>
      </trkpt>
      <trkpt lat="43.36307" lon="3.14137">
        <ele>47</ele>
        <time>2010-01-01T13:50:10Z</time>
      </trkpt>
      <trkpt lat="43.36348" lon="3.14263">
        <ele>46</ele>
        <time>2010-01-01T13:50:50Z</time>
      </trkpt>
      <trkpt lat="43.36408" lon="3.14462">
        <ele>45</ele>
        <time>2010-01-01T13:51:53Z</time>
      </trkpt>
      <trkpt lat="43.36419" lon="3.14492">
        <ele>45</ele>
        <time>2010-01-01T13:52:02Z</time>
      </trkpt>
      <trkpt lat="43.36461" lon="3.14595">
        <ele>45</ele>
        <time>2010-01-01T13:52:37Z</time>
      </trkpt>
      <trkpt lat="43.36462" lon="3.14597">
        <ele>45</ele>
        <time>2010-01-01T13:52:37Z</time>
      </trkpt>
      <trkpt lat="43.36497" lon="3.14678">
        <ele>45</ele>
        <time>2010-01-01T13:53:05Z</time>
      </trkpt>
      <trkpt lat="43.36514" lon="3.14721">
        <ele>45</ele>
        <time>2010-01-01T13:53:19Z</time>
      </trkpt>
      <trkpt lat="43.3652" lon="3.14741">
        <ele>45</ele>
        <time>2010-01-01T13:53:25Z</time>
      </trkpt>
      <trkpt lat="43.36524" lon="3.14753">
        <ele>45</ele>
        <time>2010-01-01T13:53:29Z</time>
      </trkpt>
      <trkpt lat="43.36537" lon="3.14797">
        <ele>46</ele>
        <time>2010-01-01T13:53:43Z</time>
      </trkpt>
      <trkpt lat="43.36582" lon="3.14997">
        <ele>45</ele>
        <time>2010-01-01T13:54:44Z</time>
      </trkpt>
      <trkpt lat="43.36587" lon="3.15017">
        <ele>45</ele>
        <time>2010-01-01T13:54:50Z</time>
      </trkpt>
      <trkpt lat="43.36609" lon="3.15102">
        <ele>44</ele>
        <time>2010-01-01T13:55:16Z</time>
      </trkpt>
      <trkpt lat="43.36644" lon="3.1526">
        <ele>44</ele>
        <time>2010-01-01T13:56:05Z</time>
      </trkpt>
      <trkpt lat="43.36654" lon="3.15287">
        <ele>44</ele>
        <time>2010-01-01T13:56:13Z</time>
      </trkpt>
      <trkpt lat="43.36651" lon="3.15292">
        <ele>44</ele>
        <time>2010-01-01T13:56:15Z</time>
      </trkpt>
      <trkpt lat="43.36651" lon="3.15298">
        <ele>44</ele>
        <time>2010-01-01T13:56:17Z</time>
      </trkpt>
      <trkpt lat="43.36652" lon="3.15302">
        <ele>44</ele>
        <time>2010-01-01T13:56:18Z</time>
      </trkpt>
      <trkpt lat="43.36654" lon="3.15305">
        <ele>44</ele>
        <time>2010-01-01T13:56:19Z</time>
      </trkpt>
      <trkpt lat="43.36658" lon="3.15306">
        <ele>44</ele>
        <time>2010-01-01T13:56:21Z</time>
      </trkpt>
      <trkpt lat="43.36661" lon="3.15304">
        <ele>44</ele>
        <time>2010-01-01T13:56:22Z</time>
      </trkpt>
      <trkpt lat="43.36664" lon="3.15302">
        <ele>44</ele>
        <time>2010-01-01T13:56:24Z</time>
      </trkpt>
      <trkpt lat="43.36665" lon="3.15298">
        <ele>44</ele>
        <time>2010-01-01T13:56:25Z</time>
      </trkpt>
      <trkpt lat="43.36678" lon="3.15302">
        <ele>43</ele>
        <time>2010-01-01T13:56:30Z</time>
      </trkpt>
      <trkpt lat="43.36713" lon="3.15316">
        <ele>43</ele>
        <time>2010-01-01T13:56:45Z</time>
      </trkpt>
      <trkpt lat="43.36746" lon="3.15347">
        <ele>42</ele>
        <time>2010-01-01T13:57:01Z</time>
      </trkpt>
      <trkpt lat="43.36753" lon="3.15353">
        <ele>43</ele>
        <time>2010-01-01T13:57:04Z</time>
      </trkpt>
      <trkpt lat="43.36772" lon="3.15369">
        <ele>43</ele>
        <time>2010-01-01T13:57:13Z</time>
      </trkpt>
      <trkpt lat="43.36811" lon="3.15392">
        <ele>44</ele>
        <time>2010-01-01T13:57:30Z</time>
      </trkpt>
      <trkpt lat="43.36822" lon="3.15402">
        <ele>45</ele>
        <time>2010-01-01T13:57:35Z</time>
      </trkpt>
      <trkpt lat="43.36832" lon="3.15409">
        <ele>45</ele>
        <time>2010-01-01T13:57:40Z</time>
      </trkpt>
      <trkpt lat="43.36846" lon="3.15421">
        <ele>46</ele>
        <time>2010-01-01T13:57:46Z</time>
      </trkpt>
      <trkpt lat="43.36853" lon="3.15427">
        <ele>46</ele>
        <time>2010-01-01T13:57:50Z</time>
      </trkpt>
      <trkpt lat="43.36845" lon="3.1544">
        <ele>46</ele>
        <time>2010-01-01T13:57:55Z</time>
      </trkpt>
      <trkpt lat="43.36836" lon="3.15455">
        <ele>46</ele>
        <time>2010-01-01T13:58:00Z</time>
      </trkpt>
      <trkpt lat="43.36819" lon="3.15484">
        <ele>44</ele>
        <time>2010-01-01T13:58:11Z</time>
      </trkpt>
      <trkpt lat="43.36809" lon="3.15502">
        <ele>44</ele>
        <time>2010-01-01T13:58:18Z</time>
      </trkpt>
      <trkpt lat="43.36793" lon="3.15531">
        <ele>43</ele>
        <time>2010-01-01T13:58:28Z</time>
      </trkpt>
      <trkpt lat="43.36766" lon="3.15579">
        <ele>42</ele>
        <time>2010-01-01T13:58:46Z</time>
      </trkpt>
      <trkpt lat="43.3676" lon="3.15589">
        <ele>41</ele>
        <time>2010-01-01T13:58:50Z</time>
      </trkpt>
      <trkpt lat="43.36737" lon="3.15628">
        <ele>41</ele>
        <time>2010-01-01T13:59:04Z</time>
      </trkpt>
      <trkpt lat="43.36727" lon="3.15645">
        <ele>41</ele>
        <time>2010-01-01T13:59:11Z</time>
      </trkpt>
      <trkpt lat="43.36706" lon="3.15684">
        <ele>41</ele>
        <time>2010-01-01T13:59:25Z</time>
      </trkpt>
      <trkpt lat="43.36703" lon="3.15689">
        <ele>41</ele>
        <time>2010-01-01T13:59:27Z</time>
      </trkpt>
      <trkpt lat="43.36702" lon="3.1569">
        <ele>41</ele>
        <time>2010-01-01T13:59:27Z</time>
      </trkpt>
      <trkpt lat="43.36628" lon="3.15821">
        <ele>42</ele>
        <time>2010-01-01T14:00:16Z</time>
      </trkpt>
      <trkpt lat="43.36622" lon="3.15831">
        <ele>41</ele>
        <time>2010-01-01T14:00:19Z</time>
      </trkpt>
      <trkpt lat="43.36614" lon="3.15845">
        <ele>41</ele>
        <time>2010-01-01T14:00:25Z</time>
      </trkpt>
      <trkpt lat="43.36561" lon="3.15935">
        <ele>41</ele>
        <time>2010-01-01T14:00:58Z</time>
      </trkpt>
      <trkpt lat="43.36551" lon="3.15953">
        <ele>41</ele>
        <time>2010-01-01T14:01:05Z</time>
      </trkpt>
      <trkpt lat="43.36545" lon="3.15963">
        <ele>41</ele>
        <time>2010-01-01T14:01:09Z</time>
      </trkpt>
      <trkpt lat="43.36544" lon="3.15965">
        <ele>41</ele>
        <time>2010-01-01T14:01:09Z</time>
      </trkpt>
      <trkpt lat="43.36541" lon="3.15971">
        <ele>41</ele>
        <time>2010-01-01T14:01:11Z</time>
      </trkpt>
      <trkpt lat="43.36533" lon="3.15984">
        <ele>41</ele>
        <time>2010-01-01T14:01:16Z</time>
      </trkpt>
      <trkpt lat="43.365" lon="3.16043">
        <ele>40</ele>
        <time>2010-01-01T14:01:38Z</time>
      </trkpt>
      <trkpt lat="43.36479" lon="3.16079">
        <ele>40</ele>
        <time>2010-01-01T14:01:51Z</time>
      </trkpt>
      <trkpt lat="43.36458" lon="3.16117">
        <ele>38</ele>
        <time>2010-01-01T14:02:05Z</time>
      </trkpt>
      <trkpt lat="43.36421" lon="3.16182">
        <ele>36</ele>
        <time>2010-01-01T14:02:29Z</time>
      </trkpt>
      <trkpt lat="43.36358" lon="3.16291">
        <ele>37</ele>
        <time>2010-01-01T14:03:10Z</time>
      </trkpt>
      <trkpt lat="43.36342" lon="3.1632">
        <ele>37</ele>
        <time>2010-01-01T14:03:21Z</time>
      </trkpt>
      <trkpt lat="43.36319" lon="3.16361">
        <ele>38</ele>
        <time>2010-01-01T14:03:36Z</time>
      </trkpt>
      <trkpt lat="43.36272" lon="3.16445">
        <ele>37</ele>
        <time>2010-01-01T14:04:06Z</time>
      </trkpt>
      <trkpt lat="43.36259" lon="3.16467">
        <ele>36</ele>
        <time>2010-01-01T14:04:15Z</time>
      </trkpt>
      <trkpt lat="43.36247" lon="3.16488">
        <ele>37</ele>
        <time>2010-01-01T14:04:22Z</time>
      </trkpt>
      <trkpt lat="43.36223" lon="3.16531">
        <ele>36</ele>
        <time>2010-01-01T14:04:38Z</time>
      </trkpt>
      <trkpt lat="43.36182" lon="3.16602">
        <ele>36</ele>
        <time>2010-01-01T14:05:05Z</time>
      </trkpt>
      <trkpt lat="43.36171" lon="3.16623">
        <ele>36</ele>
        <time>2010-01-01T14:05:12Z</time>
      </trkpt>
      <trkpt lat="43.36127" lon="3.167">
        <ele>34</ele>
        <time>2010-01-01T14:05:41Z</time>
      </trkpt>
      <trkpt lat="43.36041" lon="3.16848">
        <ele>32</ele>
        <time>2010-01-01T14:06:36Z</time>
      </trkpt>
      <trkpt lat="43.36025" lon="3.16876">
        <ele>32</ele>
        <time>2010-01-01T14:06:46Z</time>
      </trkpt>
      <trkpt lat="43.36001" lon="3.16903">
        <ele>32</ele>
        <time>2010-01-01T14:06:59Z</time>
      </trkpt>
      <trkpt lat="43.35996" lon="3.16901">
        <ele>32</ele>
        <time>2010-01-01T14:07:01Z</time>
      </trkpt>
      <trkpt lat="43.35991" lon="3.16902">
        <ele>32</ele>
        <time>2010-01-01T14:07:03Z</time>
      </trkpt>
      <trkpt lat="43.35987" lon="3.16906">
        <ele>32</ele>
        <time>2010-01-01T14:07:05Z</time>
      </trkpt>
      <trkpt lat="43.35981" lon="3.1691">
        <ele>32</ele>
        <time>2010-01-01T14:07:07Z</time>
      </trkpt>
      <trkpt lat="43.35979" lon="3.16918">
        <ele>32</ele>
        <time>2010-01-01T14:07:10Z</time>
      </trkpt>
      <trkpt lat="43.35977" lon="3.16925">
        <ele>32</ele>
        <time>2010-01-01T14:07:12Z</time>
      </trkpt>
      <trkpt lat="43.35978" lon="3.16933">
        <ele>32</ele>
        <time>2010-01-01T14:07:14Z</time>
      </trkpt>
      <trkpt lat="43.35981" lon="3.16939">
        <ele>32</ele>
        <time>2010-01-01T14:07:16Z</time>
      </trkpt>
      <trkpt lat="43.35972" lon="3.1697">
        <ele>31</ele>
        <time>2010-01-01T14:07:26Z</time>
      </trkpt>
      <trkpt lat="43.35945" lon="3.17017">
        <ele>31</ele>
        <time>2010-01-01T14:07:44Z</time>
      </trkpt>
      <trkpt lat="43.35894" lon="3.17105">
        <ele>30</ele>
        <time>2010-01-01T14:08:16Z</time>
      </trkpt>
      <trkpt lat="43.35859" lon="3.17167">
        <ele>30</ele>
        <time>2010-01-01T14:08:39Z</time>
      </trkpt>
      <trkpt lat="43.35811" lon="3.17241">
        <ele>30</ele>
        <time>2010-01-01T14:09:08Z</time>
      </trkpt>
      <trkpt lat="43.35809" lon="3.17245">
        <ele>30</ele>
        <time>2010-01-01T14:09:09Z</time>
      </trkpt>
      <trkpt lat="43.35803" lon="3.17253">
        <ele>30</ele>
        <time>2010-01-01T14:09:13Z</time>
      </trkpt>
      <trkpt lat="43.35786" lon="3.17275">
        <ele>30</ele>
        <time>2010-01-01T14:09:22Z</time>
      </trkpt>
      <trkpt lat="43.35751" lon="3.17332">
        <ele>31</ele>
        <time>2010-01-01T14:09:44Z</time>
      </trkpt>
      <trkpt lat="43.35732" lon="3.17368">
        <ele>30</ele>
        <time>2010-01-01T14:09:57Z</time>
      </trkpt>
      <trkpt lat="43.3572" lon="3.17401">
        <ele>30</ele>
        <time>2010-01-01T14:10:08Z</time>
      </trkpt>
      <trkpt lat="43.35709" lon="3.17421">
        <ele>29</ele>
        <time>2010-01-01T14:10:15Z</time>
      </trkpt>
      <trkpt lat="43.35683" lon="3.1746">
        <ele>28</ele>
        <time>2010-01-01T14:10:30Z</time>
      </trkpt>
      <trkpt lat="43.35664" lon="3.17484">
        <ele>28</ele>
        <time>2010-01-01T14:10:41Z</time>
      </trkpt>
      <trkpt lat="43.35659" lon="3.17486">
        <ele>28</ele>
        <time>2010-01-01T14:10:43Z</time>
      </trkpt>
      <trkpt lat="43.35647" lon="3.17487">
        <ele>28</ele>
        <time>2010-01-01T14:10:47Z</time>
      </trkpt>
      <trkpt lat="43.3564" lon="3.17494">
        <ele>28</ele>
        <time>2010-01-01T14:10:51Z</time>
      </trkpt>
      <trkpt lat="43.35636" lon="3.17502">
        <ele>27</ele>
        <time>2010-01-01T14:10:54Z</time>
      </trkpt>
      <trkpt lat="43.35635" lon="3.17511">
        <ele>27</ele>
        <time>2010-01-01T14:10:56Z</time>
      </trkpt>
      <trkpt lat="43.35636" lon="3.1752">
        <ele>27</ele>
        <time>2010-01-01T14:10:59Z</time>
      </trkpt>
      <trkpt lat="43.35633" lon="3.17557">
        <ele>27</ele>
        <time>2010-01-01T14:11:10Z</time>
      </trkpt>
      <trkpt lat="43.35618" lon="3.17593">
        <ele>27</ele>
        <time>2010-01-01T14:11:22Z</time>
      </trkpt>
      <trkpt lat="43.35586" lon="3.17645">
        <ele>27</ele>
        <time>2010-01-01T14:11:42Z</time>
      </trkpt>
      <trkpt lat="43.35523" lon="3.17758">
        <ele>25</ele>
        <time>2010-01-01T14:12:23Z</time>
      </trkpt>
      <trkpt lat="43.35482" lon="3.17831">
        <ele>25</ele>
        <time>2010-01-01T14:12:50Z</time>
      </trkpt>
      <trkpt lat="43.35403" lon="3.17969">
        <ele>23</ele>
        <time>2010-01-01T14:13:41Z</time>
      </trkpt>
      <trkpt lat="43.35375" lon="3.18019">
        <ele>22</ele>
        <time>2010-01-01T14:14:00Z</time>
      </trkpt>
      <trkpt lat="43.3533" lon="3.18098">
        <ele>23</ele>
        <time>2010-01-01T14:14:29Z</time>
      </trkpt>
      <trkpt lat="43.35222" lon="3.18288">
        <ele>22</ele>
        <time>2010-01-01T14:15:39Z</time>
      </trkpt>
      <trkpt lat="43.35175" lon="3.1837">
        <ele>22</ele>
        <time>2010-01-01T14:16:09Z</time>
      </trkpt>
      <trkpt lat="43.35083" lon="3.18536">
        <ele>23</ele>
        <time>2010-01-01T14:17:10Z</time>
      </trkpt>
      <trkpt lat="43.35035" lon="3.18651">
        <ele>22</ele>
        <time>2010-01-01T14:17:49Z</time>
      </trkpt>
      <trkpt lat="43.34992" lon="3.1875">
        <ele>21</ele>
        <time>2010-01-01T14:18:22Z</time>
      </trkpt>
      <trkpt lat="43.34926" lon="3.18905">
        <ele>19</ele>
        <time>2010-01-01T14:19:15Z</time>
      </trkpt>
      <trkpt lat="43.34883" lon="3.19006">
        <ele>17</ele>
        <time>2010-01-01T14:19:49Z</time>
      </trkpt>
      <trkpt lat="43.34777" lon="3.19253">
        <ele>15</ele>
        <time>2010-01-01T14:21:12Z</time>
      </trkpt>
      <trkpt lat="43.34755" lon="3.19285">
        <ele>15</ele>
        <time>2010-01-01T14:21:25Z</time>
      </trkpt>
      <trkpt lat="43.3474" lon="3.19303">
        <ele>16</ele>
        <time>2010-01-01T14:21:33Z</time>
      </trkpt>
      <trkpt lat="43.3469" lon="3.19345">
        <ele>16</ele>
        <time>2010-01-01T14:21:56Z</time>
      </trkpt>
      <trkpt lat="43.34604" lon="3.19423">
        <ele>14</ele>
        <time>2010-01-01T14:22:38Z</time>
      </trkpt>
      <trkpt lat="43.34552" lon="3.1947">
        <ele>15</ele>
        <time>2010-01-01T14:23:03Z</time>
      </trkpt>
      <trkpt lat="43.34484" lon="3.19532">
        <ele>15</ele>
        <time>2010-01-01T14:23:35Z</time>
      </trkpt>
      <trkpt lat="43.34225" lon="3.19766">
        <ele>12</ele>
        <time>2010-01-01T14:25:39Z</time>
      </trkpt>
      <trkpt lat="43.34192" lon="3.19789">
        <ele>12</ele>
        <time>2010-01-01T14:25:54Z</time>
      </trkpt>
      <trkpt lat="43.34144" lon="3.19804">
        <ele>12</ele>
        <time>2010-01-01T14:26:14Z</time>
      </trkpt>
      <trkpt lat="43.34142" lon="3.19805">
        <ele>12</ele>
        <time>2010-01-01T14:26:15Z</time>
      </trkpt>
      <trkpt lat="43.34139" lon="3.19805">
        <ele>12</ele>
        <time>2010-01-01T14:26:16Z</time>
      </trkpt>
      <trkpt lat="43.34109" lon="3.1981">
        <ele>13</ele>
        <time>2010-01-01T14:26:28Z</time>
      </trkpt>
      <trkpt lat="43.341" lon="3.19811">
        <ele>13</ele>
        <time>2010-01-01T14:26:32Z</time>
      </trkpt>
      <trkpt lat="43.34077" lon="3.19815">
        <ele>14</ele>
        <time>2010-01-01T14:26:41Z</time>
      </trkpt>
      <trkpt lat="43.34041" lon="3.1982">
        <ele>15</ele>
        <time>2010-01-01T14:26:55Z</time>
      </trkpt>
      <trkpt lat="43.33927" lon="3.19836">
        <ele>14</ele>
        <time>2010-01-01T14:27:41Z</time>
      </trkpt>
      <trkpt lat="43.33916" lon="3.19832">
        <ele>14</ele>
        <time>2010-01-01T14:27:46Z</time>
      </trkpt>
      <trkpt lat="43.33909" lon="3.19826">
        <ele>14</ele>
        <time>2010-01-01T14:27:49Z</time>
      </trkpt>
      <trkpt lat="43.33905" lon="3.1982">
        <ele>14</ele>
        <time>2010-01-01T14:27:51Z</time>
      </trkpt>
      <trkpt lat="43.33899" lon="3.19811">
        <ele>14</ele>
        <time>2010-01-01T14:27:55Z</time>
      </trkpt>
      <trkpt lat="43.33891" lon="3.19803">
        <ele>14</ele>
        <time>2010-01-01T14:27:59Z</time>
      </trkpt>
      <trkpt lat="43.3388" lon="3.19792">
        <ele>14</ele>
        <time>2010-01-01T14:28:04Z</time>
      </trkpt>
      <trkpt lat="43.33855" lon="3.1976">
        <ele>14</ele>
        <time>2010-01-01T14:28:18Z</time>
      </trkpt>
      <trkpt lat="43.33836" lon="3.19739">
        <ele>14</ele>
        <time>2010-01-01T14:28:28Z</time>
      </trkpt>
      <trkpt lat="43.3382" lon="3.19726">
        <ele>14</ele>
        <time>2010-01-01T14:28:35Z</time>
      </trkpt>
      <trkpt lat="43.33794" lon="3.19712">
        <ele>14</ele>
        <time>2010-01-01T14:28:46Z</time>
      </trkpt>
      <trkpt lat="43.33787" lon="3.19712">
        <ele>14</ele>
        <time>2010-01-01T14:28:49Z</time>
      </trkpt>
      <trkpt lat="43.33781" lon="3.19715">
        <ele>14</ele>
        <time>2010-01-01T14:28:52Z</time>
      </trkpt>
      <trkpt lat="43.33772" lon="3.19728">
        <ele>14</ele>
        <time>2010-01-01T14:28:57Z</time>
      </trkpt>
      <trkpt lat="43.33773" lon="3.19824">
        <ele>14</ele>
        <time>2010-01-01T14:29:25Z</time>
      </trkpt>
      <trkpt lat="43.33774" lon="3.19919">
        <ele>15</ele>
        <time>2010-01-01T14:29:53Z</time>
      </trkpt>
      <trkpt lat="43.33774" lon="3.2002">
        <ele>15</ele>
        <time>2010-01-01T14:30:22Z</time>
      </trkpt>
      <trkpt lat="43.33779" lon="3.20152">
        <ele>15</ele>
        <time>2010-01-01T14:31:01Z</time>
      </trkpt>
      <trkpt lat="43.33776" lon="3.20165">
        <ele>15</ele>
        <time>2010-01-01T14:31:04Z</time>
      </trkpt>
      <trkpt lat="43.33771" lon="3.20173">
        <ele>15</ele>
        <time>2010-01-01T14:31:08Z</time>
      </trkpt>
      <trkpt lat="43.33763" lon="3.2018">
        <ele>15</ele>
        <time>2010-01-01T14:31:11Z</time>
      </trkpt>
      <trkpt lat="43.33752" lon="3.20192">
        <ele>14</ele>
        <time>2010-01-01T14:31:17Z</time>
      </trkpt>
      <trkpt lat="43.33711" lon="3.20228">
        <ele>15</ele>
        <time>2010-01-01T14:31:36Z</time>
      </trkpt>
      <trkpt lat="43.33698" lon="3.20244">
        <ele>15</ele>
        <time>2010-01-01T14:31:43Z</time>
      </trkpt>
      <trkpt lat="43.33694" lon="3.20251">
        <ele>15</ele>
        <time>2010-01-01T14:31:46Z</time>
      </trkpt>
      <trkpt lat="43.33692" lon="3.20259">
        <ele>15</ele>
        <time>2010-01-01T14:31:48Z</time>
      </trkpt>
      <trkpt lat="43.33692" lon="3.20265">
        <ele>15</ele>
        <time>2010-01-01T14:31:50Z</time>
      </trkpt>
      <trkpt lat="43.33699" lon="3.20286">
        <ele>14</ele>
        <time>2010-01-01T14:31:57Z</time>
      </trkpt>
      <trkpt lat="43.33707" lon="3.20302">
        <ele>14</ele>
        <time>2010-01-01T14:32:03Z</time>
      </trkpt>
      <trkpt lat="43.33716" lon="3.20319">
        <ele>14</ele>
        <time>2010-01-01T14:32:09Z</time>
      </trkpt>
      <trkpt lat="43.33734" lon="3.20359">
        <ele>15</ele>
        <time>2010-01-01T14:32:22Z</time>
      </trkpt>
      <trkpt lat="43.33758" lon="3.20408">
        <ele>15</ele>
        <time>2010-01-01T14:32:40Z</time>
      </trkpt>
      <trkpt lat="43.33766" lon="3.20418">
        <ele>15</ele>
        <time>2010-01-01T14:32:44Z</time>
      </trkpt>
      <trkpt lat="43.33771" lon="3.20424">
        <ele>15</ele>
        <time>2010-01-01T14:32:47Z</time>
      </trkpt>
      <trkpt lat="43.33791" lon="3.20448">
        <ele>16</ele>
        <time>2010-01-01T14:32:57Z</time>
      </trkpt>
      <trkpt lat="43.33809" lon="3.20472">
        <ele>16</ele>
        <time>2010-01-01T14:33:07Z</time>
      </trkpt>
      <trkpt lat="43.33816" lon="3.20482">
        <ele>16</ele>
        <time>2010-01-01T14:33:11Z</time>
      </trkpt>
      <trkpt lat="43.33823" lon="3.20493">
        <ele>16</ele>
        <time>2010-01-01T14:33:16Z</time>
      </trkpt>
      <trkpt lat="43.33826" lon="3.20498">
        <ele>17</ele>
        <time>2010-01-01T14:33:17Z</time>
      </trkpt>
      <trkpt lat="43.33832" lon="3.20514">
        <ele>16</ele>
        <time>2010-01-01T14:33:23Z</time>
      </trkpt>
      <trkpt lat="43.33833" lon="3.20523">
        <ele>16</ele>
        <time>2010-01-01T14:33:25Z</time>
      </trkpt>
      <trkpt lat="43.33833" lon="3.20531">
        <ele>16</ele>
        <time>2010-01-01T14:33:28Z</time>
      </trkpt>
      <trkpt lat="43.33833" lon="3.20537">
        <ele>16</ele>
        <time>2010-01-01T14:33:29Z</time>
      </trkpt>
      <trkpt lat="43.33831" lon="3.20546">
        <ele>16</ele>
        <time>2010-01-01T14:33:32Z</time>
      </trkpt>
      <trkpt lat="43.33825" lon="3.20576">
        <ele>16</ele>
        <time>2010-01-01T14:33:41Z</time>
      </trkpt>
      <trkpt lat="43.33813" lon="3.20626">
        <ele>16</ele>
        <time>2010-01-01T14:33:57Z</time>
      </trkpt>
      <trkpt lat="43.33809" lon="3.20634">
        <ele>16</ele>
        <time>2010-01-01T14:33:59Z</time>
      </trkpt>
      <trkpt lat="43.33802" lon="3.20642">
        <ele>16</ele>
        <time>2010-01-01T14:34:03Z</time>
      </trkpt>
      <trkpt lat="43.33793" lon="3.20644">
        <ele>16</ele>
        <time>2010-01-01T14:34:07Z</time>
      </trkpt>
      <trkpt lat="43.33707" lon="3.2066">
        <ele>14</ele>
        <time>2010-01-01T14:34:41Z</time>
      </trkpt>
      <trkpt lat="43.33702" lon="3.20668">
        <ele>16</ele>
        <time>2010-01-01T14:34:44Z</time>
      </trkpt>
      <trkpt lat="43.33701" lon="3.20671">
        <ele>16</ele>
        <time>2010-01-01T14:34:45Z</time>
      </trkpt>
      <trkpt lat="43.33702" lon="3.20677">
        <ele>16</ele>
        <time>2010-01-01T14:34:47Z</time>
      </trkpt>
      <trkpt lat="43.33706" lon="3.20683">
        <ele>16</ele>
        <time>2010-01-01T14:34:50Z</time>
      </trkpt>
      <trkpt lat="43.3371" lon="3.20685">
        <ele>16</ele>
        <time>2010-01-01T14:34:51Z</time>
      </trkpt>
      <trkpt lat="43.33738" lon="3.20701">
        <ele>16</ele>
        <time>2010-01-01T14:35:03Z</time>
      </trkpt>
      <trkpt lat="43.33751" lon="3.20708">
        <ele>17</ele>
        <time>2010-01-01T14:35:09Z</time>
      </trkpt>
      <trkpt lat="43.33771" lon="3.20719">
        <ele>18</ele>
        <time>2010-01-01T14:35:18Z</time>
      </trkpt>
      <trkpt lat="43.33778" lon="3.20725">
        <ele>18</ele>
        <time>2010-01-01T14:35:21Z</time>
      </trkpt>
      <trkpt lat="43.33782" lon="3.20729">
        <ele>18</ele>
        <time>2010-01-01T14:35:23Z</time>
      </trkpt>
      <trkpt lat="43.33791" lon="3.20744">
        <ele>18</ele>
        <time>2010-01-01T14:35:29Z</time>
      </trkpt>
      <trkpt lat="43.33796" lon="3.20753">
        <ele>17</ele>
        <time>2010-01-01T14:35:32Z</time>
      </trkpt>
      <trkpt lat="43.33801" lon="3.20765">
        <ele>17</ele>
        <time>2010-01-01T14:35:36Z</time>
      </trkpt>
      <trkpt lat="43.33812" lon="3.20793">
        <ele>16</ele>
        <time>2010-01-01T14:35:45Z</time>
      </trkpt>
      <trkpt lat="43.33818" lon="3.20798">
        <ele>16</ele>
        <time>2010-01-01T14:35:48Z</time>
      </trkpt>
      <trkpt lat="43.33826" lon="3.20822">
        <ele>14</ele>
        <time>2010-01-01T14:35:56Z</time>
      </trkpt>
      <trkpt lat="43.3388" lon="3.20973">
        <ele>14</ele>
        <time>2010-01-01T14:36:45Z</time>
      </trkpt>
      <trkpt lat="43.33896" lon="3.2102">
        <ele>19</ele>
        <time>2010-01-01T14:37:00Z</time>
      </trkpt>
      <trkpt lat="43.33901" lon="3.21034">
        <ele>20</ele>
        <time>2010-01-01T14:37:04Z</time>
      </trkpt>
      <trkpt lat="43.33903" lon="3.21049">
        <ele>20</ele>
        <time>2010-01-01T14:37:09Z</time>
      </trkpt>
      <trkpt lat="43.33904" lon="3.21055">
        <ele>21</ele>
        <time>2010-01-01T14:37:11Z</time>
      </trkpt>
      <trkpt lat="43.33906" lon="3.21065">
        <ele>21</ele>
        <time>2010-01-01T14:37:14Z</time>
      </trkpt>
      <trkpt lat="43.33907" lon="3.21073">
        <ele>22</ele>
        <time>2010-01-01T14:37:16Z</time>
      </trkpt>
      <trkpt lat="43.33909" lon="3.21084">
        <ele>24</ele>
        <time>2010-01-01T14:37:19Z</time>
      </trkpt>
      <trkpt lat="43.33908" lon="3.21093">
        <ele>24</ele>
        <time>2010-01-01T14:37:22Z</time>
      </trkpt>
      <trkpt lat="43.33905" lon="3.21111">
        <ele>24</ele>
        <time>2010-01-01T14:37:27Z</time>
      </trkpt>
      <trkpt lat="43.33901" lon="3.21121">
        <ele>24</ele>
        <time>2010-01-01T14:37:31Z</time>
      </trkpt>
      <trkpt lat="43.33889" lon="3.21141">
        <ele>24</ele>
        <time>2010-01-01T14:37:38Z</time>
      </trkpt>
      <trkpt lat="43.33878" lon="3.21156">
        <ele>24</ele>
        <time>2010-01-01T14:37:44Z</time>
      </trkpt>
      <trkpt lat="43.3387" lon="3.21164">
        <ele>24</ele>
        <time>2010-01-01T14:37:48Z</time>
      </trkpt>
      <trkpt lat="43.33857" lon="3.21181">
        <ele>27</ele>
        <time>2010-01-01T14:37:55Z</time>
      </trkpt>
      <trkpt lat="43.3385" lon="3.21192">
        <ele>28</ele>
        <time>2010-01-01T14:38:00Z</time>
      </trkpt>
      <trkpt lat="43.33824" lon="3.21225">
        <ele>24</ele>
        <time>2010-01-01T14:38:14Z</time>
      </trkpt>
      <trkpt lat="43.33821" lon="3.21229">
        <ele>24</ele>
        <time>2010-01-01T14:38:16Z</time>
      </trkpt>
      <trkpt lat="43.33801" lon="3.21238">
        <ele>24</ele>
        <time>2010-01-01T14:38:24Z</time>
      </trkpt>
      <trkpt lat="43.33783" lon="3.21247">
        <ele>23</ele>
        <time>2010-01-01T14:38:32Z</time>
      </trkpt>
      <trkpt lat="43.33757" lon="3.21269">
        <ele>27</ele>
        <time>2010-01-01T14:38:44Z</time>
      </trkpt>
      <trkpt lat="43.33731" lon="3.21295">
        <ele>23</ele>
        <time>2010-01-01T14:38:57Z</time>
      </trkpt>
      <trkpt lat="43.33722" lon="3.21308">
        <ele>24</ele>
        <time>2010-01-01T14:39:02Z</time>
      </trkpt>
      <trkpt lat="43.33711" lon="3.21325">
        <ele>23</ele>
        <time>2010-01-01T14:39:09Z</time>
      </trkpt>
      <trkpt lat="43.33701" lon="3.21347">
        <ele>26</ele>
        <time>2010-01-01T14:39:16Z</time>
      </trkpt>
      <trkpt lat="43.33697" lon="3.21366">
        <ele>27</ele>
        <time>2010-01-01T14:39:22Z</time>
      </trkpt>
      <trkpt lat="43.33673" lon="3.21522">
        <ele>29</ele>
        <time>2010-01-01T14:40:08Z</time>
      </trkpt>
      <trkpt lat="43.33669" lon="3.21547">
        <ele>29</ele>
        <time>2010-01-01T14:40:16Z</time>
      </trkpt>
      <trkpt lat="43.33674" lon="3.21719">
        <ele>24</ele>
        <time>2010-01-01T14:41:06Z</time>
      </trkpt>
      <trkpt lat="43.33676" lon="3.21841">
        <ele>25</ele>
        <time>2010-01-01T14:41:41Z</time>
      </trkpt>
      <trkpt lat="43.33673" lon="3.21841">
        <ele>25</ele>
        <time>2010-01-01T14:41:43Z</time>
      </trkpt>
      <trkpt lat="43.33664" lon="3.21842">
        <ele>22</ele>
        <time>2010-01-01T14:41:46Z</time>
      </trkpt>
      <trkpt lat="43.33656" lon="3.21839">
        <ele>22</ele>
        <time>2010-01-01T14:41:50Z</time>
      </trkpt>
      <trkpt lat="43.33647" lon="3.21849">
        <ele>22</ele>
        <time>2010-01-01T14:41:54Z</time>
      </trkpt>
      <trkpt lat="43.33641" lon="3.21889">
        <ele>22</ele>
        <time>2010-01-01T14:42:06Z</time>
      </trkpt>
    </trkseg>
  </trk>
</gpx>